[[{"header":{"parameterUnit":"m.s-1","parameterCategory":1,"la1":31.0,"la2":29.5877,"lo1":-88.7671,"lo2":-86.6584,"dy":0.0162,"dx":0.0185,"nx":115,"ny":88,"refTime":"2023-06-23T00:00:00:Z","depth":0,"parameterNumber":2,"parameterNumberName":"U-component_of_WINDS"},"data":[0.0,0.0,0.0,0.0,0.0,0.0,0.0,0.0,0.0,0.0,0.0,0.0,0.0,0.0,0.0,0.0,0.0,0.0,0.0,0.0,0.0,0.0,0.0,0.0,0.0,0.0,0.0,0.0,0.0,0.0,0.0,0.0,0.0,0.0,0.0,0.0,0.0,0.0,0.0,0.0,0.0,0.0,0.0,0.0,0.0,0.0,0.0,0.0,0.0,0.0,0.0,0.0,0.0,0.0,0.0,0.0,0.0,0.0,0.0,0.0,0.0,0.0,0.0,0.0,0.0,0.0,0.0,0.0,0.0,0.0,0.0,0.0,0.0,0.0,0.0,0.0,0.0,0.0,0.0,0.0,0.0,0.0,0.0,0.0,0.0,0.0,0.0,0.0,0.0,0.0,0.0,0.0,0.0,0.0,0.0,0.0,0.0,0.0,0.0,0.0,0.0,0.0,0.0,0.0,0.0,0.0,0.0,0.0,0.0,0.0,0.0,0.0,0.0,0.0,0.0,0.0,0.0,0.0,0.0,0.0,0.0,0.0,0.0,0.0,0.0,0.0,0.0,0.0,0.0,0.0,0.0,0.0,0.0,0.0,0.0,0.0,0.0,0.0,0.0,0.0,0.0,0.0,0.0,0.0,0.0,0.0,0.0,0.0,0.0,0.0,0.0,0.0,0.0,0.0,0.0,0.0,0.0,0.0,0.0,0.0,0.0,0.0,0.0,0.0,0.0,0.0,0.0,0.0,0.0,0.0,0.0,0.0,0.0,0.0,0.0,0.0,0.0,0.0,0.0,0.0,0.0,0.0,0.0,0.0,0.0,0.0,0.0,0.0,0.0,0.0,0.0,0.0,0.0,0.0,0.0,0.0,0.0,0.0,0.0,0.0,0.0,0.0,0.0,0.0,0.0,0.0,0.0,0.0,0.0,0.0,0.0,0.0,0.0,0.0,0.0,0.0,0.0,0.0,0.0,0.0,0.0,0.0,0.0,0.0,0.0,0.0,0.0,0.0,0.0,0.0,0.0,0.0,0.0,0.0,0.0,0.0,0.0,0.0,0.0,0.0,0.0,0.0,0.0,0.0,0.0,0.0,0.0,0.0,0.0,0.0,0.0,0.0,0.0,0.0,0.0,0.0,0.0,0.0,0.0,0.0,0.0,0.0,0.0,0.0,0.0,0.0,0.0,0.0,0.0,0.0,0.0,0.0,0.0,0.0,0.0,0.0,0.0,0.0,0.0,0.0,0.0,0.0,0.0,0.0,0.0,0.0,0.0,0.0,0.0,0.0,0.0,0.0,0.0,0.0,0.0,0.0,0.0,0.0,0.0,0.0,0.0,0.0,0.0,0.0,0.0,0.0,0.0,0.0,0.0,0.0,0.0,0.0,0.0,0.0,0.0,0.0,0.0,0.0,0.0,0.0,0.0,0.0,0.0,0.0,0.0,0.0,0.0,0.0,0.0,0.0,0.0,0.0,0.0,0.0,0.0,0.0,0.0,0.0,0.0,0.0,0.0,0.0,0.0,0.0,0.0,0.0,0.0,0.0,0.0,0.0,0.0,0.0,0.0,0.0,0.0,0.0,0.0,0.0,0.0,0.0,0.0,0.0,0.0,0.0,0.0,0.0,0.0,0.0,0.0,0.0,0.0,0.0,0.0,0.0,0.0,0.0,0.0,0.0,0.0,0.0,0.0,0.0,0.0,0.0,0.0,0.0,0.0,0.0,0.0,0.0,0.0,0.0,0.0,0.0,0.0,0.0,0.0,0.0,0.0,0.0,0.0,0.0,0.0,0.0,0.0,0.0,0.0,0.0,0.0,0.0,0.0,0.0,0.0,0.0,0.0,0.0,0.0,0.0,0.0,0.0,0.0,0.0,0.0,0.0,0.0,0.0,0.0,0.0,0.0,0.0,0.0,0.0,0.0,0.0,0.0,0.0,0.0,0.0,0.0,0.0,0.0,0.0,0.0,0.0,0.0,0.0,0.0,0.0,0.0,0.0,0.0,0.0,0.0,0.0,0.0,0.0,0.0,0.0,0.0,0.0,0.0,0.0,0.0,0.0,0.0,0.0,0.0,0.0,0.0,0.0,0.0,0.0,0.0,0.0,0.0,0.0,0.0,0.0,0.0,0.0,0.0,0.0,0.0,0.0,0.0,0.0,0.0,0.0,0.0,0.0,0.0,0.0,0.0,0.0,0.0,0.0,0.0,0.0,0.0,0.0,0.0,0.0,0.0,0.0,0.0,0.0,0.0,0.0,0.0,0.0,0.0,0.0,0.0,0.0,0.0,0.0,0.0,0.0,0.0,0.0,0.0,0.0,0.0,0.0,0.0,0.0,0.0,0.0,0.0,0.0,0.0,0.0,0.0,0.0,0.0,0.0,0.0,0.0,0.0,0.0,0.0,0.0,0.0,0.0,0.0,0.0,0.0,0.0,0.0,0.0,0.0,0.0,0.0,0.0,0.0,0.0,0.0,0.0,0.0,0.0,0.0,0.0,0.0,0.0,0.0,0.0,0.0,0.0,0.0,0.0,0.0,0.0,0.0,0.0,0.0,0.0,0.0,0.0,0.0,0.0,0.0,0.0,0.0,0.0,0.0,0.0,0.0,0.0,0.0,0.0,0.0,0.0,0.0,0.0,0.0,0.0,0.0,0.0,0.0,0.0,0.0,0.0,0.0,0.0,0.0,0.0,0.0,0.0,0.0,0.0,0.0,0.0,0.0,0.0,0.0,0.0,0.0,0.0,0.0,0.0,0.0,0.0,0.0,0.0,0.0,0.0,0.0,0.0,0.0,0.0,0.0,0.0,0.0,0.0,0.0,0.0,0.0,0.0,0.0,0.0,0.0,0.0,0.0,0.0,0.0,0.0,0.0,0.0,0.0,0.0,0.0,0.0,0.0,0.0,0.0,0.0,0.0,0.0,0.0,0.0,0.0,0.0,0.0,0.0,0.0,0.0,0.0,0.0,0.0,0.0,0.0,0.0,0.0,0.0,0.0,0.0,0.0,0.0,0.0,0.0,0.0,0.0,0.0,0.0,0.0,0.0,0.0,0.0,0.0,0.0,0.0,0.0,0.0,0.0,0.0,0.0,0.0,0.0,0.0,0.0,0.0,0.0,0.0,0.0,0.0,0.0,0.0,0.0,0.0,0.0,0.0,0.0,0.0,0.0,0.0,0.0,0.0,0.0,0.0,0.0,0.0,0.0,0.0,0.0,0.0,0.0,0.0,0.0,0.0,0.0,0.0,0.0,0.0,0.0,0.0,0.0,0.0,0.0,0.0,0.0,0.0,0.0,0.0,0.0,0.0,0.0,0.0,0.0,0.0,0.0,0.0,0.0,0.0,0.0,0.0,0.0,0.0,0.0,0.0,0.0,0.0,0.0,0.0,0.0,0.0,0.0,0.0,0.0,0.0,0.0,0.0,0.0,0.0,0.0,0.0,0.0,0.0,0.0,0.0,0.0,0.0,0.0,0.0,0.0,0.0,0.0,0.0,0.0,0.0,0.0,0.0,0.0,0.0,0.0,0.0,0.0,0.0,0.0,0.0,0.0,0.0,0.0,0.0,0.0,0.0,0.0,0.0,0.0,0.0,0.0,0.0,0.0,0.0,0.0,0.0,0.0,0.0,0.0,0.0,0.0,0.0,0.0,0.0,0.0,0.0,0.0,0.0,0.0,0.0,0.0,0.0,0.0,0.0,0.0,0.0,0.0,0.0,0.0,0.0,0.0,0.0,0.0,0.0,0.0,0.0,0.0,0.0,0.0,0.0,0.0,0.0,0.0,0.0,0.0,0.0,0.0,0.0,0.0,0.0,0.0,0.0,0.0,0.0,0.0,0.0,0.0,0.0,0.0,0.0,0.0,0.0,0.0,0.0,0.0,0.0,0.0,0.0,0.0,0.0,0.0,0.0,0.0,0.0,0.0,0.0,0.0,0.0,0.0,0.0,0.0,0.0,0.0,0.0,0.0,0.0,0.0,0.0,0.0,0.0,0.0,0.0,0.0,0.0,0.0,0.0,0.0,0.0,0.0,0.0,0.0,0.0,0.0,0.0,0.0,0.0,0.0,0.0,0.0,0.0,0.0,0.0,0.0,0.0,0.0,0.0,0.0,0.0,0.0,0.0,0.0,0.0,0.0,0.0,0.0,0.0,0.0,0.0,0.0,0.0,0.0,0.0,0.0,0.0,0.0,0.0,0.0,0.0,0.0,0.0,0.0,0.0,0.0,0.0,0.0,0.0,0.0,0.0,0.0,0.0,0.0,0.0,0.0,0.0,0.0,0.0,0.0,-4.1506,0.0,0.0,0.0,0.0,0.0,0.0,0.0,0.0,0.0,0.0,0.0,0.0,0.0,0.0,0.0,0.0,0.0,0.0,0.0,0.0,0.0,0.0,0.0,0.0,0.0,0.0,0.0,0.0,0.0,0.0,0.0,0.0,0.0,0.0,0.0,0.0,0.0,0.0,0.0,0.0,0.0,0.0,0.0,0.0,0.0,0.0,0.0,0.0,0.0,0.0,0.0,0.0,0.0,0.0,0.0,0.0,0.0,0.0,0.0,0.0,0.0,0.0,0.0,0.0,0.0,0.0,0.0,0.0,0.0,0.0,0.0,0.0,0.0,0.0,0.0,0.0,0.0,0.0,0.0,0.0,0.0,0.0,0.0,0.0,0.0,0.0,0.0,0.0,0.0,0.0,0.0,0.0,0.0,0.0,0.0,0.0,0.0,0.0,0.0,0.0,0.0,0.0,0.0,0.0,0.0,0.0,0.0,0.0,0.0,0.0,-4.4471,-4.3255,-4.3208,-4.2765,-4.1858,0.0,0.0,0.0,0.0,0.0,0.0,0.0,0.0,0.0,0.0,0.0,0.0,0.0,0.0,0.0,0.0,0.0,0.0,0.0,0.0,0.0,0.0,0.0,0.0,0.0,0.0,0.0,0.0,0.0,0.0,0.0,0.0,0.0,0.0,0.0,0.0,0.0,0.0,0.0,0.0,0.0,0.0,0.0,0.0,0.0,0.0,0.0,0.0,0.0,0.0,0.0,0.0,0.0,0.0,0.0,0.0,0.0,0.0,0.0,0.0,0.0,0.0,0.0,0.0,0.0,0.0,0.0,0.0,0.0,0.0,0.0,0.0,0.0,0.0,0.0,0.0,0.0,0.0,0.0,0.0,0.0,0.0,0.0,0.0,0.0,0.0,0.0,0.0,0.0,0.0,0.0,0.0,0.0,0.0,0.0,0.0,0.0,0.0,0.0,0.0,0.0,0.0,0.0,0.0,0.0,0.0,0.0,0.0,0.0,0.0,0.0,0.0,-4.3979,-4.336,-4.2141,0.0,0.0,0.0,0.0,0.0,0.0,0.0,0.0,0.0,0.0,0.0,0.0,0.0,0.0,0.0,0.0,0.0,0.0,0.0,0.0,0.0,0.0,0.0,0.0,0.0,0.0,0.0,0.0,0.0,0.0,0.0,0.0,0.0,0.0,0.0,0.0,0.0,0.0,0.0,0.0,0.0,0.0,0.0,0.0,0.0,0.0,0.0,0.0,0.0,0.0,0.0,0.0,0.0,0.0,0.0,0.0,0.0,0.0,0.0,0.0,0.0,0.0,0.0,0.0,0.0,0.0,0.0,0.0,0.0,0.0,0.0,0.0,0.0,0.0,0.0,0.0,0.0,0.0,0.0,0.0,0.0,0.0,0.0,0.0,0.0,0.0,0.0,0.0,0.0,0.0,0.0,0.0,0.0,0.0,0.0,0.0,0.0,0.0,0.0,0.0,0.0,0.0,0.0,0.0,0.0,0.0,0.0,0.0,0.0,0.0,-4.6326,-4.5459,-4.5425,0.0,-4.1999,0.0,0.0,0.0,0.0,0.0,0.0,0.0,0.0,0.0,0.0,0.0,0.0,0.0,0.0,0.0,0.0,0.0,0.0,0.0,0.0,0.0,0.0,0.0,0.0,0.0,0.0,0.0,0.0,0.0,0.0,0.0,0.0,0.0,0.0,0.0,0.0,0.0,0.0,0.0,0.0,0.0,0.0,0.0,0.0,0.0,0.0,0.0,0.0,0.0,0.0,0.0,0.0,0.0,0.0,0.0,0.0,0.0,0.0,0.0,0.0,0.0,0.0,0.0,0.0,0.0,0.0,0.0,0.0,0.0,0.0,0.0,0.0,0.0,0.0,0.0,0.0,0.0,0.0,0.0,0.0,0.0,0.0,0.0,0.0,0.0,0.0,0.0,0.0,0.0,0.0,0.0,0.0,0.0,0.0,0.0,0.0,0.0,0.0,0.0,0.0,0.0,0.0,0.0,0.0,0.0,0.0,0.0,0.0,0.0,0.0,-4.6773,-4.6823,-4.5872,-4.4457,0.0,0.0,0.0,0.0,0.0,0.0,0.0,0.0,0.0,0.0,0.0,0.0,0.0,0.0,0.0,0.0,0.0,0.0,0.0,0.0,0.0,0.0,0.0,0.0,0.0,0.0,0.0,0.0,0.0,0.0,0.0,0.0,0.0,0.0,0.0,0.0,0.0,0.0,0.0,0.0,0.0,0.0,0.0,0.0,0.0,0.0,0.0,0.0,0.0,0.0,0.0,0.0,0.0,0.0,0.0,0.0,0.0,0.0,0.0,0.0,0.0,0.0,0.0,0.0,0.0,0.0,0.0,0.0,0.0,0.0,0.0,0.0,0.0,0.0,0.0,0.0,0.0,0.0,0.0,0.0,0.0,0.0,0.0,0.0,0.0,0.0,0.0,0.0,0.0,0.0,0.0,0.0,0.0,0.0,0.0,0.0,0.0,0.0,0.0,0.0,0.0,0.0,0.0,0.0,0.0,0.0,0.0,0.0,0.0,0.0,-4.6694,-4.7231,-4.7851,-4.657,-4.5039,-4.3254,0.0,0.0,0.0,0.0,0.0,0.0,0.0,0.0,0.0,0.0,0.0,0.0,0.0,0.0,0.0,0.0,0.0,0.0,0.0,0.0,0.0,0.0,0.0,0.0,0.0,0.0,0.0,0.0,0.0,0.0,0.0,0.0,0.0,0.0,0.0,0.0,0.0,0.0,0.0,0.0,0.0,0.0,0.0,0.0,0.0,0.0,0.0,0.0,0.0,0.0,0.0,0.0,0.0,0.0,0.0,0.0,0.0,0.0,0.0,0.0,0.0,0.0,0.0,0.0,0.0,0.0,0.0,0.0,0.0,0.0,0.0,0.0,0.0,0.0,0.0,0.0,0.0,0.0,0.0,0.0,0.0,0.0,0.0,0.0,0.0,0.0,0.0,0.0,0.0,0.0,0.0,0.0,0.0,0.0,0.0,0.0,0.0,0.0,0.0,0.0,0.0,0.0,0.0,0.0,0.0,0.0,0.0,0.0,-4.6122,-4.7009,-4.782,-4.8506,-4.782,-4.6234,0.0,0.0,0.0,0.0,0.0,0.0,0.0,0.0,0.0,0.0,0.0,0.0,0.0,0.0,0.0,0.0,0.0,0.0,0.0,0.0,0.0,0.0,0.0,0.0,0.0,0.0,0.0,0.0,0.0,0.0,0.0,0.0,0.0,0.0,0.0,0.0,0.0,0.0,0.0,0.0,0.0,0.0,0.0,0.0,0.0,0.0,0.0,0.0,0.0,0.0,0.0,0.0,0.0,0.0,0.0,0.0,0.0,0.0,0.0,0.0,0.0,0.0,0.0,0.0,0.0,0.0,0.0,0.0,0.0,0.0,0.0,0.0,0.0,0.0,0.0,0.0,0.0,0.0,0.0,0.0,0.0,0.0,0.0,0.0,0.0,0.0,0.0,0.0,0.0,0.0,0.0,0.0,0.0,0.0,0.0,0.0,0.0,0.0,0.0,0.0,0.0,0.0,0.0,0.0,0.0,0.0,0.0,0.0,0.0,-4.6806,-4.8094,-4.8699,-4.8436,-4.766,-4.6079,0.0,0.0,0.0,0.0,0.0,0.0,0.0,0.0,0.0,0.0,0.0,0.0,0.0,0.0,0.0,0.0,0.0,0.0,0.0,0.0,0.0,0.0,0.0,0.0,0.0,0.0,0.0,0.0,0.0,0.0,0.0,0.0,0.0,0.0,0.0,0.0,0.0,0.0,0.0,0.0,0.0,0.0,0.0,0.0,0.0,0.0,0.0,0.0,0.0,0.0,0.0,0.0,0.0,0.0,0.0,0.0,0.0,0.0,0.0,0.0,0.0,0.0,0.0,0.0,0.0,0.0,0.0,0.0,0.0,0.0,0.0,0.0,0.0,0.0,0.0,0.0,0.0,0.0,0.0,0.0,0.0,0.0,0.0,0.0,0.0,0.0,0.0,0.0,0.0,0.0,0.0,0.0,0.0,0.0,0.0,0.0,0.0,0.0,0.0,0.0,0.0,0.0,0.0,0.0,0.0,0.0,0.0,0.0,0.0,-4.7101,0.0,-4.9445,-4.8694,-4.7826,-4.634,0.0,0.0,0.0,0.0,0.0,0.0,0.0,0.0,0.0,0.0,0.0,0.0,0.0,0.0,0.0,0.0,0.0,0.0,0.0,0.0,0.0,0.0,0.0,0.0,0.0,0.0,0.0,0.0,0.0,0.0,0.0,0.0,0.0,0.0,0.0,0.0,0.0,0.0,0.0,0.0,0.0,0.0,0.0,0.0,0.0,0.0,0.0,0.0,0.0,0.0,0.0,0.0,0.0,0.0,0.0,0.0,0.0,0.0,0.0,0.0,0.0,0.0,0.0,0.0,0.0,0.0,0.0,0.0,0.0,0.0,0.0,0.0,0.0,0.0,0.0,0.0,0.0,0.0,0.0,0.0,0.0,0.0,0.0,0.0,0.0,0.0,0.0,0.0,0.0,0.0,0.0,0.0,0.0,0.0,0.0,0.0,0.0,0.0,0.0,0.0,0.0,0.0,0.0,0.0,0.0,0.0,0.0,0.0,-4.5445,-4.702,-4.9229,-4.9977,-4.9229,-4.8515,-4.7029,0.0,0.0,0.0,0.0,0.0,0.0,0.0,0.0,0.0,0.0,0.0,0.0,0.0,0.0,0.0,0.0,0.0,0.0,0.0,0.0,0.0,0.0,0.0,0.0,0.0,0.0,0.0,0.0,0.0,0.0,0.0,0.0,0.0,0.0,0.0,0.0,0.0,0.0,0.0,0.0,0.0,0.0,0.0,0.0,0.0,0.0,0.0,0.0,0.0,0.0,0.0,0.0,0.0,0.0,0.0,0.0,0.0,0.0,0.0,0.0,0.0,0.0,0.0,0.0,0.0,0.0,0.0,0.0,0.0,0.0,0.0,0.0,0.0,0.0,0.0,0.0,0.0,0.0,0.0,0.0,0.0,0.0,0.0,0.0,0.0,0.0,0.0,0.0,0.0,0.0,0.0,0.0,0.0,0.0,0.0,0.0,0.0,0.0,0.0,0.0,0.0,0.0,0.0,0.0,0.0,0.0,0.0,0.0,0.0,-4.7657,-4.9283,-5.0028,-4.9791,-4.8606,-4.6946,0.0,0.0,0.0,0.0,0.0,0.0,0.0,0.0,0.0,0.0,0.0,0.0,0.0,0.0,0.0,0.0,0.0,0.0,0.0,0.0,0.0,0.0,0.0,0.0,0.0,0.0,0.0,0.0,0.0,0.0,0.0,0.0,0.0,0.0,0.0,0.0,0.0,0.0,0.0,0.0,0.0,0.0,0.0,0.0,0.0,0.0,0.0,0.0,0.0,0.0,0.0,0.0,0.0,0.0,0.0,0.0,0.0,0.0,0.0,0.0,0.0,0.0,0.0,0.0,0.0,0.0,0.0,0.0,0.0,0.0,0.0,0.0,0.0,0.0,0.0,0.0,0.0,0.0,0.0,0.0,0.0,0.0,0.0,0.0,0.0,0.0,0.0,0.0,0.0,0.0,0.0,0.0,0.0,0.0,0.0,0.0,0.0,0.0,0.0,0.0,0.0,0.0,0.0,0.0,0.0,0.0,0.0,0.0,0.0,-4.9593,-5.0439,-5.0913,-5.0913,-4.9492,-4.7665,-4.55,0.0,0.0,0.0,0.0,0.0,0.0,0.0,0.0,0.0,0.0,0.0,0.0,0.0,0.0,0.0,0.0,0.0,0.0,0.0,0.0,0.0,0.0,0.0,0.0,0.0,0.0,0.0,0.0,0.0,0.0,0.0,0.0,0.0,0.0,0.0,0.0,0.0,0.0,0.0,0.0,0.0,0.0,0.0,0.0,0.0,0.0,0.0,0.0,0.0,0.0,0.0,0.0,0.0,0.0,0.0,0.0,0.0,0.0,0.0,0.0,0.0,0.0,0.0,0.0,0.0,0.0,0.0,0.0,0.0,0.0,0.0,0.0,0.0,0.0,0.0,0.0,0.0,0.0,0.0,0.0,0.0,0.0,0.0,0.0,0.0,0.0,0.0,0.0,0.0,0.0,0.0,0.0,0.0,0.0,0.0,0.0,0.0,0.0,0.0,0.0,0.0,0.0,0.0,0.0,0.0,0.0,0.0,0.0,-5.2469,-5.2604,-5.2638,-5.2469,-5.1014,-4.9154,0.0,0.0,0.0,0.0,0.0,0.0,0.0,0.0,0.0,0.0,0.0,0.0,0.0,0.0,0.0,0.0,0.0,0.0,0.0,0.0,0.0,0.0,0.0,0.0,0.0,0.0,0.0,0.0,0.0,0.0,0.0,0.0,0.0,0.0,0.0,0.0,0.0,0.0,0.0,0.0,0.0,0.0,0.0,0.0,0.0,0.0,0.0,0.0,0.0,0.0,0.0,0.0,0.0,0.0,0.0,0.0,0.0,0.0,0.0,0.0,0.0,0.0,0.0,0.0,0.0,0.0,0.0,0.0,0.0,0.0,0.0,0.0,0.0,0.0,0.0,0.0,0.0,0.0,0.0,0.0,0.0,0.0,0.0,0.0,0.0,0.0,0.0,0.0,0.0,0.0,0.0,0.0,0.0,0.0,0.0,0.0,0.0,0.0,0.0,0.0,0.0,0.0,0.0,0.0,0.0,0.0,0.0,0.0,0.0,-5.3923,-5.6122,-5.6494,-5.4871,-5.2807,-5.0439,0.0,0.0,0.0,0.0,0.0,0.0,0.0,0.0,0.0,0.0,0.0,0.0,0.0,0.0,0.0,0.0,0.0,0.0,0.0,0.0,0.0,0.0,0.0,0.0,0.0,0.0,0.0,0.0,0.0,0.0,0.0,0.0,0.0,0.0,0.0,0.0,0.0,0.0,0.0,0.0,0.0,0.0,0.0,0.0,0.0,0.0,0.0,0.0,0.0,0.0,0.0,0.0,0.0,0.0,0.0,0.0,0.0,0.0,0.0,0.0,0.0,0.0,0.0,0.0,0.0,0.0,0.0,0.0,0.0,0.0,0.0,0.0,0.0,0.0,0.0,0.0,0.0,0.0,0.0,0.0,0.0,0.0,0.0,0.0,0.0,0.0,0.0,0.0,0.0,0.0,0.0,0.0,0.0,0.0,0.0,0.0,0.0,0.0,0.0,0.0,0.0,0.0,0.0,0.0,0.0,0.0,0.0,0.0,-5.2638,-5.5919,-5.8896,-5.9844,-5.8558,-5.5716,-5.2807,0.0,0.0,0.0,0.0,0.0,0.0,0.0,0.0,0.0,0.0,0.0,0.0,0.0,0.0,0.0,0.0,0.0,0.0,0.0,0.0,0.0,0.0,0.0,0.0,0.0,0.0,0.0,0.0,0.0,0.0,0.0,0.0,0.0,0.0,0.0,0.0,0.0,0.0,0.0,0.0,0.0,0.0,0.0,0.0,0.0,0.0,0.0,0.0,0.0,0.0,0.0,0.0,0.0,0.0,0.0,0.0,0.0,0.0,0.0,0.0,0.0,0.0,0.0,0.0,0.0,0.0,0.0,0.0,0.0,0.0,0.0,0.0,0.0,0.0,0.0,0.0,0.0,0.0,0.0,0.0,0.0,0.0,0.0,0.0,0.0,0.0,0.0,0.0,0.0,0.0,0.0,0.0,0.0,0.0,0.0,0.0,0.0,0.0,0.0,0.0,0.0,0.0,0.0,0.0,0.0,0.0,0.0,0.0,-5.4296,-5.8051,-6.0994,-6.2516,-6.2415,-5.8863,-5.5513,0.0,0.0,0.0,0.0,0.0,0.0,0.0,0.0,0.0,0.0,0.0,0.0,0.0,0.0,0.0,0.0,0.0,0.0,0.0,0.0,0.0,0.0,0.0,0.0,0.0,0.0,0.0,0.0,0.0,0.0,0.0,0.0,0.0,0.0,0.0,0.0,0.0,0.0,0.0,0.0,0.0,0.0,0.0,0.0,0.0,0.0,0.0,0.0,0.0,0.0,0.0,0.0,0.0,0.0,0.0,0.0,0.0,0.0,0.0,0.0,0.0,0.0,0.0,0.0,0.0,0.0,0.0,0.0,0.0,0.0,0.0,0.0,0.0,0.0,0.0,0.0,0.0,0.0,0.0,0.0,0.0,0.0,0.0,0.0,0.0,0.0,0.0,0.0,0.0,0.0,0.0,0.0,0.0,0.0,0.0,0.0,0.0,0.0,0.0,0.0,0.0,0.0,0.0,0.0,0.0,0.0,0.0,0.0,-5.5344,-5.9539,-6.2009,-6.326,-6.326,-5.9607,-5.6258,0.0,0.0,0.0,0.0,0.0,0.0,0.0,0.0,0.0,0.0,0.0,0.0,0.0,0.0,0.0,0.0,0.0,0.0,0.0,0.0,0.0,0.0,0.0,0.0,0.0,0.0,0.0,0.0,0.0,0.0,0.0,0.0,0.0,0.0,0.0,0.0,0.0,0.0,0.0,0.0,0.0,0.0,0.0,0.0,0.0,0.0,0.0,0.0,-3.2258,0.0,0.0,0.0,0.0,0.0,0.0,0.0,0.0,0.0,0.0,0.0,0.0,0.0,0.0,0.0,0.0,0.0,0.0,0.0,0.0,0.0,0.0,0.0,0.0,0.0,0.0,0.0,0.0,0.0,0.0,0.0,0.0,0.0,0.0,0.0,0.0,0.0,0.0,0.0,0.0,0.0,0.0,0.0,0.0,0.0,0.0,0.0,0.0,0.0,0.0,0.0,0.0,0.0,0.0,0.0,0.0,0.0,0.0,0.0,-5.619,-6.0554,-6.2854,-6.4038,-6.3903,-6.0723,-5.7374,0.0,0.0,0.0,0.0,0.0,0.0,0.0,0.0,0.0,0.0,0.0,0.0,0.0,0.0,0.0,0.0,0.0,0.0,0.0,0.0,0.0,0.0,0.0,0.0,0.0,0.0,0.0,0.0,0.0,0.0,0.0,0.0,0.0,0.0,0.0,0.0,0.0,0.0,0.0,0.0,0.0,0.0,0.0,0.0,0.0,0.0,0.0,0.0,0.0,0.0,0.0,0.0,0.0,0.0,0.0,0.0,0.0,0.0,0.0,0.0,0.0,0.0,0.0,0.0,0.0,0.0,0.0,0.0,0.0,0.0,0.0,0.0,0.0,0.0,0.0,0.0,0.0,0.0,0.0,0.0,0.0,0.0,0.0,0.0,0.0,0.0,0.0,0.0,0.0,0.0,0.0,0.0,0.0,0.0,0.0,0.0,0.0,0.0,0.0,0.0,0.0,0.0,0.0,0.0,0.0,0.0,0.0,-5.2909,-5.6934,-6.1298,-6.3429,-6.4444,-6.441,-6.1501,-5.8079,-5.4329,0.0,0.0,0.0,0.0,0.0,0.0,0.0,0.0,0.0,0.0,0.0,0.0,0.0,0.0,0.0,0.0,0.0,0.0,0.0,0.0,0.0,0.0,0.0,0.0,0.0,0.0,0.0,0.0,0.0,0.0,0.0,0.0,0.0,0.0,0.0,0.0,0.0,0.0,-3.0884,-3.2617,0.0,0.0,0.0,0.0,0.0,0.0,0.0,0.0,-3.3166,0.0,0.0,0.0,0.0,0.0,0.0,0.0,0.0,0.0,0.0,0.0,0.0,0.0,0.0,0.0,0.0,0.0,0.0,0.0,0.0,0.0,0.0,0.0,0.0,0.0,0.0,0.0,0.0,0.0,0.0,0.0,0.0,0.0,0.0,0.0,0.0,0.0,0.0,0.0,0.0,0.0,0.0,0.0,0.0,0.0,0.0,0.0,0.0,0.0,0.0,0.0,0.0,0.0,0.0,0.0,0.0,-5.0811,-5.3957,-5.7712,-6.2076,-6.3193,-6.37,-6.3632,-6.0637,-5.6954,-5.264,0.0,0.0,0.0,0.0,0.0,0.0,0.0,0.0,0.0,0.0,0.0,0.0,0.0,0.0,0.0,0.0,0.0,0.0,0.0,0.0,0.0,0.0,0.0,0.0,0.0,0.0,0.0,0.0,0.0,0.0,0.0,0.0,0.0,0.0,0.0,0.0,0.0,0.0,0.0,-3.4337,-3.4842,0.0,0.0,0.0,0.0,0.0,0.0,0.0,0.0,-3.4339,0.0,0.0,0.0,0.0,0.0,0.0,0.0,0.0,0.0,0.0,0.0,0.0,0.0,0.0,0.0,0.0,0.0,0.0,0.0,0.0,0.0,0.0,0.0,0.0,0.0,0.0,0.0,0.0,0.0,0.0,0.0,0.0,0.0,0.0,0.0,0.0,0.0,0.0,0.0,0.0,0.0,0.0,0.0,0.0,0.0,0.0,0.0,0.0,0.0,0.0,0.0,0.0,0.0,0.0,0.0,-5.1116,-5.4194,-5.7712,-6.167,-6.2956,-6.3328,-6.2888,-5.9895,-5.6275,0.0,0.0,0.0,0.0,0.0,0.0,0.0,0.0,0.0,0.0,0.0,0.0,0.0,0.0,0.0,0.0,0.0,0.0,0.0,0.0,0.0,0.0,0.0,0.0,0.0,0.0,0.0,0.0,0.0,0.0,0.0,0.0,0.0,0.0,0.0,0.0,0.0,0.0,0.0,0.0,-3.4949,-3.5503,-3.5465,0.0,0.0,0.0,0.0,0.0,0.0,-3.4551,-3.4893,0.0,0.0,0.0,0.0,0.0,0.0,0.0,0.0,0.0,0.0,0.0,0.0,0.0,0.0,0.0,0.0,0.0,0.0,0.0,0.0,0.0,0.0,0.0,0.0,0.0,0.0,0.0,0.0,0.0,0.0,0.0,0.0,0.0,0.0,0.0,0.0,0.0,0.0,0.0,0.0,0.0,0.0,0.0,0.0,0.0,0.0,0.0,0.0,0.0,0.0,0.0,0.0,0.0,0.0,0.0,-5.115,-5.4194,-5.7543,-6.1163,-6.2618,-6.2922,-6.2066,-5.9043,-5.5458,0.0,0.0,0.0,0.0,0.0,0.0,0.0,0.0,0.0,0.0,0.0,0.0,0.0,0.0,0.0,0.0,0.0,0.0,0.0,0.0,0.0,0.0,0.0,0.0,0.0,0.0,0.0,0.0,0.0,0.0,0.0,0.0,0.0,0.0,0.0,0.0,0.0,0.0,0.0,0.0,0.0,-3.6075,-3.6182,-3.5507,0.0,0.0,0.0,0.0,-3.4574,-3.5125,0.0,0.0,0.0,0.0,0.0,0.0,0.0,0.0,0.0,0.0,0.0,0.0,0.0,0.0,0.0,0.0,0.0,0.0,0.0,0.0,0.0,0.0,0.0,0.0,0.0,0.0,0.0,0.0,0.0,0.0,0.0,0.0,0.0,0.0,0.0,0.0,0.0,0.0,0.0,0.0,0.0,0.0,0.0,0.0,0.0,0.0,0.0,0.0,0.0,0.0,0.0,0.0,0.0,0.0,0.0,0.0,-5.1116,-5.4194,-5.7509,-6.1129,-6.2076,-6.2099,-6.1166,-5.7968,-5.3989,0.0,0.0,0.0,0.0,0.0,0.0,0.0,0.0,0.0,0.0,0.0,0.0,0.0,0.0,0.0,0.0,0.0,0.0,0.0,0.0,0.0,0.0,0.0,0.0,0.0,0.0,0.0,0.0,0.0,0.0,0.0,0.0,0.0,0.0,0.0,0.0,0.0,0.0,0.0,0.0,0.0,-3.6645,-3.7085,-3.6096,-3.5281,0.0,0.0,-3.4603,-3.5154,-3.5623,0.0,0.0,0.0,0.0,0.0,0.0,0.0,0.0,0.0,0.0,0.0,0.0,0.0,0.0,0.0,0.0,0.0,0.0,0.0,0.0,0.0,0.0,0.0,0.0,0.0,0.0,0.0,0.0,0.0,0.0,0.0,0.0,0.0,0.0,0.0,0.0,0.0,0.0,0.0,0.0,0.0,0.0,0.0,0.0,0.0,0.0,0.0,0.0,0.0,0.0,0.0,0.0,0.0,0.0,0.0,-4.6549,-5.0507,-5.3551,-5.6461,-5.9268,-6.041,-6.029,-5.8916,-5.5954,-5.2362,0.0,0.0,0.0,0.0,0.0,0.0,0.0,0.0,0.0,0.0,0.0,0.0,0.0,0.0,0.0,0.0,0.0,0.0,0.0,0.0,0.0,0.0,0.0,0.0,0.0,0.0,0.0,0.0,0.0,0.0,0.0,0.0,0.0,0.0,0.0,0.0,0.0,0.0,0.0,0.0,0.0,0.0,-3.7531,-3.6895,0.0,0.0,0.0,-3.5927,-3.6115,0.0,0.0,0.0,0.0,0.0,0.0,0.0,0.0,0.0,0.0,0.0,0.0,0.0,0.0,0.0,0.0,0.0,0.0,0.0,0.0,0.0,0.0,0.0,0.0,0.0,0.0,0.0,0.0,0.0,0.0,0.0,0.0,0.0,0.0,0.0,0.0,0.0,0.0,0.0,0.0,0.0,0.0,0.0,0.0,0.0,0.0,0.0,0.0,0.0,0.0,0.0,0.0,0.0,0.0,0.0,0.0,0.0,-4.994,-5.291,-5.5508,-5.7668,-5.8959,-5.884,-5.7063,-5.4378,0.0,0.0,0.0,0.0,0.0,0.0,0.0,0.0,0.0,0.0,0.0,0.0,0.0,0.0,0.0,0.0,0.0,0.0,0.0,0.0,0.0,0.0,0.0,0.0,0.0,0.0,0.0,-3.142,0.0,0.0,0.0,0.0,0.0,0.0,0.0,0.0,0.0,0.0,0.0,0.0,0.0,0.0,-3.6372,-3.773,-3.7491,-3.7118,0.0,0.0,-3.6985,-3.6835,-3.6646,-3.623,0.0,0.0,0.0,0.0,0.0,0.0,0.0,0.0,0.0,0.0,0.0,0.0,0.0,0.0,0.0,0.0,0.0,0.0,0.0,0.0,0.0,0.0,0.0,0.0,0.0,0.0,0.0,0.0,0.0,0.0,0.0,0.0,0.0,0.0,0.0,0.0,0.0,0.0,0.0,0.0,0.0,0.0,0.0,0.0,0.0,0.0,0.0,0.0,0.0,0.0,0.0,0.0,0.0,0.0,0.0,-4.962,-5.257,-5.5118,-5.7297,-5.8575,-5.8374,-5.6525,-5.377,-5.0122,0.0,0.0,0.0,0.0,0.0,0.0,0.0,0.0,0.0,0.0,0.0,0.0,0.0,0.0,0.0,0.0,0.0,0.0,0.0,0.0,0.0,0.0,0.0,0.0,0.0,0.0,0.0,0.0,0.0,0.0,0.0,0.0,0.0,0.0,0.0,0.0,0.0,0.0,0.0,0.0,0.0,-3.607,-3.7912,-3.7629,-3.7508,0.0,0.0,-3.7232,-3.7232,-3.6445,-3.5703,-3.5208,0.0,0.0,0.0,0.0,0.0,0.0,0.0,0.0,0.0,0.0,0.0,0.0,0.0,0.0,0.0,0.0,0.0,0.0,0.0,0.0,0.0,0.0,0.0,0.0,0.0,0.0,0.0,0.0,0.0,0.0,0.0,0.0,0.0,0.0,0.0,0.0,0.0,0.0,0.0,0.0,0.0,0.0,0.0,0.0,0.0,0.0,0.0,0.0,0.0,0.0,0.0,0.0,0.0,-4.5257,-4.7928,-5.079,-5.3352,-5.5298,-5.5776,-5.5423,-5.4319,-5.1778,-4.8552,0.0,0.0,0.0,0.0,0.0,0.0,0.0,0.0,0.0,0.0,0.0,0.0,0.0,0.0,0.0,0.0,0.0,0.0,0.0,0.0,0.0,0.0,0.0,0.0,0.0,0.0,0.0,0.0,-3.3004,-3.3,-3.2105,0.0,0.0,0.0,0.0,0.0,0.0,0.0,0.0,0.0,0.0,-3.5176,-3.6647,-3.6726,0.0,0.0,-3.6805,-3.6638,-3.6508,-3.5774,-3.5013,-3.4306,-3.343,0.0,0.0,0.0,0.0,0.0,0.0,0.0,0.0,0.0,0.0,0.0,0.0,0.0,0.0,0.0,0.0,0.0,0.0,0.0,0.0,0.0,0.0,0.0,0.0,0.0,0.0,0.0,0.0,0.0,0.0,0.0,0.0,0.0,0.0,0.0,0.0,0.0,0.0,0.0,0.0,0.0,0.0,0.0,0.0,0.0,0.0,0.0,0.0,0.0,0.0,0.0,0.0,-4.4665,-4.6914,-4.9582,-5.1743,-5.3422,-5.353,-5.3142,-5.2253,-5.0104,-4.7258,0.0,0.0,0.0,0.0,0.0,0.0,0.0,0.0,0.0,0.0,0.0,0.0,0.0,0.0,0.0,0.0,0.0,0.0,0.0,0.0,0.0,0.0,0.0,0.0,0.0,0.0,0.0,0.0,-3.2522,-3.2191,-3.1416,0.0,0.0,0.0,0.0,0.0,0.0,0.0,0.0,0.0,0.0,-3.443,-3.56,-3.6007,-3.6197,-3.6224,-3.6277,-3.606,-3.5573,-3.4792,-3.4041,-3.3218,0.0,0.0,0.0,0.0,0.0,0.0,0.0,0.0,0.0,0.0,0.0,0.0,0.0,0.0,0.0,0.0,0.0,0.0,0.0,0.0,0.0,0.0,0.0,0.0,0.0,0.0,0.0,0.0,0.0,0.0,-4.3628,0.0,0.0,0.0,0.0,0.0,0.0,0.0,0.0,0.0,0.0,0.0,0.0,0.0,0.0,0.0,0.0,0.0,0.0,0.0,0.0,0.0,0.0,-4.4236,-4.6896,-4.9004,-5.0671,-5.194,-5.2444,-5.2044,-5.0699,-4.8948,-4.6562,-4.3394,0.0,0.0,0.0,0.0,0.0,0.0,0.0,0.0,0.0,0.0,0.0,0.0,0.0,0.0,0.0,0.0,0.0,0.0,0.0,0.0,0.0,0.0,0.0,0.0,0.0,0.0,-3.3208,-3.1657,-3.0536,0.0,0.0,0.0,0.0,0.0,0.0,0.0,0.0,0.0,0.0,-3.2555,-3.3806,-3.4981,-3.5648,-3.6109,-3.6468,-3.6385,-3.5843,-3.4473,-3.3569,-3.2829,0.0,0.0,0.0,0.0,0.0,0.0,0.0,0.0,0.0,0.0,0.0,0.0,0.0,0.0,0.0,0.0,0.0,0.0,0.0,0.0,0.0,0.0,0.0,0.0,0.0,0.0,0.0,-4.455,-4.4749,0.0,0.0,0.0,0.0,0.0,0.0,0.0,0.0,0.0,0.0,0.0,-4.9094,-4.9094,0.0,0.0,0.0,0.0,0.0,0.0,0.0,0.0,0.0,0.0,0.0,0.0,-4.3556,-4.5629,-4.7563,-4.9279,-5.0767,-5.056,-5.0203,-4.9727,-4.7896,-4.5231,-4.1667,0.0,0.0,0.0,0.0,0.0,0.0,0.0,0.0,0.0,0.0,0.0,0.0,0.0,0.0,0.0,0.0,0.0,0.0,0.0,0.0,0.0,0.0,0.0,0.0,0.0,-3.2625,0.0,0.0,0.0,0.0,0.0,0.0,0.0,0.0,0.0,0.0,0.0,-3.0519,-3.0843,-3.1811,-3.28,-3.3554,-3.4319,-3.4769,0.0,0.0,0.0,0.0,0.0,0.0,0.0,0.0,0.0,0.0,0.0,0.0,0.0,0.0,-3.0133,-2.9352,-2.9076,-2.8725,-2.7971,0.0,0.0,0.0,0.0,0.0,0.0,0.0,0.0,0.0,0.0,0.0,0.0,0.0,0.0,-4.6709,0.0,-4.6378,0.0,0.0,0.0,0.0,0.0,0.0,0.0,0.0,-4.8895,-4.9657,-5.0585,-5.0585,-5.0585,0.0,-4.9359,-4.7537,0.0,0.0,0.0,0.0,0.0,0.0,0.0,0.0,-4.325,-4.4921,-4.6598,-4.8184,-4.9491,-4.9182,-4.8903,-4.8743,-4.6659,-4.4182,-4.1039,-3.9122,-3.7404,0.0,0.0,0.0,0.0,0.0,0.0,0.0,0.0,0.0,0.0,0.0,0.0,0.0,0.0,0.0,0.0,0.0,0.0,0.0,0.0,0.0,0.0,0.0,-3.1897,0.0,0.0,0.0,0.0,0.0,0.0,0.0,0.0,0.0,-2.8934,-2.9693,-3.0384,-3.065,-3.157,-3.2414,-3.2746,0.0,0.0,0.0,0.0,0.0,0.0,0.0,-3.2689,-3.2212,-3.1883,-3.1625,-3.1637,-3.1838,-3.1989,-3.1964,0.0,0.0,-3.0532,-3.0206,-2.9854,-2.9126,-2.8976,-2.8976,-2.8976,-2.9402,-2.9905,0.0,0.0,0.0,0.0,0.0,0.0,0.0,0.0,-4.8531,-4.863,0.0,-4.7736,0.0,0.0,0.0,0.0,0.0,-4.7736,0.0,0.0,-5.0684,-5.1347,-5.138,-5.1413,-5.138,-5.1313,-5.0618,-4.9525,-4.8001,-4.5032,0.0,0.0,0.0,0.0,0.0,0.0,-4.3388,-4.4874,-4.616,-4.7361,-4.824,-4.8301,-4.8019,-4.7503,-4.5447,-4.3419,-4.1444,-4.0098,-3.8542,-3.6596,-3.4622,0.0,0.0,0.0,0.0,0.0,0.0,0.0,0.0,0.0,0.0,0.0,0.0,0.0,0.0,0.0,0.0,0.0,0.0,0.0,0.0,-3.1744,0.0,0.0,0.0,0.0,0.0,0.0,0.0,0.0,0.0,0.0,-2.9047,-2.9776,-3.0445,-3.0874,0.0,0.0,0.0,0.0,-3.3471,-3.3641,-3.37,-3.3462,-3.2784,-3.2599,-3.2339,-3.1644,0.0,0.0,-3.2139,-3.2692,-3.3043,-3.3068,-3.3018,-3.2717,-3.1637,-3.1035,-3.0683,-3.0608,-3.0557,-3.0633,-3.0658,-3.0934,-3.1336,-5.8128,0.0,0.0,0.0,0.0,-5.1416,-5.1843,-5.2904,-5.2175,-5.1976,-5.2108,-5.0651,0.0,0.0,0.0,0.0,0.0,0.0,-5.0518,-5.2175,-5.2605,-5.3069,-5.3566,-5.3599,-5.3301,-5.2771,-5.2108,-5.121,-5.008,-4.8031,-4.5897,-4.3774,0.0,0.0,0.0,0.0,-4.4037,-4.5249,-4.6425,-4.7197,-4.7794,-4.7794,-4.7256,-4.5987,-4.5334,-4.3868,-4.1474,-4.0576,-3.92,-3.7225,-3.5729,0.0,0.0,0.0,0.0,0.0,0.0,0.0,0.0,0.0,0.0,0.0,0.0,0.0,0.0,0.0,0.0,0.0,0.0,0.0,-3.1774,-3.1309,-3.0729,0.0,0.0,0.0,0.0,0.0,0.0,0.0,0.0,0.0,-2.9555,-3.0214,-3.0874,0.0,0.0,-3.2298,-3.2298,-3.2802,-3.324,-3.324,-3.324,0.0,0.0,-3.2928,-3.2877,-3.2616,-3.2591,-3.2641,-3.2792,-3.2968,-3.3093,-3.3093,-3.3093,-3.2968,-3.2667,-3.2139,-3.1637,-3.1286,-3.116,-3.1185,-3.121,-3.1612,-3.1989,-6.3155,-5.9823,-5.6604,-5.5414,-5.5705,-5.5231,-5.562,-5.6614,-5.5587,-5.5322,-5.5454,-5.3467,-5.2307,-5.1843,-5.085,0.0,0.0,0.0,-5.234,-5.3864,-5.3864,-5.4096,-5.4494,-5.4527,-5.4295,-5.3831,-5.3135,-5.2368,-5.1427,-4.9927,-4.8046,-4.5724,0.0,0.0,-4.3207,-4.3769,-4.4526,-4.5483,-4.6447,-4.7075,-4.7452,-4.7212,-4.6466,-4.5334,-4.4796,-4.3539,-4.1474,-4.0756,-3.9469,-3.7494,-3.6447,-3.528,0.0,0.0,0.0,0.0,0.0,0.0,0.0,0.0,0.0,0.0,0.0,-3.0821,-3.1839,0.0,0.0,0.0,-3.1881,-3.164,-3.1646,-3.1012,0.0,0.0,0.0,0.0,0.0,0.0,0.0,-2.8545,-2.9555,-3.0337,-3.0407,-3.0989,-3.1524,-3.1662,-3.219,-3.2566,-3.2566,0.0,-3.3093,-3.3093,-3.3093,-3.3093,-3.3093,-3.3093,-3.3093,-3.3093,-3.3093,-3.3093,-3.3093,-3.3093,-3.3093,-3.3093,-3.3093,-3.3093,-3.3093,-3.2792,-3.2491,-3.2139,-3.2064,-3.2064,-3.2064,-3.2315,-3.2566,-6.7523,-6.6646,-6.1883,-5.9657,-5.933,-5.9198,-5.9562,-6.0125,-5.8734,-5.8502,-5.8833,-5.6117,-5.4825,-5.4593,-5.3301,0.0,-5.3765,-5.3765,-5.4162,-5.4858,-5.4792,-5.4759,-5.4792,-5.4725,-5.4659,-5.4593,-5.393,-5.3056,-5.2185,-5.1099,-4.9839,-4.8445,-4.6343,-4.493,-4.4351,-4.4555,-4.5044,-4.5642,-4.6304,-4.6851,-4.7279,-4.6681,-4.5992,-4.5304,-4.4018,-4.2731,-4.1444,-4.0756,-3.9469,-3.7524,-3.6866,-3.5938,-3.4651,0.0,0.0,0.0,0.0,0.0,0.0,0.0,0.0,0.0,0.0,0.0,0.0,0.0,0.0,0.0,-3.2157,0.0,-3.1736,-3.0771,0.0,0.0,0.0,-2.8492,-2.8492,-2.8774,-2.9001,-2.9001,0.0,0.0,-3.1336,-3.1913,-3.229,-3.2265,-3.2742,-3.3093,-3.3093,-3.3068,-3.3093,-3.3093,-3.3093,-3.3093,-3.3093,-3.3093,-3.3093,-3.3093,-3.3093,-3.3093,-3.3093,-3.3093,-3.3093,-3.3093,-3.3093,-3.3093,-3.3093,-3.3043,-3.3068,-3.3018,-3.3043,-3.3043,-3.2993,-3.3018,-3.3018,-6.8851,-6.8411,-6.6467,-6.4597,-6.3007,-6.1848,-6.1815,-6.2411,-6.1516,-6.092,-6.0456,-5.8668,-5.7243,-5.615,-5.5819,-5.6051,-5.6746,-5.6746,-5.7144,-5.7806,-5.7276,-5.7011,-5.6978,-5.6448,-5.5885,-5.5388,-5.5189,-5.4237,-5.2721,-5.2235,-5.0962,-4.905,-4.7977,-4.7013,-4.6082,-4.6062,-4.6169,-4.6418,-4.6911,-4.716,-4.7279,-4.6651,-4.5992,-4.5304,-4.4018,-4.2731,-4.1444,-4.0756,-3.9469,-3.7524,-3.7285,-3.6596,-3.531,-3.4622,0.0,0.0,0.0,0.0,0.0,0.0,0.0,0.0,0.0,-3.2018,-3.3185,0.0,-3.3229,0.0,-3.2375,-3.1529,-3.0973,-3.0493,0.0,0.0,-2.9631,-2.9479,-2.9479,-2.9503,-2.9578,-2.9578,-3.0532,-3.126,-3.1386,-3.224,-3.2867,-3.2867,-3.2968,-3.3093,-3.3093,-3.3093,-3.3093,-3.3093,-3.3093,-3.3093,-3.3068,-3.3093,-3.3068,-3.3093,-3.3068,-3.3093,-3.3068,-3.3093,-3.3093,-3.3093,-3.3093,-3.3093,-3.3043,-3.3093,-3.3068,-3.3093,-3.3093,-3.3093,-3.3093,-3.3093,-3.3093,-6.9669,-6.9323,-6.85,-6.738,-6.6187,-6.473,-6.4332,-6.463,-6.3603,-6.2941,-6.2444,-6.0688,-5.9065,-5.7707,-5.7674,-5.7906,-5.827,-5.8303,-5.8502,-5.8866,-5.8469,-5.8104,-5.7773,-5.7376,-5.6812,-5.6084,-5.5709,-5.4886,-5.3825,-5.2758,-5.1476,-4.9962,-4.8934,-4.8028,-4.7283,-4.6849,-4.6695,-4.6911,-4.7186,-4.7309,-4.7279,-4.6352,-4.5663,-4.5274,-4.3449,-4.2132,-4.1384,-4.0157,-3.8841,-3.7494,-3.7135,-3.6537,-3.5579,-3.516,-3.4801,0.0,0.0,0.0,0.0,0.0,0.0,0.0,0.0,0.0,0.0,0.0,-3.3667,-3.3118,-3.2269,-3.1468,-3.0773,-3.0318,-3.0011,-2.9779,-2.9779,-2.9779,-2.9779,-2.9779,-2.9779,-2.9779,-3.0532,-3.1135,-3.1361,-3.2139,-3.2792,-3.3043,-3.3093,-3.3093,-3.3093,-3.3093,-3.3093,-3.3093,-3.3093,-3.2968,-3.2742,-3.2692,-3.2591,-3.2365,-3.234,-3.2315,-3.2315,-3.234,-3.234,-3.2315,-3.2315,-3.2315,-3.2315,-3.2315,-3.2315,-3.2315,-3.234,-3.2516,-3.2968,-3.3093,-3.3093,-6.9988,-6.9732,-6.9103,-6.8837,-6.8705,-6.7281,-6.6618,-6.6419,-6.5094,-6.4465,-6.4266,-6.2179,-6.0523,-5.933,-5.9231,-5.9164,-5.9164,-5.9164,-5.9164,-5.9164,-5.9098,-5.8634,-5.7939,-5.7839,-5.7409,-5.668,-5.582,-5.5226,-5.4861,-5.2935,-5.163,-5.0862,-4.9388,-4.8385,-4.7934,-4.7135,-4.6881,-4.7309,-4.7309,-4.7309,-4.7279,-4.5992,-4.5274,-4.5185,-4.2761,-4.1384,-4.1324,-3.9529,-3.8182,-3.7434,-3.6896,-3.6267,-3.5549,-3.5489,-3.522,0.0,-3.4532,0.0,0.0,0.0,0.0,0.0,0.0,0.0,0.0,-3.4479,-3.4059,-3.2775,-3.1982,-3.1272,-3.0698,-3.0318,-3.0011,-2.9779,-2.9779,-2.9779,-2.9779,-2.9779,-2.9779,-2.9779,-3.0281,-3.0809,-3.121,-3.1788,-3.2315,-3.2692,-3.2767,-3.2767,-3.2842,-3.2867,-3.2893,-3.2893,-3.2867,-3.2566,-3.2215,-3.2114,-3.1964,-3.1512,-3.1461,-3.1386,-3.1461,-3.1436,-3.1411,-3.1411,-3.1461,-3.1436,-3.1386,-3.1411,-3.1411,-3.1461,-3.1486,-3.1763,-3.2516,-3.2767,-3.2893,-7.0082,-6.9798,-6.9633,-6.9599,-6.9467,-6.8042,-6.7082,-6.6452,-6.5591,-6.4895,-6.4266,-6.2676,-6.1815,-6.1516,-6.0953,-6.0688,-6.0688,-6.0688,-6.0688,-6.0688,-6.0059,-5.9396,-5.8668,-5.7912,-5.7173,-5.648,-5.608,-5.5436,-5.4453,-5.3214,-5.1917,-5.0618,-4.9109,-4.8218,-4.7964,0.0,0.0,0.0,-4.7309,-4.7309,-4.7249,-4.5992,-4.5274,-4.5244,-4.2761,0.0,-4.1324,-3.9978,-3.8661,-3.7494,-3.7285,0.0,0.0,0.0,0.0,0.0,0.0,0.0,0.0,0.0,0.0,0.0,-3.4852,-3.5085,-3.4955,-3.4216,-3.3381,-3.2561,-3.1616,-3.0898,-3.052,-3.0088,-2.9882,-2.9779,-2.9779,-2.9779,-2.9779,-2.9779,-2.9779,-2.9804,-3.0281,-3.0658,-3.0783,-3.1235,-3.1587,-3.1738,-3.1712,-3.1712,-3.1738,-3.2114,-3.219,-3.1813,-3.1788,-3.1712,-3.1562,-3.1537,-3.1512,-3.1386,-3.1386,-3.1361,-3.1336,-3.1336,-3.1361,-3.1336,-3.1386,-3.1361,-3.1361,-3.1386,-3.1311,-3.1361,-3.1361,-3.1461,-3.1662,-3.1712,-3.1838,-6.9893,0.0,-6.9798,-6.9798,0.0,-6.8241,-6.7413,-6.6982,-6.5889,-6.5028,-6.4299,-6.3206,-6.251,-6.2113,-6.1417,-6.1119,-6.1119,-6.1119,-6.1119,-6.1086,-6.0721,-5.996,-5.8899,-5.8294,-5.7456,-5.6402,-5.5974,-5.549,-5.4859,-5.3181,-5.191,-5.0986,-4.9211,-4.8133,-4.7794,-4.7482,-4.7309,-4.7309,-4.7309,-4.713,-4.68,-4.5813,-4.5125,-4.4736,0.0,0.0,0.0,0.0,0.0,0.0,0.0,0.0,0.0,0.0,0.0,-3.6447,-3.6118,-3.5908,-3.5938,-3.5938,-3.5908,-3.5908,-3.5607,-3.5192,-3.4698,-3.3894,-3.3101,-3.2345,-3.1495,-3.0849,-3.0444,-3.0011,-2.9779,-2.9779,-2.9779,-2.9779,-2.9779,-2.9779,-2.9779,-2.9804,-3.003,-3.0306,-3.0583,-3.0834,-3.111,-3.1336,-3.1386,-3.1286,-3.111,-3.1461,-3.1687,-3.1411,-3.1386,-3.1286,-3.106,-3.1009,-3.0884,-3.0683,-3.0608,-3.0608,-3.0608,-3.0608,-3.0583,-3.0608,-3.0608,-3.0608,-3.0608,-3.0608,-3.0608,-3.0608,-3.0608,-3.0608,-3.0633,-3.1009,-3.1461,-6.9798,-6.9798,-6.9798,-6.9798,-6.9699,-6.8374,-6.7645,-6.7347,0.0,0.0,0.0,-6.367,-6.2941,-6.2345,-6.1483,-6.1119,-6.1119,-6.1119,-6.1119,-6.1086,-6.0986,-6.0191,-5.8852,-5.8525,-5.7606,-5.6277,-5.5653,-5.5328,-5.5131,-5.314,-5.178,-5.1141,-4.932,-4.8171,-4.7568,-4.7396,-4.7309,-4.7309,-4.7309,-4.704,-4.6501,-4.5723,-4.5035,-4.4496,-4.2581,-4.1504,-4.1354,-3.9679,-3.8631,-3.8392,-3.7883,-3.7524,-3.7404,-3.7404,-3.7404,-3.7404,-3.7404,-3.7404,-3.7404,-3.7404,-3.7336,-3.7267,-3.635,-3.5252,-3.4117,-3.3548,-3.2917,-3.2155,-3.1421,-3.0823,-3.0444,-2.9985,-2.9779,-2.9779,-2.9779,-2.9779,-2.9779,-2.9779,-2.9779,-2.9779,-2.9804,-2.9955,-3.0382,-3.0457,-3.0633,-3.0984,-3.1009,-3.0959,-3.0633,-3.0809,-3.106,-3.1009,-3.0959,-3.0909,-3.0608,-3.0457,-3.0281,-2.9955,-2.9854,-2.9779,-2.9779,-2.9779,-2.9779,-2.988,-2.9779,-2.9829,-2.9804,-2.9854,-2.9779,-2.9779,-2.9779,-2.9779,-2.9854,-3.0482,-3.1085,-6.9798,-6.9798,-6.9798,-6.9798,-6.9732,-6.8904,-6.7811,-6.6618,-6.579,-6.5359,-6.5194,-6.3868,-6.3206,-6.304,-6.1715,-6.1119,-6.1119,-6.1119,-6.1119,0.0,-6.0456,-5.9646,-5.8657,-5.7788,-5.6905,-5.5912,-5.536,-5.4915,-5.4401,-5.325,-5.1996,-5.0808,-4.9524,-4.8369,-4.7426,-4.7309,-4.7309,-4.7309,-4.7309,-4.7249,-4.716,-4.5933,-4.5274,-4.5095,-4.324,-4.1953,-4.1384,-4.0546,-3.9589,-3.8482,-3.8302,-3.8003,-3.7434,-3.7434,-3.7404,-3.7404,-3.7404,-3.7404,-3.7404,-3.7404,-3.7297,-3.698,-3.6652,-3.5747,-3.4037,-3.3339,-3.2704,-3.2036,-3.14,-3.0823,-3.0444,-3.0011,-2.9779,-2.9779,-2.9779,-2.9779,-2.9779,-2.9779,-2.9779,-2.9779,-2.9779,-2.9804,-2.993,-2.993,-2.998,-3.003,-3.0181,-3.003,-3.0005,-2.9955,-3.003,-3.0005,-3.0005,-2.998,-2.998,-2.9905,-2.9905,-2.9804,-2.9779,-2.9779,-2.9779,-2.9779,-2.9779,-2.9779,-2.9779,-2.9779,-2.9779,-2.9779,-2.9779,-2.9779,-2.9779,-2.9779,-2.9779,-3.0005,-3.0231,-6.9798,-6.9798,-6.9798,-6.9798,-6.9699,-6.8572,-6.7281,-6.5922,-6.5558,-6.5425,-6.526,-6.3902,-6.3272,-6.314,-6.1748,-6.1119,-6.1119,-6.1119,-6.0887,-6.049,-6.0158,-5.9315,-5.8049,-5.7493,-5.6613,-5.5637,-5.5113,-5.4697,-5.4179,-5.3067,-5.2051,-5.0953,-4.9395,-4.82,-4.7369,-4.7309,-4.7309,-4.7309,-4.7309,-4.713,-4.677,-4.5813,-4.5125,-4.4766,-4.321,-4.2222,-4.1923,-4.0935,-4.0127,-3.9499,-3.914,-3.8811,-3.8542,-3.8512,-3.8512,-3.8512,-3.8482,-3.8482,-3.8512,-3.834,-3.805,-3.747,-3.7054,-3.6144,-3.4625,-3.4064,-3.3551,-3.2831,-3.1856,-3.1138,-3.0804,-3.0188,-2.9779,-2.9779,-2.9779,-2.9779,-2.9779,-2.9779,-2.9779,-2.9779,-2.9779,-2.9779,-2.9779,-2.9779,-2.9779,-2.9779,-2.9779,-2.9779,-2.9779,-2.9779,-2.9779,-2.9779,-2.9779,-2.9779,-2.9779,-2.9779,-2.9779,-2.9779,-2.9779,-2.9779,-2.9779,-2.9779,-2.9779,-2.9779,-2.9779,-2.9779,-2.9779,-2.9779,-2.9779,-2.9779,-2.9779,-2.9779,-2.9779,-2.9779,-2.988,-6.9798,-6.9798,-6.9798,-6.9699,-6.9434,-6.8175,-6.6883,-6.569,-6.5492,-6.5326,-6.5028,-6.3835,-6.3272,-6.314,-6.1748,-6.1119,-6.1119,-6.1119,-6.0721,-6.0026,-5.9827,-5.8903,-5.7508,-5.7084,-5.6368,-5.5392,-5.4948,-5.456,-5.3954,-5.3052,-5.2095,-5.0903,-4.9191,-4.7967,-4.7309,-4.7309,-4.7309,-4.7309,-4.7309,-4.707,-4.6531,-4.5873,-4.5214,-4.4526,-4.3419,-4.2671,-4.2342,-4.1384,-4.0786,-4.0606,-3.9978,-3.9649,-3.9619,-3.9499,-3.9439,-3.9439,-3.9439,-3.9439,-3.9439,-3.9265,-3.8911,-3.8119,-3.7623,-3.6802,-3.5677,-3.5093,-3.4421,-3.356,-3.2488,-3.1707,-3.1342,-3.0669,-3.0156,-3.0156,-3.003,-3.0005,-2.998,-2.988,-2.9779,-2.9779,-2.9779,-2.9779,-2.9779,-2.9779,-2.9779,-2.9779,-2.9779,-2.9779,-2.9779,-2.9779,-2.9779,-2.9779,-2.9779,-2.9779,-2.9779,-2.9779,-2.9779,-2.9779,-2.9779,-2.9779,-2.9779,-2.9779,-2.9779,-2.9779,-2.9779,-2.9779,-2.9779,-2.9779,-2.9779,-2.9779,-2.9779,-2.9779,-2.9779,-2.9779,-2.9779,-6.9798,-6.9798,-6.9798,-6.9401,-6.8738,-6.7943,-6.7115,-6.6353,-6.569,-6.5061,-6.4432,-6.3637,-6.3272,-6.3073,-6.1748,-6.1119,-6.1119,-6.1119,-6.0688,-5.996,-5.9297,-5.8327,-5.7182,-5.6512,-5.5831,-5.5196,-5.4896,-5.4444,-5.3726,-5.3403,-5.2224,-5.0178,-4.8892,-4.7997,-4.7399,-4.7309,-4.7309,-4.7309,-4.7309,-4.7279,-4.7189,-4.6561,-4.5903,-4.5244,-4.4496,-4.3569,-4.2491,-4.2329,-4.1893,-4.1324,-4.0666,-4.0307,-4.0247,-3.9768,-3.9439,-3.9439,-3.9439,-3.9439,-3.9439,-3.9337,-3.9162,-3.8708,-3.831,-3.7681,-3.6831,-3.6235,-3.5138,-3.3699,-3.2883,-3.2382,-3.2089,-3.1478,-3.1135,-3.1085,-3.0783,-3.0532,-3.0482,-3.0105,-2.9779,-2.9779,-2.9829,-2.9779,-2.9779,-2.9779,-2.9779,-2.9779,-2.9779,-2.9779,-2.9779,-2.9779,-2.9779,-2.9779,-2.9779,-2.9779,-2.9779,-2.9779,-2.9779,-2.9779,-2.9779,-2.9779,-2.9779,-2.9779,-2.9779,-2.9779,-2.9779,-2.9779,-2.9779,-2.9779,-2.9779,-2.9779,-2.9779,-2.9779,-2.9779,-2.9779,-2.9779,-6.9798,-6.9798,-6.9798,-6.9136,-6.8042,-6.7281,-6.6552,-6.5856,-6.5558,-6.5028,-6.4332,-6.3603,-6.304,-6.2577,-6.155,-6.1119,-6.1086,-6.0655,-6.0059,-5.933,-5.8601,-5.7635,-5.6625,-5.625,-5.5685,-5.4948,-5.4813,-5.4359,-5.3552,-5.2877,-5.1848,-5.0605,-4.9463,-4.8536,-4.7908,-4.7489,-4.7309,-4.7309,-4.7309,-4.7309,-4.7219,-4.6651,-4.6202,-4.5843,-4.4855,-4.4107,-4.3509,-4.2791,-4.2252,-4.1953,-4.1324,-4.0786,-4.0427,-4.0157,-3.9828,-3.9469,-3.9439,-3.9439,-3.9439,-3.9265,-3.909,-3.8767,-3.8323,-3.7749,-3.7211,-3.6615,-3.5732,-3.466,-3.3646,-3.2846,-3.2521,-3.1858,-3.1386,-3.1361,-3.1185,-3.106,-3.106,-3.0608,-3.0281,-3.0256,-2.998,-2.9779,-2.9779,-2.9779,-2.9779,-2.9779,-2.9779,-2.9779,-2.9779,-2.9779,-2.9779,-2.9779,-2.9779,-2.9779,-2.9779,-2.9779,-2.9779,-2.9779,-2.9779,-2.9779,-2.9779,-2.9779,-2.9779,-2.9779,-2.9779,-2.9779,-2.9779,-2.9779,-2.9779,-2.9779,-2.9779,-2.9779,-2.9779,-2.9779,-2.9779,-6.9798,-6.9765,-6.9566,-6.8639,-6.7314,-6.6751,-6.6088,-6.5425,-6.5227,-6.473,-6.4034,-6.3305,-6.2577,-6.1881,-6.1318,-6.1119,-6.102,-6.0357,-5.9595,-5.8866,-5.8138,-5.7173,-5.6198,-5.6086,-5.5604,-5.4896,-5.4813,-5.4274,-5.3377,-5.2427,-5.1638,-5.091,-4.9855,-4.8925,-4.8297,-4.7638,-4.7309,-4.7309,-4.7309,-4.7309,-4.7249,-4.683,-4.6501,-4.6262,-4.5394,-4.4706,-4.4317,-4.3389,-4.2791,-4.2641,-4.2013,-4.1444,-4.0965,-4.0606,-4.0098,-3.9499,-3.9439,-3.9439,-3.9439,-3.9265,-3.9119,-3.8767,-3.8323,-3.7825,-3.7317,-3.6772,-3.6138,-3.5413,-3.4334,-3.3498,-3.3059,-3.2422,-3.1946,-3.1838,-3.1738,-3.1612,-3.1587,-3.116,-3.0834,-3.0783,-3.0382,-2.9955,-2.9829,-2.9779,-2.9779,-2.9779,-2.9779,-2.9779,-2.9779,-2.9779,-2.9779,-2.9779,-2.9779,-2.9779,-2.9779,-2.9779,-2.9779,-2.9779,-2.9779,-2.9779,-2.9779,-2.9779,-2.9779,-2.9779,-2.9779,-2.9779,-2.9779,-2.9779,-2.9779,-2.9779,-2.9779,-2.9779,-2.9779,-2.9779,-2.9779,-6.9798,-6.9699,-6.9003,-6.7877,-6.6585,-6.6519,-6.6088,-6.5293,-6.473,-6.4034,-6.3272,-6.2577,-6.1848,-6.1218,-6.1152,-6.1119,-6.102,-6.0291,-5.9562,-5.8866,-5.8104,-5.714,-5.6119,-5.6086,-5.5604,-5.4896,-5.4813,-5.4274,-5.3377,-5.2427,-5.1668,-5.103,-4.9915,-4.8955,-4.8356,-4.7698,-4.7309,-4.7309,-4.7309,-4.7309,-4.7309,-4.7249,-4.692,-4.6441,-4.6232,-4.5574,-4.4526,-4.4257,-4.3928,-4.3299,-4.2671,-4.2282,-4.2132,-4.1085,-4.0157,-3.9559,-3.9439,-3.9439,-3.9439,-3.9337,-3.9192,-3.887,-3.8575,-3.8127,-3.7366,-3.69,-3.627,-3.5467,-3.4897,-3.4293,-3.3707,-3.3242,-3.3098,-3.2928,-3.2466,-3.2215,-3.2164,-3.1687,-3.1386,-3.1286,-3.0859,-3.0357,-2.988,-2.9779,-2.9779,-2.9779,-2.9779,-2.9779,-2.9779,-2.9779,-2.9779,-2.9779,-2.9779,-2.9779,-2.9779,-2.9779,-2.9779,-2.9779,-2.9779,-2.9779,-2.9779,-2.9779,-2.9779,-2.9779,-2.9779,-2.9779,-2.9779,-2.9779,-2.9779,-2.9779,-2.9779,-2.9779,-2.9779,-2.9779,-2.9779,-6.95,-6.897,-6.7811,-6.6982,-6.6485,-6.6022,-6.5425,-6.4763,-6.4498,-6.3703,-6.2676,-6.2278,-6.1781,-6.1119,-6.1119,-6.1119,-6.0986,-5.986,-5.9164,-5.8767,-5.7641,-5.6711,-5.6198,-5.6086,-5.5604,-5.4896,-5.4813,-5.4274,-5.3377,-5.2427,-5.188,-5.1486,-5.0516,-4.9553,-4.8925,-4.8267,-4.7728,-4.7339,-4.7309,-4.7309,-4.7309,-4.7309,-4.7189,-4.695,-4.6531,-4.6082,-4.5603,-4.4796,-4.4197,-4.3988,-4.3329,-4.2791,-4.2342,-4.1504,-4.0726,-4.0157,-4.0038,-3.9858,-3.9499,-3.9439,-3.9265,-3.8841,-3.8649,-3.8202,-3.7548,-3.6978,-3.635,-3.571,-3.5223,-3.4647,-3.3894,-3.3556,-3.33,-3.3129,-3.2893,-3.2742,-3.2667,-3.2265,-3.1913,-3.1788,-3.1185,-3.0532,-3.0331,-3.003,-2.9804,-2.9779,-2.9779,-2.9779,-2.9779,-2.9779,-2.9779,-2.9779,-2.9779,-2.9779,-2.9779,-2.9779,-2.9779,-2.9779,-2.9779,-2.9779,-2.9779,-2.9779,-2.9779,-2.9779,-2.9779,-2.9779,-2.9779,-2.9779,-2.9779,-2.9779,-2.9779,-2.9779,-2.9779,-2.9779,-2.9779,-6.8672,-6.791,-6.6916,-6.6254,-6.579,-6.5293,-6.4664,-6.4034,-6.3769,-6.3107,-6.2245,-6.1947,-6.155,-6.1152,-6.1119,-6.1119,-6.0953,-5.9595,-5.8899,-5.8767,-5.7376,-5.648,-5.6165,-5.6086,-5.5604,-5.4896,-5.4476,-5.4017,-5.3377,-5.2427,-5.2002,-5.1941,-5.0755,-5.0032,-4.9523,-4.8716,-4.8057,-4.7668,-4.7399,-4.7309,-4.7309,-4.7309,-4.7309,-4.7249,-4.686,-4.6531,-4.6322,-4.5214,-4.4526,-4.4257,-4.3688,-4.303,-4.2402,-4.1953,-4.1414,-4.0816,-4.0516,-4.0217,-3.9768,-3.9559,-3.9235,-3.887,-3.8649,-3.8352,-3.7701,-3.7056,-3.6508,-3.5871,-3.5304,-3.4729,-3.3979,-3.3556,-3.3386,-3.3154,-3.3093,-3.3093,-3.3068,-3.2742,-3.2416,-3.2139,-3.1637,-3.1135,-3.0834,-3.0382,-3.0131,-3.0055,-2.993,-2.9779,-2.9779,-2.9779,-2.9779,-2.9779,-2.9779,-2.9779,-2.9779,-2.9779,-2.9779,-2.9779,-2.9779,-2.9779,-2.9779,-2.9779,-2.9779,-2.9779,-2.9779,-2.9779,-2.9779,-2.9779,-2.9779,-2.9779,-2.9779,-2.9779,-2.9779,-2.9779,-2.9779,-6.7247,-6.6651,-6.6485,-6.5657,-6.463,-6.4432,-6.3968,-6.3239,-6.2577,-6.2278,-6.1947,-6.145,-6.1185,-6.1119,-6.1119,-6.1119,-6.0854,-5.9562,-5.8899,-5.8767,-5.7376,-5.6447,-5.6086,-5.6086,-5.5604,-5.4813,-5.3931,-5.3465,-5.3377,-5.2518,-5.2002,-5.1789,-5.0908,-5.0272,-5.0212,-4.9015,-4.8327,-4.8087,-4.7608,-4.7309,-4.7309,-4.7309,-4.7309,-4.7309,-4.7249,-4.695,-4.6411,-4.5693,-4.5035,-4.4377,-4.3748,-4.306,-4.2551,-4.2372,-4.2073,-4.1444,-4.0816,-4.0487,-4.0307,-3.9828,-3.9354,-3.887,-3.8797,-3.8427,-3.7701,-3.7211,-3.6587,-3.579,-3.5304,-3.4729,-3.3894,-3.3725,-3.3556,-3.3154,-3.3093,-3.3093,-3.3068,-3.3068,-3.2867,-3.239,-3.2114,-3.1938,-3.1461,-3.0934,-3.0608,-3.0457,-3.0181,-2.9854,-2.9804,-2.9779,-2.9779,-2.9779,-2.9779,-2.9779,-2.9779,-2.9779,-2.9779,-2.9779,-2.9779,-2.9779,-2.9779,-2.9779,-2.9779,-2.9779,-2.9779,-2.9779,-2.9779,-2.9779,-2.9779,-2.9779,-2.9779,-2.9779,-2.9779,-2.9779,-2.9779,-6.6717,-6.6386,-6.5459,-6.4829,-6.4332,-6.3835,-6.3206,-6.2543,-6.2245,-6.1914,-6.145,-6.1218,-6.1119,-6.1119,-6.1119,-6.1119,-6.0986,-5.9628,-5.8899,-5.8634,-5.7219,-5.6402,-5.6086,-5.5927,-5.5523,-5.4697,-5.3813,-5.3377,-5.3201,-5.2427,-5.2002,-5.1849,-5.1299,-5.0661,-5.0242,-4.9374,-4.8775,-4.8267,-4.7638,-4.7309,-4.7309,-4.7309,-4.7309,-4.7309,-4.7309,-4.7189,-4.698,-4.6352,-4.5693,-4.5005,-4.4347,-4.3718,-4.318,-4.303,-4.2731,-4.2132,-4.1893,-4.1294,-4.0487,-4.0217,-3.9712,-3.9062,-3.8797,-3.8427,-3.7701,-3.7211,-3.6587,-3.579,-3.5331,-3.4729,-3.3979,-3.37,-3.3556,-3.3154,-3.3093,-3.3093,-3.3093,-3.3093,-3.3018,-3.2817,-3.2466,-3.2139,-3.1913,-3.1486,-3.1035,-3.0733,-3.0482,-3.0281,-2.9905,-2.9854,-2.9779,-2.9779,-2.9779,-2.9779,-2.9779,-2.9779,-2.9779,-2.9779,-2.9779,-2.9779,-2.9779,-2.9779,-2.9779,-2.9779,-2.9779,-2.9779,-2.9779,-2.9779,-2.9779,-2.9779,-2.9779,-2.9779,-2.9779,-2.9779,-2.9779,-6.5955,-6.5624,-6.4763,-6.4034,-6.3537,-6.304,-6.2444,-6.1848,-6.1781,-6.1516,-6.1152,-6.1119,-6.1119,-6.1119,-6.1119,-6.1119,-6.0953,-5.9562,-5.8819,-5.8587,-5.714,-5.6323,-5.6006,-5.5637,-5.5113,-5.4528,-5.3726,-5.329,-5.3144,-5.2427,-5.2002,-5.1787,-5.1416,-5.105,-5.0541,-4.9703,-4.9015,-4.8596,-4.7788,-4.7309,-4.7309,-4.7309,-4.7309,-4.7309,-4.7309,-4.7309,-4.7279,-4.689,-4.6381,-4.5663,-4.4825,-4.4018,-4.3419,-4.3299,-4.315,-4.2791,-4.2432,-4.1953,-4.1205,-4.0696,-4.0099,-3.9284,-3.8944,-3.8427,-3.7749,-3.7211,-3.6587,-3.579,-3.5331,-3.4756,-3.3894,-3.37,-3.3556,-3.3154,-3.3093,-3.3093,-3.3093,-3.3093,-3.3068,-3.2968,-3.2767,-3.2591,-3.2441,-3.2039,-3.1612,-3.126,-3.1035,-3.0708,-3.0281,-3.0105,-3.003,-2.9905,-2.9779,-2.9779,-2.9779,-2.9779,-2.9779,-2.9779,-2.9779,-2.9779,-2.9779,-2.9779,-2.9779,-2.9779,-2.9779,-2.9779,-2.9779,-2.9779,-2.9779,-2.9779,-2.9779,-2.9779,-2.9779,-2.9779,-2.9779,-6.4995,-6.4399,-6.4266,-6.3438,-6.2345,-6.2179,-6.1781,-6.1218,-6.1152,-6.1152,-6.1119,-6.1119,-6.1119,-6.1119,-6.1119,-6.1119,-6.0854,-5.9562,-5.8819,-5.8261,-5.7159,-5.6244,-5.5846,-5.5228,-5.4697,-5.4189,-5.364,-5.3233,-5.2788,-5.2246,-5.188,-5.1602,-5.1416,-5.1229,-5.093,-4.9942,-4.9344,-4.9045,-4.8027,-4.7429,-4.7339,-4.7309,-4.7309,-4.7309,-4.7309,-4.7309,-4.7309,-4.7219,-4.692,-4.6202,-4.4945,-4.4018,-4.3479,-4.3329,-4.3329,-4.324,-4.2731,-4.2462,-4.2102,-4.1324,-4.0398,-3.9786,-3.9239,-3.8501,-3.773,-3.724,-3.6665,-3.579,-3.5304,-3.4729,-3.3979,-3.37,-3.3471,-3.3154,-3.3093,-3.3093,-3.3093,-3.3093,-3.3093,-3.3093,-3.3068,-3.3068,-3.2993,-3.2541,-3.229,-3.2039,-3.1687,-3.1235,-3.0783,-3.0532,-3.0331,-3.0131,-2.9955,-2.9779,-2.9779,-2.9779,-2.9779,-2.9779,-2.9779,-2.9779,-2.9779,-2.9779,-2.9779,-2.9779,-2.9779,-2.9779,-2.9779,-2.9779,-2.9779,-2.9779,-2.9779,-2.9779,-2.9779,-2.9779,-2.9779,-6.4564,-6.4266,-6.3206,-6.251,-6.2113,-6.1616,-6.1318,-6.1119,-6.1119,-6.1119,-6.1119,-6.1119,-6.1086,-6.1119,-6.1086,-6.1119,-6.0655,-5.9529,-5.8819,-5.8345,-5.6901,-5.5879,-5.5442,-5.498,-5.4528,-5.4103,-5.3552,-5.3144,-5.2698,-5.2155,-5.188,-5.1572,-5.1293,-5.1229,-5.1079,-5.0361,-4.9733,-4.9254,-4.8476,-4.7758,-4.7369,-4.7309,-4.7309,-4.7309,-4.7309,-4.7309,-4.7309,-4.7309,-4.6711,-4.5603,-4.4796,-4.4018,-4.3449,-4.3359,-4.3329,-4.3299,-4.318,-4.2851,-4.2402,-4.2013,-4.1262,-3.9993,-3.9606,-3.8952,-3.773,-3.724,-3.6587,-3.5871,-3.5304,-3.4729,-3.3979,-3.3725,-3.3471,-3.3154,-3.3093,-3.3093,-3.3093,-3.3093,-3.3093,-3.3093,-3.3093,-3.3093,-3.3043,-3.2918,-3.2667,-3.234,-3.2089,-3.1813,-3.1336,-3.0934,-3.0708,-3.0407,-3.0156,-2.993,-2.9779,-2.9779,-2.9779,-2.9779,-2.9779,-2.9779,-2.9779,-2.9779,-2.9779,-2.9779,-2.9779,-2.9779,-2.9779,-2.9779,-2.9779,-2.9779,-2.9779,-2.9779,-2.9779,-2.9779,-2.9779,-6.4001,-6.3372,-6.2543,-6.198,-6.1682,-6.1285,-6.1119,-6.1119,-6.1119,-6.1119,-6.1119,-6.1119,-6.092,-6.0655,-6.0655,-6.0456,-6.0059,-5.8885,-5.8393,-5.8281,-5.7151,-5.6057,-5.514,-5.4613,-5.4274,-5.3844,-5.3321,-5.2877,-5.2427,-5.1972,-5.1695,-5.1386,-5.1323,-5.1229,-5.1169,-5.0571,-4.9942,-4.9254,-4.8626,-4.7967,-4.7369,-4.7309,-4.7309,-4.7309,-4.7309,-4.7309,-4.7309,-4.7309,-4.68,-4.5843,-4.5095,-4.4436,-4.3808,-4.3479,-4.3359,-4.3329,-4.3329,-4.312,-4.2821,-4.2443,-4.1703,-4.0713,-4.0264,-3.9276,-3.8245,-3.7529,-3.6841,-3.5845,-3.5331,-3.4647,-3.3894,-3.3556,-3.33,-3.3154,-3.3093,-3.3093,-3.3093,-3.3093,-3.3093,-3.3093,-3.3093,-3.3093,-3.3093,-3.3093,-3.2918,-3.2692,-3.2641,-3.2265,-3.1838,-3.1461,-3.106,-3.0758,-3.0407,-3.0156,-2.988,-2.9829,-2.9779,-2.9779,-2.9779,-2.9779,-2.9779,-2.9779,-2.9779,-2.9779,-2.9779,-2.9779,-2.9779,-2.9779,-2.9779,-2.9779,-2.9779,-2.9779,-2.9779,-2.9779,-2.9779,-6.3372,-6.2179,-6.2113,-6.1682,-6.1185,-6.1119,-6.1119,-6.1119,-6.1119,-6.1053,-6.0953,-6.0953,-6.049,-5.9893,-5.9893,-5.9562,-5.8852,-5.8063,-5.7821,-5.7691,-5.7093,-5.6199,-5.5155,-5.4835,-5.4277,-5.3715,-5.309,-5.261,-5.2124,-5.1787,-5.1509,-5.1323,-5.1229,-5.1229,-5.1139,-5.0661,-5.0032,-4.9434,-4.8835,-4.8177,-4.7608,-4.7399,-4.7309,-4.7309,-4.7309,-4.7309,-4.7309,-4.7279,-4.701,-4.6471,-4.5753,-4.5035,-4.4377,-4.3718,-4.3419,-4.3359,-4.3329,-4.3299,-4.316,-4.2604,-4.2011,-4.1538,-4.0704,-3.9816,-3.8796,-3.7957,-3.7066,-3.6035,-3.5358,-3.4647,-3.3894,-3.3326,-3.3154,-3.3093,-3.3093,-3.3093,-3.3093,-3.3093,-3.3093,-3.3093,-3.3093,-3.3093,-3.3093,-3.3093,-3.3068,-3.2893,-3.2867,-3.2692,-3.234,-3.2014,-3.1562,-3.1135,-3.0758,-3.0407,-3.0131,-2.9854,-2.9804,-2.9779,-2.9779,-2.9779,-2.9779,-2.9779,-2.9779,-2.9779,-2.9779,-2.9779,-2.9779,-2.9779,-2.9779,-2.9779,-2.9779,-2.9779,-2.9779,-2.9779,-2.9779,-6.2187,-6.1857,-6.1466,-6.1251,-6.1119,-6.1119,-6.1119,-6.1086,-6.1086,-6.0755,-6.0324,-6.0258,-5.9794,-5.9131,-5.9131,-5.8951,-5.8492,-5.7785,-5.7346,-5.6756,-5.6369,-5.6112,-5.57,-5.5588,-5.5071,-5.4193,-5.3649,-5.2948,-5.2123,-5.1695,-5.1479,-5.1229,-5.1229,-5.1229,-5.1169,-5.105,-5.069,-5.0032,-4.9374,-4.8686,-4.8027,-4.7519,-4.7309,-4.7309,-4.7309,-4.7309,-4.7309,-4.7309,-4.7219,-4.698,-4.6441,-4.5603,-4.4676,-4.4197,-4.3868,-4.3479,-4.3359,-4.3329,-4.322,-4.2882,-4.2485,-4.1804,-4.115,-4.0452,-3.9339,-3.8295,-3.737,-3.6389,-3.5599,-3.4809,-3.381,-3.3326,-3.3154,-3.3093,-3.3093,-3.3093,-3.3093,-3.3093,-3.3093,-3.3093,-3.3093,-3.3093,-3.3093,-3.3093,-3.3093,-3.3093,-3.3043,-3.3018,-3.2767,-3.2491,-3.2064,-3.1562,-3.106,-3.0683,-3.0331,-3.003,-2.9804,-2.9779,-2.9779,-2.9779,-2.9779,-2.9779,-2.9779,-2.9779,-2.9779,-2.9779,-2.9779,-2.9779,-2.9779,-2.9779,-2.9779,-2.9779,-2.9779,-2.9779,-2.9779,-6.1468,-6.1107,-6.0915,-6.0835,-6.0919,-6.0919,-6.0804,-6.0622,-6.0589,-6.0191,-5.9595,-5.9496,-5.9065,-5.8403,-5.829,-5.7997,-5.754,-5.7233,-5.6841,-5.6356,-5.6157,-5.6105,-5.6031,-5.5736,-5.5093,-5.414,-5.3622,-5.2794,-5.1939,-5.1602,-5.1323,-5.1229,-5.1229,-5.1229,-5.1229,-5.1229,-5.084,-5.0212,-4.9583,-4.8955,-4.8297,-4.7638,-4.7309,-4.7309,-4.7309,-4.7309,-4.7309,-4.7309,-4.7309,-4.7219,-4.695,-4.6352,-4.5304,-4.4676,-4.4137,-4.3868,-4.3449,-4.3359,-4.325,-4.2981,-4.2621,-4.2187,-4.1622,-4.0838,-4.0,-3.8945,-3.7786,-3.6797,-3.5894,-3.5046,-3.3861,-3.3326,-3.3154,-3.3093,-3.3093,-3.3093,-3.3093,-3.3093,-3.3093,-3.3093,-3.3093,-3.3093,-3.3093,-3.3093,-3.3093,-3.3093,-3.3093,-3.3043,-3.3043,-3.2767,-3.2491,-3.2014,-3.1411,-3.0934,-3.0557,-3.0206,-2.9829,-2.9779,-2.9779,-2.9779,-2.9779,-2.9779,-2.9779,-2.9779,-2.9779,-2.9779,-2.9779,-2.9779,-2.9779,-2.9779,-2.9779,-2.9779,-2.9779,-2.9779,-2.9779,-6.0848,-6.0378,-6.0378,-6.0463,-6.0633,-6.0501,-6.0274,-5.9977,-5.9811,-5.9348,-5.8833,-5.8734,-5.8303,-5.7661,-5.7404,-5.6929,-5.6414,-5.6238,-5.6085,-5.5986,-5.5939,-5.5904,-5.5736,-5.5314,-5.4545,-5.3592,-5.3253,-5.2516,-5.1753,-5.1293,-5.1229,-5.1229,-5.1229,-5.1229,-5.1229,-5.1199,-5.099,-5.0451,-4.9853,-4.9194,-4.8536,-4.7878,-4.7519,-4.7309,-4.7309,-4.7309,-4.7309,-4.7309,-4.7309,-4.7309,-4.7309,-4.701,-4.6352,-4.5394,-4.4436,-4.4377,-4.3808,-4.3459,-4.32,-4.293,-4.2688,-4.2607,-4.1868,-4.1222,-4.0544,-3.962,-3.842,-3.7229,-3.6156,-3.511,-3.4016,-3.3351,-3.3179,-3.3093,-3.3093,-3.3093,-3.3093,-3.3093,-3.3093,-3.3093,-3.3093,-3.3093,-3.3093,-3.3093,-3.3093,-3.3093,-3.3093,-3.3093,-3.3093,-3.3018,-3.2742,-3.234,-3.1738,-3.0834,-3.0357,-3.0181,-2.9829,-2.9779,-2.9779,-2.9779,-2.9779,-2.9779,-2.9779,-2.9779,-2.9779,-2.9779,-2.9779,-2.9779,-2.9779,-2.9779,-2.9779,-2.9779,-2.9779,-2.9779,-2.9779,-6.0076,-6.0152,-6.0325,-6.0378,-6.0365,-5.984,-5.9563,-5.9531,-5.9053,-5.8507,-5.8038,-5.7972,-5.7496,-5.6843,-5.6678,-5.6151,-5.5718,-5.5504,-5.5377,-5.5248,-5.5272,-5.5228,-5.5096,-5.4699,-5.4021,-5.3343,-5.2913,-5.2362,-5.1723,-5.1293,-5.1229,-5.1229,-5.1229,-5.1229,-5.1229,-5.1229,-5.1169,-5.087,-5.0301,-4.9643,-4.9015,-4.8297,-4.7728,-4.7369,-4.7309,-4.7309,-4.7309,-4.7309,-4.7309,-4.7309,-4.7309,-4.7249,-4.698,-4.6322,-4.5454,-4.4586,-4.4116,-4.3787,-4.318,-4.285,-4.2607,-4.2392,-4.1814,-4.1396,-4.0942,-4.0013,-3.8831,-3.7709,-3.6128,-3.4744,-3.4469,-3.3655,-3.3205,-3.3093,-3.3093,-3.3093,-3.3093,-3.3093,-3.3093,-3.3093,-3.3093,-3.3093,-3.3093,-3.3093,-3.3093,-3.3093,-3.3093,-3.3093,-3.3093,-3.3093,-3.2993,-3.2541,-3.2014,-3.1009,-3.008,-2.9955,-2.9779,-2.9779,-2.9779,-2.9779,-2.9779,-2.9779,-2.9779,-2.9779,-2.9779,-2.9779,-2.9779,-2.9779,-2.9779,-2.9779,-2.9779,-2.9779,-2.9779,-2.9779,-2.9702,-5.9452,-5.9652,-5.9383,-5.9512,-5.9553,-5.8899,-5.851,-5.8347,-5.7986,-5.754,-5.7094,-5.6896,-5.6652,-5.631,-5.6086,-5.5766,-5.5278,-5.4781,-5.4635,-5.4577,-5.4292,-5.3944,-5.3896,-5.3591,-5.3039,-5.2425,-5.2241,-5.2057,-5.1446,-5.1293,-5.1229,-5.1229,-5.1229,-5.1229,-5.1229,-5.1229,-5.1229,-5.1079,-5.0571,-4.9912,-4.9224,-4.8356,-4.7638,-4.7429,-4.7309,-4.7309,-4.7309,-4.7309,-4.7309,-4.7309,-4.7309,-4.7309,-4.7219,-4.692,-4.6232,-4.5065,-4.4445,-4.3886,-4.3159,-4.2769,-4.2474,-4.2392,-4.1814,-4.1396,-4.0972,-4.015,-3.907,-3.7826,-3.6393,-3.4904,-3.4597,-3.3908,-3.3481,-3.3144,-3.3093,-3.3093,-3.3093,-3.3093,-3.3093,-3.3093,-3.3093,-3.3093,-3.3093,-3.3093,-3.3093,-3.3093,-3.3093,-3.3093,-3.3093,-3.3093,-3.3068,-3.2541,-3.1964,-3.1035,-3.0105,-2.9854,-2.9779,-2.9779,-2.9779,-2.9779,-2.9779,-2.9779,-2.9779,-2.9779,-2.9779,-2.9779,-2.9779,-2.9779,-2.9779,-2.9779,-2.9779,-2.9779,-2.9779,-2.9779,-2.9599,-5.8684,-5.8671,-5.8245,-5.8249,-5.8463,-5.7897,-5.7395,-5.7151,-5.6955,-5.6676,-5.6151,-5.6119,-5.6119,-5.6006,-5.5766,-5.536,-5.4864,-5.4359,-5.4134,-5.3821,-5.3414,-5.2939,-5.2639,-5.2306,-5.2032,-5.1846,-5.16,-5.1386,-5.1323,-5.1229,-5.1229,-5.1229,-5.1229,-5.1229,-5.1229,-5.1229,-5.1229,-5.105,-5.075,-5.0092,-4.9164,-4.8177,-4.7399,-4.7309,-4.7309,-4.7309,-4.7309,-4.7309,-4.7309,-4.7309,-4.7309,-4.7309,-4.7309,-4.7222,-4.6625,-4.558,-4.4668,-4.3901,-4.3153,-4.2637,-4.2392,-4.2146,-4.1731,-4.1283,-4.0773,-4.0059,-3.9135,-3.7856,-3.6441,-3.5277,-3.478,-3.4211,-3.3708,-3.3244,-3.3093,-3.3093,-3.3093,-3.3093,-3.3093,-3.3093,-3.3093,-3.3093,-3.3093,-3.3093,-3.3093,-3.3093,-3.3093,-3.3093,-3.3093,-3.3093,-3.2943,-3.2441,-3.1813,-3.0959,-3.0256,-2.9854,-2.9779,-2.9779,-2.9779,-2.9779,-2.9779,-2.9779,-2.9779,-2.9779,-2.9779,-2.9779,-2.9779,-2.9779,-2.9779,-2.9779,-2.9779,-2.9779,-2.9779,-2.9702,-2.9521,-5.7248,-5.6973,-5.7053,-5.7162,-5.7291,-5.6679,-5.6608,-5.6711,-5.6189,-5.6025,-5.6006,-5.6086,-5.5927,-5.5685,-5.536,-5.4864,-5.4359,-5.4103,-5.3758,-5.3321,-5.2877,-5.2608,-5.2306,-5.1849,-5.1757,-5.1479,-5.1386,-5.1229,-5.1229,-5.1229,-5.1229,-5.1229,-5.1229,-5.1229,-5.1229,-5.1229,-5.1229,-5.1199,-5.1109,-5.0451,-4.9344,-4.8506,-4.7878,-4.7459,-4.7309,-4.7309,-4.7309,-4.7309,-4.7309,-4.7309,-4.7309,-4.7309,-4.7309,-4.7106,-4.6661,-4.5921,-4.5238,-4.4418,-4.3407,-4.2772,-4.2257,-4.2009,-4.1564,-4.1227,-4.0602,-3.9706,-3.8854,-3.8225,-3.6949,-3.5865,-3.5124,-3.4376,-3.3784,-3.3345,-3.3119,-3.3093,-3.3093,-3.3093,-3.3093,-3.3093,-3.3093,-3.3093,-3.3093,-3.3093,-3.3093,-3.3093,-3.3093,-3.3093,-3.3093,-3.3093,-3.2817,-3.2315,-3.1813,-3.1009,-3.0382,-2.998,-2.9779,-2.9779,-2.9779,-2.9779,-2.9779,-2.9779,-2.9779,-2.9779,-2.9779,-2.9779,-2.9779,-2.9779,-2.9779,-2.9779,-2.9779,-2.9779,-2.9779,-2.9624,-2.9443,-5.5556,-5.6094,-5.5922,-5.6025,-5.6157,-5.5633,-5.5513,-5.5615,-5.5489,-5.5442,-5.5523,-5.5523,-5.5442,-5.5196,-5.4781,-5.4444,-5.4071,-5.3758,-5.3321,-5.2877,-5.2608,-5.2306,-5.1941,-5.1665,-5.1572,-5.1416,-5.1323,-5.1229,-5.1229,-5.1229,-5.1229,-5.1229,-5.1229,-5.1229,-5.1229,-5.1229,-5.1229,-5.1109,-5.081,-5.0182,-4.9344,-4.8626,-4.7967,-4.7339,-4.7309,-4.7309,-4.7309,-4.7309,-4.7309,-4.7309,-4.7309,-4.7222,-4.7106,-4.6901,-4.6666,-4.6109,-4.5548,-4.4552,-4.3474,-4.3011,-4.2411,-4.1843,-4.1451,-4.1057,-4.0142,-3.9264,-3.8575,-3.8004,-3.7272,-3.6376,-3.5567,-3.4855,-3.4148,-3.3696,-3.3244,-3.3119,-3.3093,-3.3093,-3.3093,-3.3093,-3.3093,-3.3093,-3.3093,-3.3093,-3.3093,-3.3093,-3.3093,-3.3093,-3.3093,-3.3093,-3.2692,-3.2164,-3.1687,-3.1135,-3.0557,-3.008,-2.9829,-2.9779,-2.9779,-2.9779,-2.9779,-2.9779,-2.9779,-2.9779,-2.9779,-2.9779,-2.9779,-2.9779,-2.9779,-2.9779,-2.9779,-2.9702,-2.9677,-2.9521,-2.9263,-5.3927,-5.4844,-5.4731,-5.4861,-5.5089,-5.4751,-5.4645,-5.4729,-5.498,-5.5031,-5.5031,-5.5031,-5.4896,-5.4645,-5.4274,-5.4017,-5.3758,-5.3233,-5.2877,-5.2608,-5.2215,-5.1941,-5.1665,-5.1572,-5.1386,-5.1229,-5.1229,-5.1229,-5.1229,-5.1229,-5.1229,-5.1229,-5.1229,-5.1229,-5.1229,-5.1229,-5.1229,-5.1199,-5.081,-5.0152,-4.9344,-4.8835,-4.8117,-4.7578,-4.7309,-4.7309,-4.7309,-4.7309,-4.7309,-4.7309,-4.7222,-4.7106,-4.6931,-4.6726,-4.655,-4.6138,-4.5669,-4.4967,-4.392,-4.3224,-4.2534,-4.1849,-4.1198,-4.0516,-3.9733,-3.8935,-3.833,-3.7874,-3.7361,-3.6683,-3.5948,-3.5093,-3.4424,-3.3872,-3.3395,-3.3219,-3.3093,-3.3093,-3.3093,-3.3093,-3.3093,-3.3093,-3.3093,-3.3093,-3.3093,-3.3093,-3.3093,-3.3093,-3.3093,-3.3093,-3.2717,-3.2215,-3.1687,-3.121,-3.0683,-3.0231,-2.998,-2.9779,-2.9779,-2.9779,-2.9779,-2.9779,-2.9779,-2.9779,-2.9779,-2.9779,-2.9779,-2.9779,-2.9779,-2.9779,-2.9702,-2.9599,-2.9496,-2.9341,-2.9028,-5.2154,-5.2307,-5.3148,-5.3678,-5.3821,-5.4017,-5.4274,-5.4412,-5.4697,-5.4729,-5.4729,-5.4813,-5.4528,-5.4189,-5.4017,-5.3671,-5.3144,-5.2877,-5.2608,-5.2215,-5.1849,-5.1665,-5.1479,-5.1416,-5.1229,-5.1229,-5.1229,-5.1229,-5.1229,-5.1229,-5.1229,-5.1229,-5.1229,-5.1229,-5.1229,-5.1229,-5.1229,-5.1229,-5.105,-5.0421,-4.9673,-4.9105,-4.8566,-4.7608,-4.7339,-4.7309,-4.7309,-4.7309,-4.7309,-4.7222,-4.7106,-4.6931,-4.6756,-4.6491,-4.6284,-4.6077,-4.5869,-4.5227,-4.4384,-4.3344,-4.2337,-4.1539,-4.0688,-3.9996,-3.938,-3.8845,-3.833,-3.7598,-3.7201,-3.6599,-3.5814,-3.5052,-3.45,-3.4073,-3.3596,-3.3194,-3.3093,-3.3093,-3.3093,-3.3093,-3.3093,-3.3093,-3.3093,-3.3093,-3.3093,-3.3093,-3.3093,-3.3093,-3.3093,-3.3043,-3.2792,-3.2365,-3.1813,-3.1286,-3.0733,-3.0357,-3.008,-2.9854,-2.9779,-2.9779,-2.9779,-2.9779,-2.9779,-2.9779,-2.9779,-2.9779,-2.9779,-2.9702,-2.9702,-2.9702,-2.9624,-2.9443,-2.9106,-2.8949,-2.8633,-5.1787,-5.1787,-5.2337,-5.2788,-5.3144,-5.3465,-5.3726,-5.3813,-5.4017,-5.4103,-5.4103,-5.4103,-5.4017,-5.3758,-5.3496,-5.3233,-5.2877,-5.2608,-5.2215,-5.1941,-5.1665,-5.1509,-5.1386,-5.1323,-5.1229,-5.1229,-5.1229,-5.1229,-5.1229,-5.1229,-5.1229,-5.1229,-5.1229,-5.1229,-5.1229,-5.1229,-5.1229,-5.1229,-5.1169,-5.069,-5.0062,-4.9404,-4.8835,-4.8027,-4.7429,-4.7339,-4.7309,-4.7309,-4.7222,-4.7019,-4.6931,-4.6756,-4.658,-4.6314,-4.6135,-4.6046,-4.5776,-4.5277,-4.4611,-4.3602,-4.2654,-4.1084,-4.017,-3.9469,-3.9114,-3.8575,-3.7939,-3.7387,-3.7015,-3.6557,-3.615,-3.5278,-3.4575,-3.4223,-3.3771,-3.3269,-3.3093,-3.3093,-3.3093,-3.3093,-3.3093,-3.3093,-3.3093,-3.3093,-3.3093,-3.3093,-3.3093,-3.3093,-3.3093,-3.3093,-3.2867,-3.2616,-3.2089,-3.1587,-3.106,-3.0608,-3.0181,-2.9955,-2.9779,-2.9779,-2.9779,-2.9779,-2.9779,-2.9779,-2.9779,-2.9702,-2.9599,-2.9599,-2.9521,-2.9521,-2.9365,-2.9131,-2.8895,-2.8498,-2.8155,-5.1479,-5.1479,-5.1787,-5.2063,-5.2518,-5.2966,-5.3233,-5.3201,-5.3465,-5.364,-5.364,-5.364,-5.3465,-5.3201,-5.3055,-5.2819,-5.2518,-5.2215,-5.1941,-5.1665,-5.1479,-5.1386,-5.1229,-5.1229,-5.1229,-5.1229,-5.1229,-5.1229,-5.1229,-5.1229,-5.1229,-5.1229,-5.1229,-5.1229,-5.1229,-5.1229,-5.1229,-5.1229,-5.1169,-5.09,-5.0242,-4.9583,-4.8955,-4.8237,-4.7638,-4.7339,-4.7309,-4.7193,-4.7106,-4.6931,-4.6756,-4.6462,-4.6314,-4.6135,-4.5956,-4.5776,-4.5566,-4.5245,-4.4604,-4.3424,-4.2363,-4.0991,-3.9903,-3.923,-3.8756,-3.8213,-3.7756,-3.7201,-3.6922,-3.6615,-3.6377,-3.5403,-3.4776,-3.4424,-3.3596,-3.3093,-3.3093,-3.3093,-3.3093,-3.3093,-3.3093,-3.3093,-3.3093,-3.3093,-3.3093,-3.3093,-3.3093,-3.3093,-3.3093,-3.3093,-3.3043,-3.2792,-3.2466,-3.1938,-3.1461,-3.0909,-3.0357,-2.993,-2.9779,-2.9779,-2.9779,-2.9779,-2.9779,-2.9779,-2.9702,-2.9599,-2.9521,-2.9341,-2.9263,-2.9263,-2.9052,-2.8736,-2.8419,-2.8018,-2.7753,-5.1229,-5.1229,-5.1479,-5.1787,-5.2063,-5.2518,-5.2698,-5.2788,-5.3113,-5.329,-5.329,-5.329,-5.3144,-5.2788,-5.2639,-5.2458,-5.2063,-5.1787,-5.1602,-5.1479,-5.1386,-5.1199,-5.1229,-5.1229,-5.1229,-5.1229,-5.1229,-5.1229,-5.1229,-5.1229,-5.1229,-5.1229,-5.1229,-5.1229,-5.1229,-5.1229,-5.1229,-5.1229,-5.1229,-5.084,-5.0361,-4.9673,-4.8955,-4.8446,-4.7581,-4.7222,-4.7193,-4.7019,-4.6844,-4.6756,-4.6491,-4.6314,-4.6225,-4.6046,-4.5776,-4.5595,-4.5504,-4.5201,-4.472,-4.2834,-4.1546,-4.0714,-3.9769,-3.9051,-3.8575,-3.8122,-3.7572,-3.7015,-3.6803,-3.6615,-3.6074,-3.5479,-3.5052,-3.4474,-3.3671,-3.3144,-3.3144,-3.3093,-3.3093,-3.3093,-3.3093,-3.3093,-3.3093,-3.3093,-3.3093,-3.3093,-3.3093,-3.3093,-3.3093,-3.3093,-3.3093,-3.2968,-3.2692,-3.2114,-3.1587,-3.1035,-3.0532,-3.0055,-2.9779,-2.9779,-2.9779,-2.9779,-2.9779,-2.9804,-2.9624,-2.9496,-2.9263,-2.9106,-2.887,-2.8633,-2.8578,-2.8339,-2.7938,-2.7615,-2.729,-5.1229,-5.1229,-5.1293,-5.1416,-5.1509,-5.1972,-5.2276,-5.2276,-5.2427,-5.2518,-5.2427,-5.2427,-5.2427,-5.2276,-5.2155,-5.2063,-5.1787,-5.1665,-5.1572,-5.1323,-5.1229,-5.1229,-5.1229,-5.1229,-5.1229,-5.1229,-5.1229,-5.1229,-5.1229,-5.1229,-5.1229,-5.1229,-5.1229,-5.1229,-5.1229,-5.1229,-5.1229,-5.1229,-5.1199,-5.105,-5.075,-4.9883,-4.9134,-4.8835,-4.7672,-4.7048,-4.7019,-4.6844,-4.6668,-4.6491,-4.6225,-4.6135,-4.6046,-4.5895,-4.5776,-4.5504,-4.5321,-4.4954,-4.3995,-4.2528,-4.1078,-4.0368,-3.9492,-3.8629,-3.8122,-3.7664,-3.7201,-3.6922,-3.664,-3.6452,-3.6276,-3.5705,-3.5253,-3.47,-3.4022,-3.3495,-3.3294,-3.3144,-3.3093,-3.3093,-3.3093,-3.3093,-3.3093,-3.3093,-3.3093,-3.3093,-3.3093,-3.3093,-3.3093,-3.3093,-3.3093,-3.3068,-3.2842,-3.224,-3.1687,-3.1235,-3.0658,-3.0105,-2.9854,-2.9779,-2.9779,-2.9779,-2.9702,-2.9599,-2.9419,-2.9341,-2.9028,-2.8633,-2.8235,-2.7995,-2.7857,-2.7777,-2.7534,-2.7208,-2.6903,-5.075,-5.0541,-5.0541,-5.0541,-5.0723,-5.1514,-5.191,-5.2002,-5.2002,-5.2002,-5.2002,-5.2002,-5.2002,-5.188,-5.188,-5.1695,-5.1479,-5.1479,-5.1386,-5.1229,-5.1229,-5.1229,-5.1229,-5.1229,-5.1229,-5.1229,-5.1229,-5.1229,-5.1229,-5.1229,-5.1229,-5.1229,-5.1229,-5.1229,-5.1229,-5.1229,-5.1229,-5.1229,-5.1199,-5.1199,-5.078,-5.0092,-4.9254,-4.8746,-4.7852,-4.6931,-4.6756,-4.658,-4.6403,-4.6225,-4.6135,-4.6046,-4.5866,-4.5776,-4.5595,-4.5413,-4.4862,-4.4397,-4.3365,-4.2203,-4.0892,-4.0199,-3.9082,-3.8292,-3.7848,-3.7387,-3.7015,-3.6734,-3.6546,-3.6452,-3.6282,-3.583,-3.5378,-3.4826,-3.4274,-3.3721,-3.3294,-3.3144,-3.3093,-3.3093,-3.3093,-3.3093,-3.3093,-3.3093,-3.3093,-3.3093,-3.3093,-3.3093,-3.3093,-3.3093,-3.3093,-3.3068,-3.2993,-3.2516,-3.1989,-3.1512,-3.0909,-3.0206,-2.9955,-2.9804,-2.9702,-2.9702,-2.9521,-2.9419,-2.9184,-2.8949,-2.8554,-2.8235,-2.7753,-2.7429,-2.7185,-2.7103,-2.7021,-2.6843,-2.6557,-4.9853,-4.9284,-4.9254,-4.9314,-4.9584,-5.0817,-5.1514,-5.188,-5.188,-5.185,-5.1941,-5.1789,-5.1697,-5.1572,-5.1602,-5.1509,-5.1293,-5.1229,-5.1199,-5.1229,-5.1229,-5.1229,-5.1229,-5.1229,-5.1229,-5.1229,-5.1229,-5.1229,-5.1229,-5.1229,-5.1229,-5.1229,-5.1229,-5.1229,-5.1229,-5.1229,-5.1229,-5.1229,-5.1229,-5.1229,-5.0837,-4.9881,-4.9193,-4.8596,-4.7614,-4.6786,-4.658,-4.6314,-4.6225,-4.6135,-4.5956,-4.5866,-4.5776,-4.5595,-4.5413,-4.4954,-4.4397,-4.3737,-4.2999,-4.1855,-4.0844,-4.0,-3.8714,-3.8083,-3.7664,-3.7201,-3.6828,-3.664,-3.6452,-3.6452,-3.6282,-3.5881,-3.5479,-3.4926,-3.4374,-3.3847,-3.3345,-3.3144,-3.3093,-3.3093,-3.3093,-3.3093,-3.3093,-3.3093,-3.3093,-3.3093,-3.3093,-3.3093,-3.3093,-3.3093,-3.3093,-3.3093,-3.2968,-3.2767,-3.229,-3.1712,-3.1135,-3.0432,-2.998,-2.9779,-2.9702,-2.9624,-2.9443,-2.9263,-2.8949,-2.8633,-2.8155,-2.7753,-2.7348,-2.7021,-2.67,-2.6835,-2.6903,-2.6501,-2.6271,-4.9434,-4.9254,-4.9254,-4.9254,-4.9314,-4.9764,-5.0005,-5.0095,-5.0125,-5.0245,-5.0725,-5.0725,-5.0936,-5.1293,-5.1323,-5.1293,-5.1229,-5.1229,-5.1229,-5.1229,-5.1229,-5.1229,-5.1229,-5.1229,-5.1229,-5.1229,-5.1229,-5.1229,-5.1229,-5.1229,-5.1229,-5.1229,-5.1229,-5.1229,-5.1229,-5.1229,-5.1229,-5.1135,-5.1135,-5.1011,-5.0683,-4.9637,-4.91,-4.8354,-4.7228,-4.652,-4.6314,-4.6135,-4.6046,-4.5956,-4.5956,-4.5866,-4.5595,-4.5504,-4.5321,-4.4583,-4.4021,-4.3423,-4.2861,-4.1785,-4.076,-3.9738,-3.8558,-3.7852,-3.7355,-3.7015,-3.664,-3.6546,-3.6452,-3.6452,-3.6358,-3.6081,-3.568,-3.5228,-3.4675,-3.4148,-3.3621,-3.3219,-3.3169,-3.3093,-3.3093,-3.3093,-3.3093,-3.3093,-3.3093,-3.3093,-3.3093,-3.3093,-3.3093,-3.3093,-3.3093,-3.3093,-3.3018,-3.2842,-3.234,-3.1763,-3.1235,-3.0683,-3.0206,-2.9804,-2.9702,-2.9521,-2.9365,-2.9106,-2.8736,-2.8155,-2.7592,-2.7185,-2.7021,-2.6707,-2.6462,-2.6617,-2.6664,-2.6409,-2.6173,-4.8716,-4.8506,-4.8476,-4.8476,-4.8506,-4.8476,-4.8476,-4.8566,-4.9045,-4.9523,-4.9823,-4.9853,-5.0212,-5.072,-5.081,-5.093,-5.1229,-5.1229,-5.1229,-5.1229,-5.1229,-5.1229,-5.1229,-5.1229,-5.1229,-5.1229,-5.1229,-5.1229,-5.1229,-5.1229,-5.1229,-5.1229,-5.1229,-5.1135,-5.1011,-5.1011,-5.0947,-5.0947,-5.0947,-5.0822,-5.0317,-4.9482,-4.8794,-4.8139,-4.6839,-4.6342,-4.6135,-4.5985,-4.5895,-4.5895,-4.5866,-4.5685,-4.5413,-4.523,-4.4741,-4.4115,-4.3642,-4.3067,-4.2474,-4.1506,-4.0439,-3.9529,-3.8505,-3.7629,-3.7151,-3.6734,-3.6546,-3.6452,-3.6452,-3.6358,-3.6358,-3.6307,-3.5956,-3.5579,-3.5027,-3.45,-3.3947,-3.3395,-3.3219,-3.3119,-3.3093,-3.3093,-3.3093,-3.3093,-3.3093,-3.3093,-3.3093,-3.3093,-3.3093,-3.3093,-3.3093,-3.3093,-3.3043,-3.2968,-3.2416,-3.1913,-3.1386,-3.0834,-3.0231,-2.993,-2.9752,-2.9443,-2.9131,-2.8736,-2.8339,-2.7857,-2.7267,-2.7044,-2.682,-2.6479,-2.6384,-2.6583,-2.6672,-2.6628,-2.6367,-4.7878,-4.7369,-4.7309,-4.7399,-4.7309,-4.7399,-4.7399,-4.7429,-4.8536,-4.9134,-4.9164,-4.9194,-4.9553,-5.0092,-5.0301,-5.0631,-5.093,-5.1109,-5.1229,-5.1229,-5.1229,-5.1229,-5.1229,-5.1229,-5.1229,-5.1229,-5.1229,-5.1229,-5.1199,-5.1105,-5.1135,-5.1229,-5.1135,-5.0947,-5.0822,-5.0644,-5.049,-5.0271,-5.0277,-5.0189,-4.9911,-4.9169,-4.8282,-4.7834,-4.6924,-4.6135,-4.5956,-4.5895,-4.5895,-4.5805,-4.5685,-4.5504,-4.5138,-4.4769,-4.4181,-4.3709,-4.3259,-4.2679,-4.211,-4.1274,-4.0252,-3.9291,-3.8242,-3.7489,-3.6919,-3.6572,-3.6452,-3.6452,-3.6358,-3.6358,-3.6358,-3.6358,-3.6107,-3.578,-3.5353,-3.4801,-3.4248,-3.3646,-3.3144,-3.3093,-3.3093,-3.3093,-3.3093,-3.3093,-3.3093,-3.3093,-3.3093,-3.3093,-3.3093,-3.3093,-3.3093,-3.3093,-3.3068,-3.2993,-3.2692,-3.219,-3.1587,-3.1009,-3.0357,-2.9852,-2.9546,-2.9209,-2.8816,-2.8419,-2.8018,-2.7615,-2.7208,-2.688,-2.6595,-2.6267,-2.6236,-2.6454,-2.6558,-2.664,-2.6509,-4.7459,-4.7309,-4.7309,-4.7309,-4.7309,-4.7309,-4.7309,-4.7339,-4.7608,-4.8087,-4.8446,-4.8566,-4.8865,-4.9464,-4.9912,-5.0242,-5.0481,-5.09,-5.1169,-5.1199,-5.1169,-5.1229,-5.1229,-5.1135,-5.1135,-5.1229,-5.1229,-5.1135,-5.1135,-5.1011,-5.0917,-5.0917,-5.0793,-5.0544,-5.0419,-5.0124,-4.9705,-4.9421,-4.9222,-4.9193,-4.9128,-4.8717,-4.798,-4.724,-4.6363,-4.6014,-4.5895,-4.5895,-4.5805,-4.5595,-4.5595,-4.523,-4.4676,-4.4303,-4.3737,-4.3163,-4.2873,-4.2387,-4.1842,-4.1136,-4.0244,-3.9303,-3.8324,-3.745,-3.6925,-3.6603,-3.6358,-3.6358,-3.6358,-3.6358,-3.6358,-3.6332,-3.6282,-3.5981,-3.5629,-3.5077,-3.4525,-3.3822,-3.3169,-3.3093,-3.3093,-3.3093,-3.3093,-3.3093,-3.3093,-3.3093,-3.3093,-3.3093,-3.3093,-3.3093,-3.3093,-3.3093,-3.3093,-3.2993,-3.2767,-3.229,-3.1612,-3.1035,-3.0407,-2.9899,-2.9443,-2.8949,-2.8578,-2.8099,-2.7696,-2.729,-2.6962,-2.655,-2.6285,-2.6016,-2.6109,-2.6322,-2.6504,-2.6557,-2.6536,-4.7309,-4.7309,-4.7309,-4.7309,-4.7309,-4.7309,-4.7309,-4.7309,-4.7309,-4.7489,-4.7818,-4.7878,-4.8207,-4.8775,-4.9224,-4.9673,-4.9883,-5.0481,-5.0661,-5.078,-5.0956,-5.1105,-5.1105,-5.1011,-5.0947,-5.0947,-5.0852,-5.0852,-5.0793,-5.0757,-5.0662,-5.0544,-5.0265,-4.9934,-4.9846,-4.9251,-4.8776,-4.8559,-4.8179,-4.8121,-4.8238,-4.7707,-4.7444,-4.6708,-4.6301,-4.5953,-4.5866,-4.5776,-4.5595,-4.5413,-4.523,-4.4769,-4.4237,-4.3737,-4.3355,-4.2873,-4.2582,-4.2092,-4.1597,-4.1067,-4.0253,-3.9111,-3.8409,-3.756,-3.6704,-3.6358,-3.6358,-3.6358,-3.6358,-3.6358,-3.6358,-3.6358,-3.6358,-3.6157,-3.568,-3.5127,-3.4399,-3.3596,-3.3194,-3.3093,-3.3093,-3.3093,-3.3093,-3.3093,-3.3093,-3.3093,-3.3093,-3.3093,-3.3093,-3.3093,-3.3093,-3.3093,-3.3093,-3.3068,-3.2943,-3.2315,-3.1512,-3.0959,-3.0378,-2.9742,-2.9106,-2.8657,-2.8259,-2.7857,-2.7452,-2.7126,-2.6715,-2.6407,-2.6074,-2.5782,-2.5959,-2.6123,-2.6256,-2.6347,-2.618,-4.7309,-4.7309,-4.7309,-4.7309,-4.7309,-4.7309,-4.7309,-4.7309,-4.7309,-4.7309,-4.7369,-4.7369,-4.7698,-4.7997,-4.8327,-4.8716,-4.9194,-4.9823,-5.0062,-5.0179,-5.0657,-5.056,-5.0585,-5.0639,-5.0632,-5.0692,-5.0596,-5.0449,-5.033,-5.0235,-5.0147,-5.0022,-4.9698,-4.9163,-4.8799,-4.8325,-4.7852,-4.7672,-4.7439,-4.7143,-4.6969,-4.6766,-4.6766,-4.6563,-4.6214,-4.5924,-4.5776,-4.5685,-4.5504,-4.5138,-4.4769,-4.4303,-4.3926,-4.3451,-4.297,-4.2582,-4.2092,-4.1696,-4.1198,-4.0769,-3.9699,-3.8764,-3.8239,-3.7563,-3.6709,-3.6358,-3.6358,-3.6358,-3.6358,-3.6358,-3.6358,-3.6358,-3.6358,-3.6207,-3.568,-3.5177,-3.4324,-3.3495,-3.3244,-3.3093,-3.3093,-3.3093,-3.3093,-3.3093,-3.3093,-3.3093,-3.3093,-3.3093,-3.3093,-3.3093,-3.3093,-3.3093,-3.3093,-3.3068,-3.3043,-3.2315,-3.1436,-3.0954,-3.0398,-2.9609,-2.887,-2.8419,-2.8018,-2.7777,-2.7371,-2.6962,-2.655,-2.624,-2.5906,-2.557,-2.5744,-2.5929,-2.5769,-2.582,-2.5668,-4.7309,-4.7309,-4.7309,-4.7309,-4.7309,-4.7309,-4.7309,-4.7309,-4.7309,-4.7309,-4.7309,-4.7309,-4.7429,-4.7549,-4.8087,-4.8416,-4.8417,-4.9134,-4.9193,-4.925,-4.9875,-4.9868,-4.9858,-4.994,-5.0383,-5.0383,-5.011,-5.0147,-4.9698,-4.9362,-4.9128,-4.8747,-4.8471,-4.8115,-4.8027,-4.7526,-4.709,-4.6911,-4.6621,-4.633,-4.6417,-4.6359,-4.6446,-4.6243,-4.5953,-4.5895,-4.5776,-4.5595,-4.5413,-4.5046,-4.449,-4.4021,-4.3519,-4.3039,-4.2679,-4.219,-4.1696,-4.1298,-4.0896,-4.0491,-3.9575,-3.8513,-3.8013,-3.7538,-3.6835,-3.6358,-3.6358,-3.6358,-3.6358,-3.6358,-3.6358,-3.6358,-3.6332,-3.6031,-3.5604,-3.5127,-3.4474,-3.3696,-3.3119,-3.3093,-3.3093,-3.3093,-3.3093,-3.3093,-3.3093,-3.3093,-3.3093,-3.3093,-3.3093,-3.3093,-3.3093,-3.3093,-3.3093,-3.3093,-3.3043,-3.2215,-3.1461,-3.0979,-3.0368,-2.9346,-2.8657,-2.8203,-2.7881,-2.7534,-2.7126,-2.6633,-2.6302,-2.6052,-2.5717,-2.5444,-2.555,-2.5606,-2.5493,-2.5404,-2.5295]},{"header":{"parameterUnit":"m.s-1","parameterCategory":1,"la1":31.0,"la2":29.5877,"lo1":-88.7671,"lo2":-86.6584,"dy":0.0162,"dx":0.0185,"nx":115,"ny":88,"refTime":"2023-06-23T00:00:00:Z","depth":0,"parameterNumber":3,"parameterNumberName":"V-component_of_WINDS"},"data":[0.0,0.0,0.0,0.0,0.0,0.0,0.0,0.0,0.0,0.0,0.0,0.0,0.0,0.0,0.0,0.0,0.0,0.0,0.0,0.0,0.0,0.0,0.0,0.0,0.0,0.0,0.0,0.0,0.0,0.0,0.0,0.0,0.0,0.0,0.0,0.0,0.0,0.0,0.0,0.0,0.0,0.0,0.0,0.0,0.0,0.0,0.0,0.0,0.0,0.0,0.0,0.0,0.0,0.0,0.0,0.0,0.0,0.0,0.0,0.0,0.0,0.0,0.0,0.0,0.0,0.0,0.0,0.0,0.0,0.0,0.0,0.0,0.0,0.0,0.0,0.0,0.0,0.0,0.0,0.0,0.0,0.0,0.0,0.0,0.0,0.0,0.0,0.0,0.0,0.0,0.0,0.0,0.0,0.0,0.0,0.0,0.0,0.0,0.0,0.0,0.0,0.0,0.0,0.0,0.0,0.0,0.0,0.0,0.0,0.0,0.0,0.0,0.0,0.0,0.0,0.0,0.0,0.0,0.0,0.0,0.0,0.0,0.0,0.0,0.0,0.0,0.0,0.0,0.0,0.0,0.0,0.0,0.0,0.0,0.0,0.0,0.0,0.0,0.0,0.0,0.0,0.0,0.0,0.0,0.0,0.0,0.0,0.0,0.0,0.0,0.0,0.0,0.0,0.0,0.0,0.0,0.0,0.0,0.0,0.0,0.0,0.0,0.0,0.0,0.0,0.0,0.0,0.0,0.0,0.0,0.0,0.0,0.0,0.0,0.0,0.0,0.0,0.0,0.0,0.0,0.0,0.0,0.0,0.0,0.0,0.0,0.0,0.0,0.0,0.0,0.0,0.0,0.0,0.0,0.0,0.0,0.0,0.0,0.0,0.0,0.0,0.0,0.0,0.0,0.0,0.0,0.0,0.0,0.0,0.0,0.0,0.0,0.0,0.0,0.0,0.0,0.0,0.0,0.0,0.0,0.0,0.0,0.0,0.0,0.0,0.0,0.0,0.0,0.0,0.0,0.0,0.0,0.0,0.0,0.0,0.0,0.0,0.0,0.0,0.0,0.0,0.0,0.0,0.0,0.0,0.0,0.0,0.0,0.0,0.0,0.0,0.0,0.0,0.0,0.0,0.0,0.0,0.0,0.0,0.0,0.0,0.0,0.0,0.0,0.0,0.0,0.0,0.0,0.0,0.0,0.0,0.0,0.0,0.0,0.0,0.0,0.0,0.0,0.0,0.0,0.0,0.0,0.0,0.0,0.0,0.0,0.0,0.0,0.0,0.0,0.0,0.0,0.0,0.0,0.0,0.0,0.0,0.0,0.0,0.0,0.0,0.0,0.0,0.0,0.0,0.0,0.0,0.0,0.0,0.0,0.0,0.0,0.0,0.0,0.0,0.0,0.0,0.0,0.0,0.0,0.0,0.0,0.0,0.0,0.0,0.0,0.0,0.0,0.0,0.0,0.0,0.0,0.0,0.0,0.0,0.0,0.0,0.0,0.0,0.0,0.0,0.0,0.0,0.0,0.0,0.0,0.0,0.0,0.0,0.0,0.0,0.0,0.0,0.0,0.0,0.0,0.0,0.0,0.0,0.0,0.0,0.0,0.0,0.0,0.0,0.0,0.0,0.0,0.0,0.0,0.0,0.0,0.0,0.0,0.0,0.0,0.0,0.0,0.0,0.0,0.0,0.0,0.0,0.0,0.0,0.0,0.0,0.0,0.0,0.0,0.0,0.0,0.0,0.0,0.0,0.0,0.0,0.0,0.0,0.0,0.0,0.0,0.0,0.0,0.0,0.0,0.0,0.0,0.0,0.0,0.0,0.0,0.0,0.0,0.0,0.0,0.0,0.0,0.0,0.0,0.0,0.0,0.0,0.0,0.0,0.0,0.0,0.0,0.0,0.0,0.0,0.0,0.0,0.0,0.0,0.0,0.0,0.0,0.0,0.0,0.0,0.0,0.0,0.0,0.0,0.0,0.0,0.0,0.0,0.0,0.0,0.0,0.0,0.0,0.0,0.0,0.0,0.0,0.0,0.0,0.0,0.0,0.0,0.0,0.0,0.0,0.0,0.0,0.0,0.0,0.0,0.0,0.0,0.0,0.0,0.0,0.0,0.0,0.0,0.0,0.0,0.0,0.0,0.0,0.0,0.0,0.0,0.0,0.0,0.0,0.0,0.0,0.0,0.0,0.0,0.0,0.0,0.0,0.0,0.0,0.0,0.0,0.0,0.0,0.0,0.0,0.0,0.0,0.0,0.0,0.0,0.0,0.0,0.0,0.0,0.0,0.0,0.0,0.0,0.0,0.0,0.0,0.0,0.0,0.0,0.0,0.0,0.0,0.0,0.0,0.0,0.0,0.0,0.0,0.0,0.0,0.0,0.0,0.0,0.0,0.0,0.0,0.0,0.0,0.0,0.0,0.0,0.0,0.0,0.0,0.0,0.0,0.0,0.0,0.0,0.0,0.0,0.0,0.0,0.0,0.0,0.0,0.0,0.0,0.0,0.0,0.0,0.0,0.0,0.0,0.0,0.0,0.0,0.0,0.0,0.0,0.0,0.0,0.0,0.0,0.0,0.0,0.0,0.0,0.0,0.0,0.0,0.0,0.0,0.0,0.0,0.0,0.0,0.0,0.0,0.0,0.0,0.0,0.0,0.0,0.0,0.0,0.0,0.0,0.0,0.0,0.0,0.0,0.0,0.0,0.0,0.0,0.0,0.0,0.0,0.0,0.0,0.0,0.0,0.0,0.0,0.0,0.0,0.0,0.0,0.0,0.0,0.0,0.0,0.0,0.0,0.0,0.0,0.0,0.0,0.0,0.0,0.0,0.0,0.0,0.0,0.0,0.0,0.0,0.0,0.0,0.0,0.0,0.0,0.0,0.0,0.0,0.0,0.0,0.0,0.0,0.0,0.0,0.0,0.0,0.0,0.0,0.0,0.0,0.0,0.0,0.0,0.0,0.0,0.0,0.0,0.0,0.0,0.0,0.0,0.0,0.0,0.0,0.0,0.0,0.0,0.0,0.0,0.0,0.0,0.0,0.0,0.0,0.0,0.0,0.0,0.0,0.0,0.0,0.0,0.0,0.0,0.0,0.0,0.0,0.0,0.0,0.0,0.0,0.0,0.0,0.0,0.0,0.0,0.0,0.0,0.0,0.0,0.0,0.0,0.0,0.0,0.0,0.0,0.0,0.0,0.0,0.0,0.0,0.0,0.0,0.0,0.0,0.0,0.0,0.0,0.0,0.0,0.0,0.0,0.0,0.0,0.0,0.0,0.0,0.0,0.0,0.0,0.0,0.0,0.0,0.0,0.0,0.0,0.0,0.0,0.0,0.0,0.0,0.0,0.0,0.0,0.0,0.0,0.0,0.0,0.0,0.0,0.0,0.0,0.0,0.0,0.0,0.0,0.0,0.0,0.0,0.0,0.0,0.0,0.0,0.0,0.0,0.0,0.0,0.0,0.0,0.0,0.0,0.0,0.0,0.0,0.0,0.0,0.0,0.0,0.0,0.0,0.0,0.0,0.0,0.0,0.0,0.0,0.0,0.0,0.0,0.0,0.0,0.0,0.0,0.0,0.0,0.0,0.0,0.0,0.0,0.0,0.0,0.0,0.0,0.0,0.0,0.0,0.0,0.0,0.0,0.0,0.0,0.0,0.0,0.0,0.0,0.0,0.0,0.0,0.0,0.0,0.0,0.0,0.0,0.0,0.0,0.0,0.0,0.0,0.0,0.0,0.0,0.0,0.0,0.0,0.0,0.0,0.0,0.0,0.0,0.0,0.0,0.0,0.0,0.0,0.0,0.0,0.0,0.0,0.0,0.0,0.0,0.0,0.0,0.0,0.0,0.0,0.0,0.0,0.0,0.0,0.0,0.0,0.0,0.0,0.0,0.0,0.0,0.0,0.0,0.0,0.0,0.0,0.0,0.0,0.0,0.0,0.0,0.0,0.0,0.0,0.0,0.0,0.0,0.0,0.0,0.0,0.0,0.0,0.0,0.0,0.0,0.0,0.0,0.0,0.0,0.0,0.0,0.0,0.0,0.0,0.0,0.0,0.0,0.0,0.0,0.0,0.0,0.0,0.0,0.0,0.0,0.0,0.0,0.0,0.0,0.0,0.0,0.0,0.0,0.0,0.0,0.0,0.0,0.0,0.0,0.0,0.0,0.0,0.0,0.0,0.0,0.0,0.0,0.0,0.0,0.0,0.0,0.0,0.0,0.0,0.0,0.0,0.0,0.0,0.0,0.0,0.0,0.0,0.0,0.0,0.0,0.0,0.0,-2.0581,0.0,0.0,0.0,0.0,0.0,0.0,0.0,0.0,0.0,0.0,0.0,0.0,0.0,0.0,0.0,0.0,0.0,0.0,0.0,0.0,0.0,0.0,0.0,0.0,0.0,0.0,0.0,0.0,0.0,0.0,0.0,0.0,0.0,0.0,0.0,0.0,0.0,0.0,0.0,0.0,0.0,0.0,0.0,0.0,0.0,0.0,0.0,0.0,0.0,0.0,0.0,0.0,0.0,0.0,0.0,0.0,0.0,0.0,0.0,0.0,0.0,0.0,0.0,0.0,0.0,0.0,0.0,0.0,0.0,0.0,0.0,0.0,0.0,0.0,0.0,0.0,0.0,0.0,0.0,0.0,0.0,0.0,0.0,0.0,0.0,0.0,0.0,0.0,0.0,0.0,0.0,0.0,0.0,0.0,0.0,0.0,0.0,0.0,0.0,0.0,0.0,0.0,0.0,0.0,0.0,0.0,0.0,0.0,0.0,0.0,-2.181,-2.1449,-2.1543,-2.1555,-2.1443,0.0,0.0,0.0,0.0,0.0,0.0,0.0,0.0,0.0,0.0,0.0,0.0,0.0,0.0,0.0,0.0,0.0,0.0,0.0,0.0,0.0,0.0,0.0,0.0,0.0,0.0,0.0,0.0,0.0,0.0,0.0,0.0,0.0,0.0,0.0,0.0,0.0,0.0,0.0,0.0,0.0,0.0,0.0,0.0,0.0,0.0,0.0,0.0,0.0,0.0,0.0,0.0,0.0,0.0,0.0,0.0,0.0,0.0,0.0,0.0,0.0,0.0,0.0,0.0,0.0,0.0,0.0,0.0,0.0,0.0,0.0,0.0,0.0,0.0,0.0,0.0,0.0,0.0,0.0,0.0,0.0,0.0,0.0,0.0,0.0,0.0,0.0,0.0,0.0,0.0,0.0,0.0,0.0,0.0,0.0,0.0,0.0,0.0,0.0,0.0,0.0,0.0,0.0,0.0,0.0,0.0,0.0,0.0,0.0,0.0,0.0,0.0,-2.2529,-2.2452,-2.2171,0.0,0.0,0.0,0.0,0.0,0.0,0.0,0.0,0.0,0.0,0.0,0.0,0.0,0.0,0.0,0.0,0.0,0.0,0.0,0.0,0.0,0.0,0.0,0.0,0.0,0.0,0.0,0.0,0.0,0.0,0.0,0.0,0.0,0.0,0.0,0.0,0.0,0.0,0.0,0.0,0.0,0.0,0.0,0.0,0.0,0.0,0.0,0.0,0.0,0.0,0.0,0.0,0.0,0.0,0.0,0.0,0.0,0.0,0.0,0.0,0.0,0.0,0.0,0.0,0.0,0.0,0.0,0.0,0.0,0.0,0.0,0.0,0.0,0.0,0.0,0.0,0.0,0.0,0.0,0.0,0.0,0.0,0.0,0.0,0.0,0.0,0.0,0.0,0.0,0.0,0.0,0.0,0.0,0.0,0.0,0.0,0.0,0.0,0.0,0.0,0.0,0.0,0.0,0.0,0.0,0.0,0.0,0.0,0.0,0.0,-2.3859,-2.3665,-2.3647,0.0,-2.2685,0.0,0.0,0.0,0.0,0.0,0.0,0.0,0.0,0.0,0.0,0.0,0.0,0.0,0.0,0.0,0.0,0.0,0.0,0.0,0.0,0.0,0.0,0.0,0.0,0.0,0.0,0.0,0.0,0.0,0.0,0.0,0.0,0.0,0.0,0.0,0.0,0.0,0.0,0.0,0.0,0.0,0.0,0.0,0.0,0.0,0.0,0.0,0.0,0.0,0.0,0.0,0.0,0.0,0.0,0.0,0.0,0.0,0.0,0.0,0.0,0.0,0.0,0.0,0.0,0.0,0.0,0.0,0.0,0.0,0.0,0.0,0.0,0.0,0.0,0.0,0.0,0.0,0.0,0.0,0.0,0.0,0.0,0.0,0.0,0.0,0.0,0.0,0.0,0.0,0.0,0.0,0.0,0.0,0.0,0.0,0.0,0.0,0.0,0.0,0.0,0.0,0.0,0.0,0.0,0.0,0.0,0.0,0.0,0.0,0.0,-2.4608,-2.4765,-2.439,-2.3888,0.0,0.0,0.0,0.0,0.0,0.0,0.0,0.0,0.0,0.0,0.0,0.0,0.0,0.0,0.0,0.0,0.0,0.0,0.0,0.0,0.0,0.0,0.0,0.0,0.0,0.0,0.0,0.0,0.0,0.0,0.0,0.0,0.0,0.0,0.0,0.0,0.0,0.0,0.0,0.0,0.0,0.0,0.0,0.0,0.0,0.0,0.0,0.0,0.0,0.0,0.0,0.0,0.0,0.0,0.0,0.0,0.0,0.0,0.0,0.0,0.0,0.0,0.0,0.0,0.0,0.0,0.0,0.0,0.0,0.0,0.0,0.0,0.0,0.0,0.0,0.0,0.0,0.0,0.0,0.0,0.0,0.0,0.0,0.0,0.0,0.0,0.0,0.0,0.0,0.0,0.0,0.0,0.0,0.0,0.0,0.0,0.0,0.0,0.0,0.0,0.0,0.0,0.0,0.0,0.0,0.0,0.0,0.0,0.0,0.0,-2.509,-2.5245,-2.5577,-2.5154,-2.4454,-2.373,0.0,0.0,0.0,0.0,0.0,0.0,0.0,0.0,0.0,0.0,0.0,0.0,0.0,0.0,0.0,0.0,0.0,0.0,0.0,0.0,0.0,0.0,0.0,0.0,0.0,0.0,0.0,0.0,0.0,0.0,0.0,0.0,0.0,0.0,0.0,0.0,0.0,0.0,0.0,0.0,0.0,0.0,0.0,0.0,0.0,0.0,0.0,0.0,0.0,0.0,0.0,0.0,0.0,0.0,0.0,0.0,0.0,0.0,0.0,0.0,0.0,0.0,0.0,0.0,0.0,0.0,0.0,0.0,0.0,0.0,0.0,0.0,0.0,0.0,0.0,0.0,0.0,0.0,0.0,0.0,0.0,0.0,0.0,0.0,0.0,0.0,0.0,0.0,0.0,0.0,0.0,0.0,0.0,0.0,0.0,0.0,0.0,0.0,0.0,0.0,0.0,0.0,0.0,0.0,0.0,0.0,0.0,0.0,-2.5566,-2.5657,-2.5964,-2.6337,-2.5964,-2.5365,0.0,0.0,0.0,0.0,0.0,0.0,0.0,0.0,0.0,0.0,0.0,0.0,0.0,0.0,0.0,0.0,0.0,0.0,0.0,0.0,0.0,0.0,0.0,0.0,0.0,0.0,0.0,0.0,0.0,0.0,0.0,0.0,0.0,0.0,0.0,0.0,0.0,0.0,0.0,0.0,0.0,0.0,0.0,0.0,0.0,0.0,0.0,0.0,0.0,0.0,0.0,0.0,0.0,0.0,0.0,0.0,0.0,0.0,0.0,0.0,0.0,0.0,0.0,0.0,0.0,0.0,0.0,0.0,0.0,0.0,0.0,0.0,0.0,0.0,0.0,0.0,0.0,0.0,0.0,0.0,0.0,0.0,0.0,0.0,0.0,0.0,0.0,0.0,0.0,0.0,0.0,0.0,0.0,0.0,0.0,0.0,0.0,0.0,0.0,0.0,0.0,0.0,0.0,0.0,0.0,0.0,0.0,0.0,0.0,-2.5945,-2.6522,-2.6717,-2.671,-2.6418,-2.5805,0.0,0.0,0.0,0.0,0.0,0.0,0.0,0.0,0.0,0.0,0.0,0.0,0.0,0.0,0.0,0.0,0.0,0.0,0.0,0.0,0.0,0.0,0.0,0.0,0.0,0.0,0.0,0.0,0.0,0.0,0.0,0.0,0.0,0.0,0.0,0.0,0.0,0.0,0.0,0.0,0.0,0.0,0.0,0.0,0.0,0.0,0.0,0.0,0.0,0.0,0.0,0.0,0.0,0.0,0.0,0.0,0.0,0.0,0.0,0.0,0.0,0.0,0.0,0.0,0.0,0.0,0.0,0.0,0.0,0.0,0.0,0.0,0.0,0.0,0.0,0.0,0.0,0.0,0.0,0.0,0.0,0.0,0.0,0.0,0.0,0.0,0.0,0.0,0.0,0.0,0.0,0.0,0.0,0.0,0.0,0.0,0.0,0.0,0.0,0.0,0.0,0.0,0.0,0.0,0.0,0.0,0.0,0.0,0.0,-2.6378,0.0,-2.7549,-2.7131,-2.6921,-2.6218,0.0,0.0,0.0,0.0,0.0,0.0,0.0,0.0,0.0,0.0,0.0,0.0,0.0,0.0,0.0,0.0,0.0,0.0,0.0,0.0,0.0,0.0,0.0,0.0,0.0,0.0,0.0,0.0,0.0,0.0,0.0,0.0,0.0,0.0,0.0,0.0,0.0,0.0,0.0,0.0,0.0,0.0,0.0,0.0,0.0,0.0,0.0,0.0,0.0,0.0,0.0,0.0,0.0,0.0,0.0,0.0,0.0,0.0,0.0,0.0,0.0,0.0,0.0,0.0,0.0,0.0,0.0,0.0,0.0,0.0,0.0,0.0,0.0,0.0,0.0,0.0,0.0,0.0,0.0,0.0,0.0,0.0,0.0,0.0,0.0,0.0,0.0,0.0,0.0,0.0,0.0,0.0,0.0,0.0,0.0,0.0,0.0,0.0,0.0,0.0,0.0,0.0,0.0,0.0,0.0,0.0,0.0,0.0,-2.5974,-2.6602,-2.7853,-2.8276,-2.7853,-2.7449,-2.6743,0.0,0.0,0.0,0.0,0.0,0.0,0.0,0.0,0.0,0.0,0.0,0.0,0.0,0.0,0.0,0.0,0.0,0.0,0.0,0.0,0.0,0.0,0.0,0.0,0.0,0.0,0.0,0.0,0.0,0.0,0.0,0.0,0.0,0.0,0.0,0.0,0.0,0.0,0.0,0.0,0.0,0.0,0.0,0.0,0.0,0.0,0.0,0.0,0.0,0.0,0.0,0.0,0.0,0.0,0.0,0.0,0.0,0.0,0.0,0.0,0.0,0.0,0.0,0.0,0.0,0.0,0.0,0.0,0.0,0.0,0.0,0.0,0.0,0.0,0.0,0.0,0.0,0.0,0.0,0.0,0.0,0.0,0.0,0.0,0.0,0.0,0.0,0.0,0.0,0.0,0.0,0.0,0.0,0.0,0.0,0.0,0.0,0.0,0.0,0.0,0.0,0.0,0.0,0.0,0.0,0.0,0.0,0.0,0.0,-2.7376,-2.831,-2.8739,-2.8602,-2.7921,-2.6968,0.0,0.0,0.0,0.0,0.0,0.0,0.0,0.0,0.0,0.0,0.0,0.0,0.0,0.0,0.0,0.0,0.0,0.0,0.0,0.0,0.0,0.0,0.0,0.0,0.0,0.0,0.0,0.0,0.0,0.0,0.0,0.0,0.0,0.0,0.0,0.0,0.0,0.0,0.0,0.0,0.0,0.0,0.0,0.0,0.0,0.0,0.0,0.0,0.0,0.0,0.0,0.0,0.0,0.0,0.0,0.0,0.0,0.0,0.0,0.0,0.0,0.0,0.0,0.0,0.0,0.0,0.0,0.0,0.0,0.0,0.0,0.0,0.0,0.0,0.0,0.0,0.0,0.0,0.0,0.0,0.0,0.0,0.0,0.0,0.0,0.0,0.0,0.0,0.0,0.0,0.0,0.0,0.0,0.0,0.0,0.0,0.0,0.0,0.0,0.0,0.0,0.0,0.0,0.0,0.0,0.0,0.0,0.0,0.0,-2.8633,-2.9121,-2.9394,-2.9394,-2.8574,-2.7519,-2.6269,0.0,0.0,0.0,0.0,0.0,0.0,0.0,0.0,0.0,0.0,0.0,0.0,0.0,0.0,0.0,0.0,0.0,0.0,0.0,0.0,0.0,0.0,0.0,0.0,0.0,0.0,0.0,0.0,0.0,0.0,0.0,0.0,0.0,0.0,0.0,0.0,0.0,0.0,0.0,0.0,0.0,0.0,0.0,0.0,0.0,0.0,0.0,0.0,0.0,0.0,0.0,0.0,0.0,0.0,0.0,0.0,0.0,0.0,0.0,0.0,0.0,0.0,0.0,0.0,0.0,0.0,0.0,0.0,0.0,0.0,0.0,0.0,0.0,0.0,0.0,0.0,0.0,0.0,0.0,0.0,0.0,0.0,0.0,0.0,0.0,0.0,0.0,0.0,0.0,0.0,0.0,0.0,0.0,0.0,0.0,0.0,0.0,0.0,0.0,0.0,0.0,0.0,0.0,0.0,0.0,0.0,0.0,0.0,-3.0293,-3.0371,-3.0391,-3.0293,-2.9453,-2.8379,0.0,0.0,0.0,0.0,0.0,0.0,0.0,0.0,0.0,0.0,0.0,0.0,0.0,0.0,0.0,0.0,0.0,0.0,0.0,0.0,0.0,0.0,0.0,0.0,0.0,0.0,0.0,0.0,0.0,0.0,0.0,0.0,0.0,0.0,0.0,0.0,0.0,0.0,0.0,0.0,0.0,0.0,0.0,0.0,0.0,0.0,0.0,0.0,0.0,0.0,0.0,0.0,0.0,0.0,0.0,0.0,0.0,0.0,0.0,0.0,0.0,0.0,0.0,0.0,0.0,0.0,0.0,0.0,0.0,0.0,0.0,0.0,0.0,0.0,0.0,0.0,0.0,0.0,0.0,0.0,0.0,0.0,0.0,0.0,0.0,0.0,0.0,0.0,0.0,0.0,0.0,0.0,0.0,0.0,0.0,0.0,0.0,0.0,0.0,0.0,0.0,0.0,0.0,0.0,0.0,0.0,0.0,0.0,0.0,-3.1133,-3.2402,-3.2617,-3.168,-3.0488,-2.9121,0.0,0.0,0.0,0.0,0.0,0.0,0.0,0.0,0.0,0.0,0.0,0.0,0.0,0.0,0.0,0.0,0.0,0.0,0.0,0.0,0.0,0.0,0.0,0.0,0.0,0.0,0.0,0.0,0.0,0.0,0.0,0.0,0.0,0.0,0.0,0.0,0.0,0.0,0.0,0.0,0.0,0.0,0.0,0.0,0.0,0.0,0.0,0.0,0.0,0.0,0.0,0.0,0.0,0.0,0.0,0.0,0.0,0.0,0.0,0.0,0.0,0.0,0.0,0.0,0.0,0.0,0.0,0.0,0.0,0.0,0.0,0.0,0.0,0.0,0.0,0.0,0.0,0.0,0.0,0.0,0.0,0.0,0.0,0.0,0.0,0.0,0.0,0.0,0.0,0.0,0.0,0.0,0.0,0.0,0.0,0.0,0.0,0.0,0.0,0.0,0.0,0.0,0.0,0.0,0.0,0.0,0.0,0.0,-3.0391,-3.2285,-3.4004,-3.4551,-3.3809,-3.2168,-3.0488,0.0,0.0,0.0,0.0,0.0,0.0,0.0,0.0,0.0,0.0,0.0,0.0,0.0,0.0,0.0,0.0,0.0,0.0,0.0,0.0,0.0,0.0,0.0,0.0,0.0,0.0,0.0,0.0,0.0,0.0,0.0,0.0,0.0,0.0,0.0,0.0,0.0,0.0,0.0,0.0,0.0,0.0,0.0,0.0,0.0,0.0,0.0,0.0,0.0,0.0,0.0,0.0,0.0,0.0,0.0,0.0,0.0,0.0,0.0,0.0,0.0,0.0,0.0,0.0,0.0,0.0,0.0,0.0,0.0,0.0,0.0,0.0,0.0,0.0,0.0,0.0,0.0,0.0,0.0,0.0,0.0,0.0,0.0,0.0,0.0,0.0,0.0,0.0,0.0,0.0,0.0,0.0,0.0,0.0,0.0,0.0,0.0,0.0,0.0,0.0,0.0,0.0,0.0,0.0,0.0,0.0,0.0,0.0,-3.1348,-3.3516,-3.5215,-3.6094,-3.6035,-3.3984,-3.2051,0.0,0.0,0.0,0.0,0.0,0.0,0.0,0.0,0.0,0.0,0.0,0.0,0.0,0.0,0.0,0.0,0.0,0.0,0.0,0.0,0.0,0.0,0.0,0.0,0.0,0.0,0.0,0.0,0.0,0.0,0.0,0.0,0.0,0.0,0.0,0.0,0.0,0.0,0.0,0.0,0.0,0.0,0.0,0.0,0.0,0.0,0.0,0.0,0.0,0.0,0.0,0.0,0.0,0.0,0.0,0.0,0.0,0.0,0.0,0.0,0.0,0.0,0.0,0.0,0.0,0.0,0.0,0.0,0.0,0.0,0.0,0.0,0.0,0.0,0.0,0.0,0.0,0.0,0.0,0.0,0.0,0.0,0.0,0.0,0.0,0.0,0.0,0.0,0.0,0.0,0.0,0.0,0.0,0.0,0.0,0.0,0.0,0.0,0.0,0.0,0.0,0.0,0.0,0.0,0.0,0.0,0.0,0.0,-3.1953,-3.4375,-3.5801,-3.6523,-3.6523,-3.4414,-3.248,0.0,0.0,0.0,0.0,0.0,0.0,0.0,0.0,0.0,0.0,0.0,0.0,0.0,0.0,0.0,0.0,0.0,0.0,0.0,0.0,0.0,0.0,0.0,0.0,0.0,0.0,0.0,0.0,0.0,0.0,0.0,0.0,0.0,0.0,0.0,0.0,0.0,0.0,0.0,0.0,0.0,0.0,0.0,0.0,0.0,0.0,0.0,0.0,-2.7067,0.0,0.0,0.0,0.0,0.0,0.0,0.0,0.0,0.0,0.0,0.0,0.0,0.0,0.0,0.0,0.0,0.0,0.0,0.0,0.0,0.0,0.0,0.0,0.0,0.0,0.0,0.0,0.0,0.0,0.0,0.0,0.0,0.0,0.0,0.0,0.0,0.0,0.0,0.0,0.0,0.0,0.0,0.0,0.0,0.0,0.0,0.0,0.0,0.0,0.0,0.0,0.0,0.0,0.0,0.0,0.0,0.0,0.0,0.0,-3.2441,-3.4961,-3.6289,-3.6973,-3.6894,-3.5059,-3.3125,0.0,0.0,0.0,0.0,0.0,0.0,0.0,0.0,0.0,0.0,0.0,0.0,0.0,0.0,0.0,0.0,0.0,0.0,0.0,0.0,0.0,0.0,0.0,0.0,0.0,0.0,0.0,0.0,0.0,0.0,0.0,0.0,0.0,0.0,0.0,0.0,0.0,0.0,0.0,0.0,0.0,0.0,0.0,0.0,0.0,0.0,0.0,0.0,0.0,0.0,0.0,0.0,0.0,0.0,0.0,0.0,0.0,0.0,0.0,0.0,0.0,0.0,0.0,0.0,0.0,0.0,0.0,0.0,0.0,0.0,0.0,0.0,0.0,0.0,0.0,0.0,0.0,0.0,0.0,0.0,0.0,0.0,0.0,0.0,0.0,0.0,0.0,0.0,0.0,0.0,0.0,0.0,0.0,0.0,0.0,0.0,0.0,0.0,0.0,0.0,0.0,0.0,0.0,0.0,0.0,0.0,0.0,-3.0547,-3.2871,-3.5391,-3.6621,-3.7207,-3.7187,-3.5508,-3.3701,-3.1367,0.0,0.0,0.0,0.0,0.0,0.0,0.0,0.0,0.0,0.0,0.0,0.0,0.0,0.0,0.0,0.0,0.0,0.0,0.0,0.0,0.0,0.0,0.0,0.0,0.0,0.0,0.0,0.0,0.0,0.0,0.0,0.0,0.0,0.0,0.0,0.0,0.0,0.0,-2.603,-2.749,0.0,0.0,0.0,0.0,0.0,0.0,0.0,0.0,-2.8831,0.0,0.0,0.0,0.0,0.0,0.0,0.0,0.0,0.0,0.0,0.0,0.0,0.0,0.0,0.0,0.0,0.0,0.0,0.0,0.0,0.0,0.0,0.0,0.0,0.0,0.0,0.0,0.0,0.0,0.0,0.0,0.0,0.0,0.0,0.0,0.0,0.0,0.0,0.0,0.0,0.0,0.0,0.0,0.0,0.0,0.0,0.0,0.0,0.0,0.0,0.0,0.0,0.0,0.0,0.0,0.0,-2.9336,-3.1152,-3.332,-3.584,-3.6484,-3.6777,-3.6738,-3.5362,-3.3381,-3.0853,0.0,0.0,0.0,0.0,0.0,0.0,0.0,0.0,0.0,0.0,0.0,0.0,0.0,0.0,0.0,0.0,0.0,0.0,0.0,0.0,0.0,0.0,0.0,0.0,0.0,0.0,0.0,0.0,0.0,0.0,0.0,0.0,0.0,0.0,0.0,0.0,0.0,0.0,0.0,-2.9327,-2.9758,0.0,0.0,0.0,0.0,0.0,0.0,0.0,0.0,-2.9982,0.0,0.0,0.0,0.0,0.0,0.0,0.0,0.0,0.0,0.0,0.0,0.0,0.0,0.0,0.0,0.0,0.0,0.0,0.0,0.0,0.0,0.0,0.0,0.0,0.0,0.0,0.0,0.0,0.0,0.0,0.0,0.0,0.0,0.0,0.0,0.0,0.0,0.0,0.0,0.0,0.0,0.0,0.0,0.0,0.0,0.0,0.0,0.0,0.0,0.0,0.0,0.0,0.0,0.0,0.0,-2.9512,-3.1289,-3.332,-3.5605,-3.6348,-3.6562,-3.6309,-3.493,-3.3149,0.0,0.0,0.0,0.0,0.0,0.0,0.0,0.0,0.0,0.0,0.0,0.0,0.0,0.0,0.0,0.0,0.0,0.0,0.0,0.0,0.0,0.0,0.0,0.0,0.0,0.0,0.0,0.0,0.0,0.0,0.0,0.0,0.0,0.0,0.0,0.0,0.0,0.0,0.0,0.0,-3.0114,-3.0727,-3.083,0.0,0.0,0.0,0.0,0.0,0.0,-3.0568,-3.1007,0.0,0.0,0.0,0.0,0.0,0.0,0.0,0.0,0.0,0.0,0.0,0.0,0.0,0.0,0.0,0.0,0.0,0.0,0.0,0.0,0.0,0.0,0.0,0.0,0.0,0.0,0.0,0.0,0.0,0.0,0.0,0.0,0.0,0.0,0.0,0.0,0.0,0.0,0.0,0.0,0.0,0.0,0.0,0.0,0.0,0.0,0.0,0.0,0.0,0.0,0.0,0.0,0.0,0.0,0.0,-2.9531,-3.1289,-3.3223,-3.5312,-3.6152,-3.6328,-3.6014,-3.4606,-3.2994,0.0,0.0,0.0,0.0,0.0,0.0,0.0,0.0,0.0,0.0,0.0,0.0,0.0,0.0,0.0,0.0,0.0,0.0,0.0,0.0,0.0,0.0,0.0,0.0,0.0,0.0,0.0,0.0,0.0,0.0,0.0,0.0,0.0,0.0,0.0,0.0,0.0,0.0,0.0,0.0,0.0,-3.1498,-3.1731,-3.1139,0.0,0.0,0.0,0.0,-3.113,-3.1627,0.0,0.0,0.0,0.0,0.0,0.0,0.0,0.0,0.0,0.0,0.0,0.0,0.0,0.0,0.0,0.0,0.0,0.0,0.0,0.0,0.0,0.0,0.0,0.0,0.0,0.0,0.0,0.0,0.0,0.0,0.0,0.0,0.0,0.0,0.0,0.0,0.0,0.0,0.0,0.0,0.0,0.0,0.0,0.0,0.0,0.0,0.0,0.0,0.0,0.0,0.0,0.0,0.0,0.0,0.0,0.0,-2.9512,-3.1289,-3.3203,-3.5293,-3.584,-3.6034,-3.585,-3.4659,-3.3085,0.0,0.0,0.0,0.0,0.0,0.0,0.0,0.0,0.0,0.0,0.0,0.0,0.0,0.0,0.0,0.0,0.0,0.0,0.0,0.0,0.0,0.0,0.0,0.0,0.0,0.0,0.0,0.0,0.0,0.0,0.0,0.0,0.0,0.0,0.0,0.0,0.0,0.0,0.0,0.0,0.0,-3.2564,-3.3245,-3.2358,-3.1628,0.0,0.0,-3.1156,-3.1653,-3.2358,0.0,0.0,0.0,0.0,0.0,0.0,0.0,0.0,0.0,0.0,0.0,0.0,0.0,0.0,0.0,0.0,0.0,0.0,0.0,0.0,0.0,0.0,0.0,0.0,0.0,0.0,0.0,0.0,0.0,0.0,0.0,0.0,0.0,0.0,0.0,0.0,0.0,0.0,0.0,0.0,0.0,0.0,0.0,0.0,0.0,0.0,0.0,0.0,0.0,0.0,0.0,0.0,0.0,0.0,0.0,-2.6875,-2.916,-3.0918,-3.2598,-3.4219,-3.5054,-3.5337,-3.5051,-3.4289,-3.3038,0.0,0.0,0.0,0.0,0.0,0.0,0.0,0.0,0.0,0.0,0.0,0.0,0.0,0.0,0.0,0.0,0.0,0.0,0.0,0.0,0.0,0.0,0.0,0.0,0.0,0.0,0.0,0.0,0.0,0.0,0.0,0.0,0.0,0.0,0.0,0.0,0.0,0.0,0.0,0.0,0.0,0.0,-3.4091,-3.3513,0.0,0.0,0.0,-3.2777,-3.3093,0.0,0.0,0.0,0.0,0.0,0.0,0.0,0.0,0.0,0.0,0.0,0.0,0.0,0.0,0.0,0.0,0.0,0.0,0.0,0.0,0.0,0.0,0.0,0.0,0.0,0.0,0.0,0.0,0.0,0.0,0.0,0.0,0.0,0.0,0.0,0.0,0.0,0.0,0.0,0.0,0.0,0.0,0.0,0.0,0.0,0.0,0.0,0.0,0.0,0.0,0.0,0.0,0.0,0.0,0.0,0.0,0.0,-2.9124,-3.0856,-3.2371,-3.3631,-3.4903,-3.518,-3.4797,-3.431,0.0,0.0,0.0,0.0,0.0,0.0,0.0,0.0,0.0,0.0,0.0,0.0,0.0,0.0,0.0,0.0,0.0,0.0,0.0,0.0,0.0,0.0,0.0,0.0,0.0,0.0,0.0,-2.6364,0.0,0.0,0.0,0.0,0.0,0.0,0.0,0.0,0.0,0.0,0.0,0.0,0.0,0.0,-3.3622,-3.503,-3.4656,-3.4311,0.0,0.0,-3.4339,-3.45,-3.4473,-3.4231,0.0,0.0,0.0,0.0,0.0,0.0,0.0,0.0,0.0,0.0,0.0,0.0,0.0,0.0,0.0,0.0,0.0,0.0,0.0,0.0,0.0,0.0,0.0,0.0,0.0,0.0,0.0,0.0,0.0,0.0,0.0,0.0,0.0,0.0,0.0,0.0,0.0,0.0,0.0,0.0,0.0,0.0,0.0,0.0,0.0,0.0,0.0,0.0,0.0,0.0,0.0,0.0,0.0,0.0,0.0,-2.9667,-3.1431,-3.2955,-3.4258,-3.5544,-3.5947,-3.5665,-3.5253,-3.3967,0.0,0.0,0.0,0.0,0.0,0.0,0.0,0.0,0.0,0.0,0.0,0.0,0.0,0.0,0.0,0.0,0.0,0.0,0.0,0.0,0.0,0.0,0.0,0.0,0.0,0.0,0.0,0.0,0.0,0.0,0.0,0.0,0.0,0.0,0.0,0.0,0.0,0.0,0.0,0.0,0.0,-3.4229,-3.5977,-3.5708,-3.5438,0.0,0.0,-3.5332,-3.5332,-3.5194,-3.478,-3.4,0.0,0.0,0.0,0.0,0.0,0.0,0.0,0.0,0.0,0.0,0.0,0.0,0.0,0.0,0.0,0.0,0.0,0.0,0.0,0.0,0.0,0.0,0.0,0.0,0.0,0.0,0.0,0.0,0.0,0.0,0.0,0.0,0.0,0.0,0.0,0.0,0.0,0.0,0.0,0.0,0.0,0.0,0.0,0.0,0.0,0.0,0.0,0.0,0.0,0.0,0.0,0.0,0.0,-2.7598,-2.937,-3.1277,-3.2854,-3.4386,-3.5022,-3.5649,-3.6124,-3.542,-3.4313,0.0,0.0,0.0,0.0,0.0,0.0,0.0,0.0,0.0,0.0,0.0,0.0,0.0,0.0,0.0,0.0,0.0,0.0,0.0,0.0,0.0,0.0,0.0,0.0,0.0,0.0,0.0,0.0,-2.794,-2.8185,-2.7908,0.0,0.0,0.0,0.0,0.0,0.0,0.0,0.0,0.0,0.0,-3.4871,-3.6328,-3.6248,0.0,0.0,-3.6168,-3.6004,-3.6191,-3.5931,-3.5475,-3.491,-3.4618,0.0,0.0,0.0,0.0,0.0,0.0,0.0,0.0,0.0,0.0,0.0,0.0,0.0,0.0,0.0,0.0,0.0,0.0,0.0,0.0,0.0,0.0,0.0,0.0,0.0,0.0,0.0,0.0,0.0,0.0,0.0,0.0,0.0,0.0,0.0,0.0,0.0,0.0,0.0,0.0,0.0,0.0,0.0,0.0,0.0,0.0,0.0,0.0,0.0,0.0,0.0,0.0,-2.8181,-2.9887,-3.1587,-3.3283,-3.4859,-3.5263,-3.5845,-3.6588,-3.5904,-3.4969,0.0,0.0,0.0,0.0,0.0,0.0,0.0,0.0,0.0,0.0,0.0,0.0,0.0,0.0,0.0,0.0,0.0,0.0,0.0,0.0,0.0,0.0,0.0,0.0,0.0,0.0,0.0,0.0,-2.8023,-2.8107,-2.804,0.0,0.0,0.0,0.0,0.0,0.0,0.0,0.0,0.0,0.0,-3.5498,-3.6704,-3.6962,-3.6995,-3.7023,-3.6916,-3.6856,-3.6676,-3.6344,-3.5872,-3.5467,0.0,0.0,0.0,0.0,0.0,0.0,0.0,0.0,0.0,0.0,0.0,0.0,0.0,0.0,0.0,0.0,0.0,0.0,0.0,0.0,0.0,0.0,0.0,0.0,0.0,0.0,0.0,0.0,0.0,0.0,-2.7262,0.0,0.0,0.0,0.0,0.0,0.0,0.0,0.0,0.0,0.0,0.0,0.0,0.0,0.0,0.0,0.0,0.0,0.0,0.0,0.0,0.0,0.0,-2.9418,-3.1483,-3.2899,-3.4339,-3.553,-3.6382,-3.6952,-3.7345,-3.6885,-3.589,-3.4362,0.0,0.0,0.0,0.0,0.0,0.0,0.0,0.0,0.0,0.0,0.0,0.0,0.0,0.0,0.0,0.0,0.0,0.0,0.0,0.0,0.0,0.0,0.0,0.0,0.0,0.0,-2.8363,-2.7885,-2.7616,0.0,0.0,0.0,0.0,0.0,0.0,0.0,0.0,0.0,0.0,-3.4911,-3.6094,-3.7348,-3.8061,-3.8218,-3.7929,-3.8009,-3.777,-3.6807,-3.6314,-3.5827,0.0,0.0,0.0,0.0,0.0,0.0,0.0,0.0,0.0,0.0,0.0,0.0,0.0,0.0,0.0,0.0,0.0,0.0,0.0,0.0,0.0,0.0,0.0,0.0,0.0,0.0,0.0,-2.7703,-2.7827,0.0,0.0,0.0,0.0,0.0,0.0,0.0,0.0,0.0,0.0,0.0,-3.0677,-3.0677,0.0,0.0,0.0,0.0,0.0,0.0,0.0,0.0,0.0,0.0,0.0,0.0,-2.9935,-3.195,-3.3614,-3.5313,-3.7054,-3.7072,-3.7489,-3.8503,-3.7421,-3.5818,-3.3892,0.0,0.0,0.0,0.0,0.0,0.0,0.0,0.0,0.0,0.0,0.0,0.0,0.0,0.0,0.0,0.0,0.0,0.0,0.0,0.0,0.0,0.0,0.0,0.0,0.0,-2.8737,0.0,0.0,0.0,0.0,0.0,0.0,0.0,0.0,0.0,0.0,0.0,-3.3016,-3.4254,-3.5642,-3.6749,-3.7594,-3.8115,-3.8446,0.0,0.0,0.0,0.0,0.0,0.0,0.0,0.0,0.0,0.0,0.0,0.0,0.0,0.0,-3.5753,-3.4981,-3.4651,-3.4233,-3.3335,0.0,0.0,0.0,0.0,0.0,0.0,0.0,0.0,0.0,0.0,0.0,0.0,0.0,0.0,-2.9187,0.0,-2.898,0.0,0.0,0.0,0.0,0.0,0.0,0.0,0.0,-3.0553,-3.1029,-3.1609,-3.1609,-3.1609,0.0,-3.0843,-2.9704,0.0,0.0,0.0,0.0,0.0,0.0,0.0,0.0,-3.085,-3.2938,-3.4481,-3.6145,-3.7976,-3.7738,-3.8035,-3.912,-3.7784,-3.5938,-3.3981,-3.2682,-3.1386,0.0,0.0,0.0,0.0,0.0,0.0,0.0,0.0,0.0,0.0,0.0,0.0,0.0,0.0,0.0,0.0,0.0,0.0,0.0,0.0,0.0,0.0,0.0,-2.9485,0.0,0.0,0.0,0.0,0.0,0.0,0.0,0.0,0.0,-3.1714,-3.2977,-3.4193,-3.5104,-3.6478,-3.7452,-3.7836,0.0,0.0,0.0,0.0,0.0,0.0,0.0,-3.7937,-3.7883,-3.7496,-3.7357,-3.7704,-3.7943,-3.8123,-3.8093,0.0,0.0,-3.6387,-3.5998,-3.5579,-3.4711,-3.4532,-3.4532,-3.4532,-3.504,-3.5639,0.0,0.0,0.0,0.0,0.0,0.0,0.0,0.0,-3.0325,-3.0387,0.0,-2.9829,0.0,0.0,0.0,0.0,0.0,-2.9829,0.0,0.0,-3.1671,-3.2085,-3.2106,-3.2126,-3.2106,-3.2064,-3.1629,-3.0946,-2.9994,-2.8551,0.0,0.0,0.0,0.0,0.0,0.0,-3.2252,-3.4433,-3.558,-3.6836,-3.8372,-3.8421,-3.8712,-3.9158,-3.7966,-3.6433,-3.4776,-3.3646,-3.234,-3.0708,-2.9051,0.0,0.0,0.0,0.0,0.0,0.0,0.0,0.0,0.0,0.0,0.0,0.0,0.0,0.0,0.0,0.0,0.0,0.0,0.0,0.0,-2.9992,0.0,0.0,0.0,0.0,0.0,0.0,0.0,0.0,0.0,0.0,-3.2976,-3.4103,-3.5333,-3.6149,0.0,0.0,0.0,0.0,-3.9017,-3.887,-3.8767,-3.8663,-3.8216,-3.8169,-3.8031,-3.7545,0.0,0.0,-3.8302,-3.896,-3.9379,-3.9409,-3.9349,-3.899,-3.7704,-3.6985,-3.6567,-3.6477,-3.6417,-3.6507,-3.6537,-3.6866,-3.7345,-3.3223,0.0,0.0,0.0,0.0,-3.1973,-3.2395,-3.3058,-3.2602,-3.2478,-3.2561,-3.165,0.0,0.0,0.0,0.0,0.0,0.0,-3.1567,-3.2602,-3.2871,-3.3161,-3.3472,-3.3492,-3.3306,-3.2975,-3.2561,-3.2155,-3.1751,-3.0895,-2.9806,-2.87,0.0,0.0,0.0,0.0,-3.3791,-3.5352,-3.6763,-3.805,-3.905,-3.905,-3.8782,-3.8417,-3.804,-3.681,-3.4801,-3.4048,-3.2893,-3.1235,-2.998,0.0,0.0,0.0,0.0,0.0,0.0,0.0,0.0,0.0,0.0,0.0,0.0,0.0,0.0,0.0,0.0,0.0,0.0,0.0,-3.1088,-3.1721,-3.196,0.0,0.0,0.0,0.0,0.0,0.0,0.0,0.0,0.0,-3.4758,-3.5377,-3.6149,0.0,0.0,-3.8322,-3.8322,-3.8919,-3.9265,-3.9265,-3.9265,0.0,0.0,-3.9068,-3.9009,-3.8871,-3.8841,-3.8901,-3.908,-3.929,-3.9439,-3.9439,-3.9439,-3.929,-3.8931,-3.8302,-3.7704,-3.7285,-3.7135,-3.7165,-3.7195,-3.7674,-3.8123,-3.7016,-3.5591,-3.4348,-3.4124,-3.4471,-3.4345,-3.4755,-3.5376,-3.4734,-3.4569,-3.4652,-3.341,-3.2685,-3.2395,-3.1774,0.0,0.0,0.0,-3.2706,-3.3658,-3.3658,-3.3803,-3.4051,-3.4072,-3.3927,-3.3637,-3.3203,-3.2882,-3.2763,-3.2423,-3.1801,-3.0986,0.0,0.0,-3.1972,-3.3434,-3.4945,-3.6504,-3.7612,-3.8633,-3.9465,-3.9265,-3.8817,-3.804,-3.7588,-3.6533,-3.4801,-3.4198,-3.3119,-3.1461,-3.0583,-2.9603,0.0,0.0,0.0,0.0,0.0,0.0,0.0,0.0,0.0,0.0,0.0,-2.5862,-2.6716,0.0,0.0,0.0,-2.9214,-3.0554,-3.2485,-3.2823,0.0,0.0,0.0,0.0,0.0,0.0,0.0,-3.3719,-3.4912,-3.5836,-3.6237,-3.6768,-3.7237,-3.7734,-3.8362,-3.8811,-3.8811,0.0,-3.9439,-3.9439,-3.9439,-3.9439,-3.9439,-3.9439,-3.9439,-3.9439,-3.9439,-3.9439,-3.9439,-3.9439,-3.9439,-3.9439,-3.9439,-3.9439,-3.9439,-3.908,-3.8721,-3.8302,-3.8212,-3.8212,-3.8212,-3.8512,-3.8811,-4.0372,-4.0841,-3.7922,-3.6917,-3.7074,-3.6991,-3.7218,-3.757,-3.6701,-3.6556,-3.6763,-3.5066,-3.4258,-3.4113,-3.3306,0.0,-3.3596,-3.3596,-3.3844,-3.4279,-3.4238,-3.4217,-3.4238,-3.4196,-3.4155,-3.4113,-3.3699,-3.3476,-3.3245,-3.3343,-3.3617,-3.3922,-3.2904,-3.2794,-3.3573,-3.4654,-3.599,-3.7792,-3.834,-3.8966,-3.9672,-3.917,-3.8592,-3.8015,-3.6935,-3.5855,-3.4776,-3.4198,-3.3119,-3.1486,-3.0934,-3.0156,-2.9076,0.0,0.0,0.0,0.0,0.0,0.0,0.0,0.0,0.0,0.0,0.0,0.0,0.0,0.0,0.0,-3.0918,0.0,-3.3589,-3.3581,0.0,0.0,0.0,-3.3508,-3.3508,-3.414,-3.4562,-3.4562,0.0,0.0,-3.7345,-3.8033,-3.8482,-3.8452,-3.902,-3.9439,-3.9439,-3.9409,-3.9439,-3.9439,-3.9439,-3.9439,-3.9439,-3.9439,-3.9439,-3.9439,-3.9439,-3.9439,-3.9439,-3.9439,-3.9439,-3.9439,-3.9439,-3.9439,-3.9439,-3.9379,-3.9409,-3.9349,-3.9379,-3.9379,-3.932,-3.9349,-3.9349,-4.1575,-4.1922,-4.1131,-4.0365,-3.9371,-3.8647,-3.8626,-3.8999,-3.844,-3.8067,-3.7777,-3.666,-3.5769,-3.5086,-3.4879,-3.5024,-3.5459,-3.5459,-3.5707,-3.6121,-3.579,-3.5625,-3.5604,-3.5273,-3.4921,-3.461,-3.4486,-3.4386,-3.4074,-3.4247,-3.4536,-3.4826,-3.5178,-3.5427,-3.5681,-3.6969,-3.789,-3.8264,-3.9016,-3.9572,-3.9672,-3.9145,-3.8592,-3.8015,-3.6935,-3.5855,-3.4776,-3.4198,-3.3119,-3.1486,-3.1286,-3.0708,-2.9628,-2.9051,0.0,0.0,0.0,0.0,0.0,0.0,0.0,0.0,0.0,-2.6866,-2.7846,0.0,-2.8758,0.0,-3.1815,-3.3516,-3.4399,-3.4618,0.0,0.0,-3.5001,-3.4976,-3.4976,-3.516,-3.525,-3.525,-3.6387,-3.7255,-3.7404,-3.8422,-3.917,-3.917,-3.929,-3.9439,-3.9439,-3.9439,-3.9439,-3.9439,-3.9439,-3.9439,-3.9409,-3.9439,-3.9409,-3.9439,-3.9409,-3.9439,-3.9409,-3.9439,-3.9439,-3.9439,-3.9439,-3.9439,-3.9379,-3.9439,-3.9409,-3.9439,-3.9439,-3.9439,-3.9439,-3.9439,-3.9439,-4.2485,-4.2899,-4.2596,-4.2104,-4.1358,-4.0448,-4.0199,-4.0386,-3.9744,-3.933,-3.9019,-3.7922,-3.6908,-3.6059,-3.6039,-3.6183,-3.6411,-3.6432,-3.6556,-3.6784,-3.6535,-3.6308,-3.6101,-3.5852,-3.55,-3.5045,-3.498,-3.4966,-3.4955,-3.5085,-3.5378,-3.5968,-3.6707,-3.7187,-3.7442,-3.8107,-3.8664,-3.9016,-3.9418,-3.9697,-3.9672,-3.8894,-3.8316,-3.799,-3.6458,-3.5353,-3.4726,-3.3696,-3.2591,-3.1461,-3.116,-3.0658,-2.9854,-2.9503,-2.9202,0.0,0.0,0.0,0.0,0.0,0.0,0.0,0.0,0.0,0.0,0.0,-2.9917,-3.1154,-3.2695,-3.3894,-3.4631,-3.503,-3.5294,-3.5489,-3.5489,-3.5489,-3.5489,-3.5489,-3.5489,-3.5489,-3.6387,-3.7105,-3.7375,-3.8302,-3.908,-3.9379,-3.9439,-3.9439,-3.9439,-3.9439,-3.9439,-3.9439,-3.9439,-3.929,-3.902,-3.896,-3.8841,-3.8571,-3.8542,-3.8512,-3.8512,-3.8542,-3.8542,-3.8512,-3.8512,-3.8512,-3.8512,-3.8512,-3.8512,-3.8512,-3.8542,-3.8751,-3.929,-3.9439,-3.9439,-4.331,-4.3573,-4.318,-4.3014,-4.2932,-4.2042,-4.1628,-4.1503,-4.0675,-4.0282,-4.0158,-3.8854,-3.7819,-3.7074,-3.7011,-3.697,-3.697,-3.697,-3.697,-3.697,-3.6929,-3.6639,-3.6204,-3.6142,-3.5873,-3.5418,-3.539,-3.5523,-3.5798,-3.5873,-3.632,-3.7123,-3.7726,-3.8315,-3.8816,-3.8683,-3.8991,-3.9697,-3.9697,-3.9697,-3.9672,-3.8592,-3.799,-3.7914,-3.5881,-3.4726,-3.4675,-3.3169,-3.2039,-3.1411,-3.0959,-3.0432,-2.9829,-2.9779,-2.9553,0.0,-2.8976,0.0,0.0,0.0,0.0,0.0,0.0,0.0,0.0,-3.0237,-3.1347,-3.2632,-3.3409,-3.4128,-3.4698,-3.503,-3.5294,-3.5489,-3.5489,-3.5489,-3.5489,-3.5489,-3.5489,-3.5489,-3.6088,-3.6716,-3.7195,-3.7883,-3.8512,-3.896,-3.905,-3.905,-3.914,-3.917,-3.92,-3.92,-3.917,-3.8811,-3.8392,-3.8272,-3.8093,-3.7554,-3.7494,-3.7404,-3.7494,-3.7464,-3.7434,-3.7434,-3.7494,-3.7464,-3.7404,-3.7434,-3.7434,-3.7494,-3.7524,-3.7853,-3.8751,-3.905,-3.92,-4.3157,-4.3615,-4.3511,-4.3491,-4.3408,-4.2518,-4.1917,-4.1524,-4.0986,-4.0551,-4.0158,-3.9164,-3.8626,-3.844,-3.8088,-3.7922,-3.7922,-3.7922,-3.7922,-3.7922,-3.7529,-3.7115,-3.666,-3.654,-3.6248,-3.5809,-3.6072,-3.6346,-3.6556,-3.6573,-3.6861,-3.7455,-3.8024,-3.8526,-3.8841,0.0,0.0,0.0,-3.9697,-3.9697,-3.9647,-3.8592,-3.799,-3.7965,-3.5881,0.0,-3.4675,-3.3545,-3.2441,-3.1461,-3.1286,0.0,0.0,0.0,0.0,0.0,0.0,0.0,0.0,0.0,0.0,0.0,-2.9505,-2.9834,-2.9986,-3.0944,-3.1955,-3.2846,-3.3756,-3.4467,-3.4802,-3.5228,-3.5454,-3.5489,-3.5489,-3.5489,-3.5489,-3.5489,-3.5489,-3.5519,-3.6088,-3.6537,-3.6686,-3.7225,-3.7644,-3.7823,-3.7793,-3.7793,-3.7823,-3.8272,-3.8362,-3.7913,-3.7883,-3.7793,-3.7614,-3.7584,-3.7554,-3.7404,-3.7404,-3.7375,-3.7345,-3.7345,-3.7375,-3.7345,-3.7404,-3.7375,-3.7375,-3.7404,-3.7315,-3.7375,-3.7375,-3.7494,-3.7734,-3.7793,-3.7943,-4.3462,0.0,-4.3615,-4.3615,0.0,-4.2642,-4.2124,-4.1855,-4.1172,-4.0634,-4.0179,-3.9495,-3.9061,-3.8812,-3.8378,-3.8191,-3.8191,-3.8191,-3.8191,-3.8171,-3.7943,-3.7467,-3.6804,-3.6959,-3.6603,-3.5932,-3.6524,-3.6902,-3.7003,-3.7238,-3.7542,-3.8073,-3.8275,-3.8631,-3.905,-3.949,-3.9697,-3.9697,-3.9697,-3.9546,-3.927,-3.8442,-3.7864,-3.7538,0.0,0.0,0.0,0.0,0.0,0.0,0.0,0.0,0.0,0.0,0.0,-3.0583,-3.0306,-3.0131,-3.0156,-3.0156,-3.0131,-3.0131,-3.0546,-3.0727,-3.0698,-3.1468,-3.2245,-3.3058,-3.3922,-3.4563,-3.4868,-3.5294,-3.5489,-3.5489,-3.5489,-3.5489,-3.5489,-3.5489,-3.5489,-3.5519,-3.5789,-3.6118,-3.6447,-3.6746,-3.7075,-3.7345,-3.7404,-3.7285,-3.7075,-3.7494,-3.7764,-3.7434,-3.7404,-3.7285,-3.7015,-3.6956,-3.6806,-3.6567,-3.6477,-3.6477,-3.6477,-3.6477,-3.6447,-3.6477,-3.6477,-3.6477,-3.6477,-3.6477,-3.6477,-3.6477,-3.6477,-3.6477,-3.6507,-3.6956,-3.7494,-4.3615,-4.3615,-4.3615,-4.3615,-4.3553,-4.2725,-4.2269,-4.2083,0.0,0.0,0.0,-3.9785,-3.933,-3.8957,-3.8419,-3.8191,-3.8191,-3.8191,-3.8191,-3.8171,-3.8109,-3.7612,-3.6954,-3.7106,-3.6876,-3.6199,-3.7011,-3.7495,-3.7714,-3.7904,-3.8315,-3.8712,-3.8707,-3.8834,-3.9387,-3.9594,-3.9697,-3.9697,-3.9697,-3.9471,-3.9019,-3.8366,-3.7789,-3.7337,-3.573,-3.4826,-3.47,-3.3294,-3.2416,-3.2215,-3.1788,-3.1486,-3.1386,-3.1386,-3.1386,-3.1386,-3.1386,-3.1386,-3.1386,-3.1386,-3.1468,-3.1549,-3.1598,-3.1602,-3.14,-3.1836,-3.2489,-3.3297,-3.3991,-3.4534,-3.4868,-3.5264,-3.5489,-3.5489,-3.5489,-3.5489,-3.5489,-3.5489,-3.5489,-3.5489,-3.5519,-3.5699,-3.6207,-3.6297,-3.6507,-3.6926,-3.6956,-3.6896,-3.6507,-3.6716,-3.7015,-3.6956,-3.6896,-3.6836,-3.6477,-3.6297,-3.6088,-3.5699,-3.5579,-3.5489,-3.5489,-3.5489,-3.5489,-3.5609,-3.5489,-3.5549,-3.5519,-3.5579,-3.5489,-3.5489,-3.5489,-3.5489,-3.5579,-3.6327,-3.7045,-4.3615,-4.3615,-4.3615,-4.3615,-4.3573,-4.3056,-4.2373,-4.1628,-4.111,-4.0841,-4.0737,-3.9909,-3.9495,-3.9392,-3.8564,-3.8191,-3.8191,-3.8191,-3.8191,0.0,-3.7777,-3.7452,-3.7189,-3.7171,-3.6955,-3.6832,-3.7517,-3.8096,-3.8625,-3.8688,-3.9005,-3.934,-3.9393,-3.9519,-3.9619,-3.9697,-3.9697,-3.9697,-3.9697,-3.9647,-3.9572,-3.8542,-3.799,-3.7839,-3.6282,-3.5203,-3.4726,-3.4022,-3.3219,-3.229,-3.2139,-3.1888,-3.1411,-3.1411,-3.1386,-3.1386,-3.1386,-3.1386,-3.1386,-3.1386,-3.1574,-3.2005,-3.2143,-3.2046,-3.1601,-3.2055,-3.2704,-3.3466,-3.4117,-3.4534,-3.4868,-3.5294,-3.5489,-3.5489,-3.5489,-3.5489,-3.5489,-3.5489,-3.5489,-3.5489,-3.5489,-3.5519,-3.5669,-3.5669,-3.5729,-3.5789,-3.5968,-3.5789,-3.5759,-3.5699,-3.5789,-3.5759,-3.5759,-3.5729,-3.5729,-3.5639,-3.5639,-3.5519,-3.5489,-3.5489,-3.5489,-3.5489,-3.5489,-3.5489,-3.5489,-3.5489,-3.5489,-3.5489,-3.5489,-3.5489,-3.5489,-3.5489,-3.5489,-3.5759,-3.6028,-4.3615,-4.3615,-4.3615,-4.3615,-4.3553,-4.2849,-4.2042,-4.1193,-4.0965,-4.0882,-4.0779,-3.993,-3.9537,-3.9454,-3.8585,-3.8191,-3.8191,-3.8191,-3.8046,-3.7798,-3.7591,-3.7244,-3.6981,-3.6981,-3.7117,-3.7175,-3.7878,-3.8477,-3.9003,-3.9268,-3.958,-4.0168,-4.0178,-3.991,-3.9747,-3.9697,-3.9697,-3.9697,-3.9697,-3.9546,-3.9245,-3.8442,-3.7864,-3.7563,-3.6257,-3.5429,-3.5177,-3.4349,-3.3671,-3.3144,-3.2842,-3.2566,-3.234,-3.2315,-3.2315,-3.2315,-3.229,-3.229,-3.2315,-3.2458,-3.2498,-3.2572,-3.2927,-3.312,-3.2858,-3.3328,-3.3845,-3.4597,-3.4917,-3.5195,-3.5436,-3.5502,-3.5489,-3.5489,-3.5489,-3.5489,-3.5489,-3.5489,-3.5489,-3.5489,-3.5489,-3.5489,-3.5489,-3.5489,-3.5489,-3.5489,-3.5489,-3.5489,-3.5489,-3.5489,-3.5489,-3.5489,-3.5489,-3.5489,-3.5489,-3.5489,-3.5489,-3.5489,-3.5489,-3.5489,-3.5489,-3.5489,-3.5489,-3.5489,-3.5489,-3.5489,-3.5489,-3.5489,-3.5489,-3.5489,-3.5489,-3.5489,-3.5489,-3.5489,-3.5609,-4.3615,-4.3615,-4.3615,-4.3553,-4.3387,-4.26,-4.1793,-4.1048,-4.0924,-4.082,-4.0634,-3.9889,-3.9537,-3.9454,-3.8585,-3.8191,-3.8191,-3.8191,-3.7943,-3.7508,-3.7384,-3.7165,-3.6813,-3.6894,-3.7133,-3.7539,-3.8118,-3.8738,-3.938,-3.9616,-3.9974,-4.0672,-4.055,-4.0249,-3.9697,-3.9697,-3.9697,-3.9697,-3.9697,-3.9496,-3.9044,-3.8492,-3.7939,-3.7362,-3.6433,-3.5805,-3.5529,-3.4726,-3.4223,-3.4073,-3.3545,-3.3269,-3.3244,-3.3144,-3.3093,-3.3093,-3.3093,-3.3093,-3.3093,-3.324,-3.3233,-3.3136,-3.358,-3.402,-3.4302,-3.4788,-3.518,-3.552,-3.561,-3.5839,-3.6055,-3.6067,-3.5938,-3.5938,-3.5789,-3.5759,-3.5729,-3.5609,-3.5489,-3.5489,-3.5489,-3.5489,-3.5489,-3.5489,-3.5489,-3.5489,-3.5489,-3.5489,-3.5489,-3.5489,-3.5489,-3.5489,-3.5489,-3.5489,-3.5489,-3.5489,-3.5489,-3.5489,-3.5489,-3.5489,-3.5489,-3.5489,-3.5489,-3.5489,-3.5489,-3.5489,-3.5489,-3.5489,-3.5489,-3.5489,-3.5489,-3.5489,-3.5489,-3.5489,-3.5489,-4.3615,-4.3615,-4.3615,-4.3366,-4.2952,-4.2456,-4.1938,-4.1462,-4.1048,-4.0655,-4.0261,-3.9765,-3.9537,-3.9413,-3.8585,-3.8191,-3.8191,-3.8191,-3.7922,-3.7467,-3.7053,-3.698,-3.6958,-3.6699,-3.6954,-3.7758,-3.8261,-3.8834,-3.9755,-4.0059,-4.0254,-4.0452,-4.0483,-4.0275,-3.9772,-3.9697,-3.9697,-3.9697,-3.9697,-3.9672,-3.9597,-3.9069,-3.8517,-3.7965,-3.7337,-3.6558,-3.5655,-3.5361,-3.5152,-3.4675,-3.4123,-3.3822,-3.3771,-3.337,-3.3093,-3.3093,-3.3093,-3.3093,-3.3093,-3.3154,-3.33,-3.3649,-3.4043,-3.468,-3.5412,-3.6077,-3.6228,-3.598,-3.6043,-3.6441,-3.6752,-3.702,-3.7105,-3.7045,-3.6686,-3.6387,-3.6327,-3.5878,-3.5489,-3.5489,-3.5549,-3.5489,-3.5489,-3.5489,-3.5489,-3.5489,-3.5489,-3.5489,-3.5489,-3.5489,-3.5489,-3.5489,-3.5489,-3.5489,-3.5489,-3.5489,-3.5489,-3.5489,-3.5489,-3.5489,-3.5489,-3.5489,-3.5489,-3.5489,-3.5489,-3.5489,-3.5489,-3.5489,-3.5489,-3.5489,-3.5489,-3.5489,-3.5489,-3.5489,-3.5489,-4.3615,-4.3615,-4.3615,-4.3201,-4.2518,-4.2042,-4.1586,-4.1151,-4.0965,-4.0634,-4.0199,-3.9744,-3.9392,-3.9102,-3.846,-3.8191,-3.8171,-3.7902,-3.7529,-3.7074,-3.6618,-3.6541,-3.6597,-3.6529,-3.7032,-3.8118,-3.838,-3.8953,-3.9989,-4.0942,-4.1242,-4.0979,-4.0956,-4.0727,-4.0199,-3.9848,-3.9697,-3.9697,-3.9697,-3.9697,-3.9622,-3.9145,-3.8768,-3.8467,-3.7638,-3.701,-3.6508,-3.5906,-3.5454,-3.5203,-3.4675,-3.4223,-3.3922,-3.3696,-3.342,-3.3119,-3.3093,-3.3093,-3.3093,-3.324,-3.3386,-3.37,-3.4204,-3.4895,-3.5467,-3.6138,-3.6521,-3.6684,-3.688,-3.7126,-3.7411,-3.7466,-3.7404,-3.7375,-3.7165,-3.7015,-3.7015,-3.6477,-3.6088,-3.6058,-3.5729,-3.5489,-3.5489,-3.5489,-3.5489,-3.5489,-3.5489,-3.5489,-3.5489,-3.5489,-3.5489,-3.5489,-3.5489,-3.5489,-3.5489,-3.5489,-3.5489,-3.5489,-3.5489,-3.5489,-3.5489,-3.5489,-3.5489,-3.5489,-3.5489,-3.5489,-3.5489,-3.5489,-3.5489,-3.5489,-3.5489,-3.5489,-3.5489,-3.5489,-3.5489,-4.3615,-4.3594,-4.347,-4.289,-4.2062,-4.171,-4.1296,-4.0882,-4.0758,-4.0448,-4.0013,-3.9558,-3.9102,-3.8667,-3.8316,-3.8191,-3.8129,-3.7715,-3.7239,-3.6784,-3.6328,-3.6248,-3.6321,-3.6423,-3.7154,-3.8261,-3.838,-3.9072,-4.0223,-4.1516,-4.1815,-4.141,-4.128,-4.1053,-4.0526,-3.9973,-3.9697,-3.9697,-3.9697,-3.9697,-3.9647,-3.9295,-3.9019,-3.8818,-3.809,-3.7513,-3.7186,-3.6408,-3.5906,-3.578,-3.5253,-3.4776,-3.4374,-3.4073,-3.3646,-3.3144,-3.3093,-3.3093,-3.3093,-3.324,-3.3411,-3.37,-3.4204,-3.4812,-3.5413,-3.5978,-3.6615,-3.7155,-3.7469,-3.7697,-3.803,-3.7961,-3.7903,-3.7943,-3.7823,-3.7674,-3.7644,-3.7135,-3.6746,-3.6686,-3.6207,-3.5699,-3.5549,-3.5489,-3.5489,-3.5489,-3.5489,-3.5489,-3.5489,-3.5489,-3.5489,-3.5489,-3.5489,-3.5489,-3.5489,-3.5489,-3.5489,-3.5489,-3.5489,-3.5489,-3.5489,-3.5489,-3.5489,-3.5489,-3.5489,-3.5489,-3.5489,-3.5489,-3.5489,-3.5489,-3.5489,-3.5489,-3.5489,-3.5489,-3.5489,-4.3615,-4.3553,-4.3118,-4.2414,-4.1607,-4.1565,-4.1296,-4.08,-4.0448,-4.0013,-3.9537,-3.9102,-3.8647,-3.8253,-3.8212,-3.8191,-3.8129,-3.7674,-3.7218,-3.6784,-3.6308,-3.6227,-3.6444,-3.6423,-3.7154,-3.8261,-3.838,-3.9072,-4.0223,-4.1516,-4.184,-4.1324,-4.133,-4.1078,-4.0576,-4.0023,-3.9697,-3.9697,-3.9697,-3.9697,-3.9697,-3.9647,-3.9371,-3.8969,-3.8793,-3.8241,-3.7362,-3.7136,-3.686,-3.6332,-3.5805,-3.5479,-3.5353,-3.4474,-3.3696,-3.3194,-3.3093,-3.3093,-3.3093,-3.3154,-3.3326,-3.3641,-3.3979,-3.4481,-3.5304,-3.579,-3.6429,-3.7211,-3.7587,-3.8086,-3.8605,-3.875,-3.8924,-3.9068,-3.8691,-3.8392,-3.8332,-3.7764,-3.7404,-3.7285,-3.6776,-3.6178,-3.5609,-3.5489,-3.5489,-3.5489,-3.5489,-3.5489,-3.5489,-3.5489,-3.5489,-3.5489,-3.5489,-3.5489,-3.5489,-3.5489,-3.5489,-3.5489,-3.5489,-3.5489,-3.5489,-3.5489,-3.5489,-3.5489,-3.5489,-3.5489,-3.5489,-3.5489,-3.5489,-3.5489,-3.5489,-3.5489,-3.5489,-3.5489,-3.5489,-4.3428,-4.3097,-4.2373,-4.1855,-4.1545,-4.1255,-4.0882,-4.0468,-4.0303,-3.9806,-3.9164,-3.8916,-3.8605,-3.8191,-3.8191,-3.8191,-3.8109,-3.7405,-3.697,-3.6722,-3.6018,-3.5955,-3.6321,-3.6423,-3.7154,-3.8261,-3.838,-3.9072,-4.0223,-4.1516,-4.2012,-4.1879,-4.1828,-4.158,-4.1053,-4.0501,-4.0049,-3.9722,-3.9697,-3.9697,-3.9697,-3.9697,-3.9597,-3.9396,-3.9044,-3.8668,-3.8266,-3.7588,-3.7086,-3.691,-3.6358,-3.5906,-3.5529,-3.4826,-3.4173,-3.3696,-3.3596,-3.3445,-3.3144,-3.3093,-3.324,-3.3615,-3.3894,-3.4397,-3.5168,-3.571,-3.635,-3.6978,-3.7443,-3.7976,-3.8649,-3.8943,-3.9162,-3.9307,-3.92,-3.902,-3.8931,-3.8452,-3.8033,-3.7883,-3.7165,-3.6387,-3.6148,-3.5789,-3.5519,-3.5489,-3.5489,-3.5489,-3.5489,-3.5489,-3.5489,-3.5489,-3.5489,-3.5489,-3.5489,-3.5489,-3.5489,-3.5489,-3.5489,-3.5489,-3.5489,-3.5489,-3.5489,-3.5489,-3.5489,-3.5489,-3.5489,-3.5489,-3.5489,-3.5489,-3.5489,-3.5489,-3.5489,-3.5489,-3.5489,-4.2911,-4.2435,-4.1814,-4.14,-4.111,-4.08,-4.0406,-4.0013,-3.9847,-3.9433,-3.8895,-3.8709,-3.846,-3.8212,-3.8191,-3.8191,-3.8088,-3.7239,-3.6804,-3.6722,-3.5852,-3.5809,-3.63,-3.6423,-3.7154,-3.8261,-3.8857,-3.9426,-4.0223,-4.1516,-4.211,-4.2061,-4.2213,-4.1982,-4.1555,-4.0877,-4.0325,-3.9998,-3.9772,-3.9697,-3.9697,-3.9697,-3.9697,-3.9647,-3.932,-3.9044,-3.8868,-3.7939,-3.7362,-3.7136,-3.6659,-3.6107,-3.5579,-3.5203,-3.4751,-3.4248,-3.3997,-3.3746,-3.337,-3.3194,-3.3215,-3.3641,-3.3894,-3.423,-3.5003,-3.5629,-3.6191,-3.6822,-3.7366,-3.7901,-3.8575,-3.8943,-3.909,-3.9337,-3.9439,-3.9439,-3.9409,-3.902,-3.8631,-3.8302,-3.7704,-3.7105,-3.6746,-3.6207,-3.5908,-3.5818,-3.5669,-3.5489,-3.5489,-3.5489,-3.5489,-3.5489,-3.5489,-3.5489,-3.5489,-3.5489,-3.5489,-3.5489,-3.5489,-3.5489,-3.5489,-3.5489,-3.5489,-3.5489,-3.5489,-3.5489,-3.5489,-3.5489,-3.5489,-3.5489,-3.5489,-3.5489,-3.5489,-3.5489,-3.5489,-4.2021,-4.1648,-4.1545,-4.1027,-4.0386,-4.0261,-3.9972,-3.9516,-3.9102,-3.8916,-3.8709,-3.8398,-3.8233,-3.8191,-3.8191,-3.8191,-3.8026,-3.7218,-3.6804,-3.6722,-3.5852,-3.5788,-3.6423,-3.6423,-3.7154,-3.838,-3.9544,-4.0106,-4.0223,-4.1402,-4.211,-4.2125,-4.2152,-4.2183,-4.2133,-4.1128,-4.0551,-4.035,-3.9948,-3.9697,-3.9697,-3.9697,-3.9697,-3.9697,-3.9647,-3.9396,-3.8944,-3.8341,-3.7789,-3.7236,-3.6709,-3.6132,-3.5705,-3.5554,-3.5303,-3.4776,-3.4248,-3.3972,-3.3822,-3.342,-3.3316,-3.3641,-3.3725,-3.4147,-3.5003,-3.5467,-3.6111,-3.69,-3.7366,-3.7901,-3.8649,-3.8797,-3.8943,-3.9337,-3.9439,-3.9439,-3.9409,-3.9409,-3.917,-3.8601,-3.8272,-3.8063,-3.7494,-3.6866,-3.6477,-3.6297,-3.5968,-3.5579,-3.5519,-3.5489,-3.5489,-3.5489,-3.5489,-3.5489,-3.5489,-3.5489,-3.5489,-3.5489,-3.5489,-3.5489,-3.5489,-3.5489,-3.5489,-3.5489,-3.5489,-3.5489,-3.5489,-3.5489,-3.5489,-3.5489,-3.5489,-3.5489,-3.5489,-3.5489,-3.5489,-4.169,-4.1483,-4.0903,-4.051,-4.0199,-3.9889,-3.9495,-3.9081,-3.8895,-3.8688,-3.8398,-3.8253,-3.8191,-3.8191,-3.8191,-3.8191,-3.8109,-3.726,-3.6804,-3.6639,-3.6102,-3.5932,-3.6423,-3.6667,-3.7275,-3.8477,-3.9638,-4.0223,-4.0455,-4.1516,-4.211,-4.2174,-4.2476,-4.2509,-4.2158,-4.143,-4.0927,-4.0501,-3.9973,-3.9697,-3.9697,-3.9697,-3.9697,-3.9697,-3.9697,-3.9597,-3.9421,-3.8894,-3.8341,-3.7764,-3.7211,-3.6684,-3.6232,-3.6107,-3.5855,-3.5353,-3.5152,-3.465,-3.3972,-3.3746,-3.3619,-3.3658,-3.3725,-3.4147,-3.5003,-3.5467,-3.6111,-3.69,-3.7394,-3.7901,-3.8575,-3.8767,-3.8943,-3.9337,-3.9439,-3.9439,-3.9439,-3.9439,-3.9349,-3.911,-3.8691,-3.8302,-3.8033,-3.7524,-3.6985,-3.6626,-3.6327,-3.6088,-3.5639,-3.5579,-3.5489,-3.5489,-3.5489,-3.5489,-3.5489,-3.5489,-3.5489,-3.5489,-3.5489,-3.5489,-3.5489,-3.5489,-3.5489,-3.5489,-3.5489,-3.5489,-3.5489,-3.5489,-3.5489,-3.5489,-3.5489,-3.5489,-3.5489,-3.5489,-3.5489,-4.1214,-4.1007,-4.0468,-4.0013,-3.9702,-3.9392,-3.9019,-3.8647,-3.8605,-3.844,-3.8212,-3.8191,-3.8191,-3.8191,-3.8191,-3.8191,-3.8088,-3.7218,-3.6933,-3.6787,-3.6227,-3.6055,-3.6545,-3.7175,-3.7878,-3.8716,-3.9755,-4.0339,-4.0595,-4.1516,-4.211,-4.2312,-4.2762,-4.2836,-4.2409,-4.1706,-4.1128,-4.0777,-4.0099,-3.9697,-3.9697,-3.9697,-3.9697,-3.9697,-3.9697,-3.9697,-3.9672,-3.9346,-3.8919,-3.8316,-3.7613,-3.6935,-3.6433,-3.6332,-3.6207,-3.5906,-3.5604,-3.5203,-3.4575,-3.4148,-3.3947,-3.3999,-3.3854,-3.4147,-3.4895,-3.5467,-3.6111,-3.69,-3.7394,-3.7929,-3.8649,-3.8767,-3.8943,-3.9337,-3.9439,-3.9439,-3.9439,-3.9439,-3.9409,-3.929,-3.905,-3.8841,-3.8661,-3.8182,-3.7674,-3.7255,-3.6985,-3.6596,-3.6088,-3.5878,-3.5789,-3.5639,-3.5489,-3.5489,-3.5489,-3.5489,-3.5489,-3.5489,-3.5489,-3.5489,-3.5489,-3.5489,-3.5489,-3.5489,-3.5489,-3.5489,-3.5489,-3.5489,-3.5489,-3.5489,-3.5489,-3.5489,-3.5489,-3.5489,-3.5489,-4.0613,-4.0241,-4.0158,-3.964,-3.8957,-3.8854,-3.8605,-3.8253,-3.8212,-3.8212,-3.8191,-3.8191,-3.8191,-3.8191,-3.8191,-3.8191,-3.8026,-3.7218,-3.6933,-3.6938,-3.6415,-3.6178,-3.6789,-3.778,-3.8477,-3.919,-3.9873,-4.0479,-4.1057,-4.1745,-4.2199,-4.2538,-4.2762,-4.2986,-4.2735,-4.1907,-4.1404,-4.1153,-4.03,-3.9798,-3.9722,-3.9697,-3.9697,-3.9697,-3.9697,-3.9697,-3.9697,-3.9622,-3.9371,-3.8768,-3.7713,-3.6935,-3.6483,-3.6358,-3.6358,-3.6282,-3.5855,-3.5629,-3.5328,-3.4675,-3.4199,-3.4433,-3.411,-3.4063,-3.503,-3.5494,-3.6031,-3.69,-3.7366,-3.7901,-3.8575,-3.8767,-3.9017,-3.9337,-3.9439,-3.9439,-3.9439,-3.9439,-3.9439,-3.9439,-3.9409,-3.9409,-3.932,-3.8781,-3.8482,-3.8182,-3.7764,-3.7225,-3.6686,-3.6387,-3.6148,-3.5908,-3.5699,-3.5489,-3.5489,-3.5489,-3.5489,-3.5489,-3.5489,-3.5489,-3.5489,-3.5489,-3.5489,-3.5489,-3.5489,-3.5489,-3.5489,-3.5489,-3.5489,-3.5489,-3.5489,-3.5489,-3.5489,-3.5489,-3.5489,-4.0344,-4.0158,-3.9495,-3.9061,-3.8812,-3.8502,-3.8316,-3.8191,-3.8191,-3.8191,-3.8191,-3.8191,-3.8171,-3.8191,-3.8171,-3.8191,-3.7902,-3.7198,-3.6933,-3.717,-3.66,-3.681,-3.7396,-3.8141,-3.8716,-3.9308,-3.9989,-4.0595,-4.1172,-4.1859,-4.2199,-4.2513,-4.2849,-4.2986,-4.2861,-4.2258,-4.1731,-4.1329,-4.0676,-4.0074,-3.9747,-3.9697,-3.9697,-3.9697,-3.9697,-3.9697,-3.9697,-3.9697,-3.9195,-3.8266,-3.7588,-3.6935,-3.6458,-3.6383,-3.6358,-3.6332,-3.6232,-3.5956,-3.5579,-3.5253,-3.4931,-3.4612,-3.4581,-3.4614,-3.503,-3.5494,-3.6111,-3.6822,-3.7366,-3.7901,-3.8575,-3.8797,-3.9017,-3.9337,-3.9439,-3.9439,-3.9439,-3.9439,-3.9439,-3.9439,-3.9439,-3.9439,-3.9379,-3.923,-3.8931,-3.8542,-3.8242,-3.7913,-3.7345,-3.6866,-3.6596,-3.6237,-3.5938,-3.5669,-3.5489,-3.5489,-3.5489,-3.5489,-3.5489,-3.5489,-3.5489,-3.5489,-3.5489,-3.5489,-3.5489,-3.5489,-3.5489,-3.5489,-3.5489,-3.5489,-3.5489,-3.5489,-3.5489,-3.5489,-3.5489,-3.9992,-3.9599,-3.9081,-3.873,-3.8543,-3.8295,-3.8191,-3.8191,-3.8191,-3.8191,-3.8191,-3.8191,-3.8067,-3.7902,-3.7902,-3.7777,-3.7529,-3.6974,-3.7022,-3.7488,-3.7649,-3.7811,-3.8252,-3.8596,-3.9072,-3.9661,-4.0363,-4.0942,-4.1516,-4.2086,-4.2425,-4.2737,-4.2874,-4.2986,-4.2936,-4.2434,-4.1907,-4.1329,-4.0802,-4.0249,-3.9747,-3.9697,-3.9697,-3.9697,-3.9697,-3.9697,-3.9697,-3.9697,-3.927,-3.8467,-3.7839,-3.7287,-3.6759,-3.6483,-3.6383,-3.6358,-3.6358,-3.6182,-3.5931,-3.5772,-3.5618,-3.5391,-3.5311,-3.5365,-3.5508,-3.5926,-3.6521,-3.6957,-3.7394,-3.7976,-3.8649,-3.8943,-3.9162,-3.9337,-3.9439,-3.9439,-3.9439,-3.9439,-3.9439,-3.9439,-3.9439,-3.9439,-3.9439,-3.9439,-3.923,-3.896,-3.8901,-3.8452,-3.7943,-3.7494,-3.7015,-3.6656,-3.6237,-3.5938,-3.5609,-3.5549,-3.5489,-3.5489,-3.5489,-3.5489,-3.5489,-3.5489,-3.5489,-3.5489,-3.5489,-3.5489,-3.5489,-3.5489,-3.5489,-3.5489,-3.5489,-3.5489,-3.5489,-3.5489,-3.5489,-3.9599,-3.8854,-3.8812,-3.8543,-3.8233,-3.8191,-3.8191,-3.8191,-3.8191,-3.815,-3.8088,-3.8088,-3.7798,-3.7425,-3.7425,-3.7218,-3.6954,-3.6813,-3.7192,-3.7824,-3.851,-3.8987,-3.898,-3.9294,-3.9798,-4.0294,-4.0922,-4.1474,-4.2021,-4.2312,-4.265,-4.2874,-4.2986,-4.2986,-4.2911,-4.2509,-4.1982,-4.148,-4.0978,-4.0425,-3.9948,-3.9772,-3.9697,-3.9697,-3.9697,-3.9697,-3.9697,-3.9672,-3.9446,-3.8994,-3.8391,-3.7789,-3.7236,-3.6684,-3.6433,-3.6383,-3.6358,-3.6332,-3.6377,-3.6067,-3.604,-3.6109,-3.6171,-3.6166,-3.6178,-3.6495,-3.6904,-3.7153,-3.7423,-3.7976,-3.8649,-3.9192,-3.9337,-3.9439,-3.9439,-3.9439,-3.9439,-3.9439,-3.9439,-3.9439,-3.9439,-3.9439,-3.9439,-3.9439,-3.9409,-3.92,-3.917,-3.896,-3.8542,-3.8153,-3.7614,-3.7105,-3.6656,-3.6237,-3.5908,-3.5579,-3.5519,-3.5489,-3.5489,-3.5489,-3.5489,-3.5489,-3.5489,-3.5489,-3.5489,-3.5489,-3.5489,-3.5489,-3.5489,-3.5489,-3.5489,-3.5489,-3.5489,-3.5489,-3.5489,-3.9427,-3.9218,-3.8595,-3.8274,-3.8191,-3.8191,-3.8191,-3.8171,-3.8171,-3.7964,-3.7695,-3.7653,-3.7363,-3.6949,-3.6949,-3.7016,-3.7085,-3.6813,-3.7064,-3.8102,-3.8741,-3.9656,-4.0099,-4.0387,-4.0565,-4.1023,-4.154,-4.1929,-4.2209,-4.2425,-4.2625,-4.2986,-4.2986,-4.2986,-4.2936,-4.2836,-4.2534,-4.1982,-4.143,-4.0852,-4.03,-3.9873,-3.9697,-3.9697,-3.9697,-3.9697,-3.9697,-3.9697,-3.9622,-3.9421,-3.8969,-3.8266,-3.7487,-3.7086,-3.681,-3.6483,-3.6383,-3.6358,-3.6427,-3.6463,-3.6447,-3.6339,-3.6727,-3.6744,-3.6684,-3.682,-3.7207,-3.7517,-3.7678,-3.7987,-3.8723,-3.9192,-3.9337,-3.9439,-3.9439,-3.9439,-3.9439,-3.9439,-3.9439,-3.9439,-3.9439,-3.9439,-3.9439,-3.9439,-3.9439,-3.9439,-3.9379,-3.9349,-3.905,-3.8721,-3.8212,-3.7614,-3.7015,-3.6567,-3.6148,-3.5789,-3.5519,-3.5489,-3.5489,-3.5489,-3.5489,-3.5489,-3.5489,-3.5489,-3.5489,-3.5489,-3.5489,-3.5489,-3.5489,-3.5489,-3.5489,-3.5489,-3.5489,-3.5489,-3.5489,-3.9538,-3.9305,-3.8807,-3.857,-3.8437,-3.8437,-3.8179,-3.7881,-3.786,-3.7612,-3.7239,-3.7177,-3.6908,-3.6494,-3.6601,-3.6771,-3.6834,-3.7167,-3.7622,-3.8552,-3.9321,-4.0205,-4.0709,-4.1242,-4.1516,-4.1543,-4.2083,-4.2372,-4.2436,-4.2538,-4.2874,-4.2986,-4.2986,-4.2986,-4.2986,-4.2986,-4.266,-4.2133,-4.1605,-4.1078,-4.0526,-3.9973,-3.9697,-3.9697,-3.9697,-3.9697,-3.9697,-3.9697,-3.9697,-3.9622,-3.9396,-3.8894,-3.8015,-3.7487,-3.7036,-3.681,-3.6458,-3.6383,-3.6452,-3.6709,-3.6887,-3.6673,-3.7313,-3.7421,-3.7464,-3.7609,-3.7786,-3.7938,-3.799,-3.8246,-3.8782,-3.9192,-3.9337,-3.9439,-3.9439,-3.9439,-3.9439,-3.9439,-3.9439,-3.9439,-3.9439,-3.9439,-3.9439,-3.9439,-3.9439,-3.9439,-3.9439,-3.9379,-3.9379,-3.905,-3.8721,-3.8153,-3.7434,-3.6866,-3.6417,-3.5998,-3.5549,-3.5489,-3.5489,-3.5489,-3.5489,-3.5489,-3.5489,-3.5489,-3.5489,-3.5489,-3.5489,-3.5489,-3.5489,-3.5489,-3.5489,-3.5489,-3.5489,-3.5489,-3.5489,-3.9704,-3.921,-3.921,-3.9078,-3.8814,-3.8729,-3.8214,-3.766,-3.7556,-3.7265,-3.6763,-3.6701,-3.6432,-3.6206,-3.6394,-3.6268,-3.6635,-3.74,-3.8187,-3.902,-3.9901,-4.0617,-4.1242,-4.1872,-4.2233,-4.2248,-4.2549,-4.2717,-4.2662,-4.2849,-4.2986,-4.2986,-4.2986,-4.2986,-4.2986,-4.2961,-4.2785,-4.2333,-4.1831,-4.1279,-4.0727,-4.0174,-3.9873,-3.9697,-3.9697,-3.9697,-3.9697,-3.9697,-3.9697,-3.9697,-3.9697,-3.9446,-3.8894,-3.809,-3.7287,-3.7236,-3.6759,-3.6628,-3.6572,-3.6828,-3.7108,-3.7201,-3.8031,-3.8272,-3.814,-3.8428,-3.8588,-3.8552,-3.8603,-3.8822,-3.8958,-3.9222,-3.9367,-3.9439,-3.9439,-3.9439,-3.9439,-3.9439,-3.9439,-3.9439,-3.9439,-3.9439,-3.9439,-3.9439,-3.9439,-3.9439,-3.9439,-3.9439,-3.9439,-3.9349,-3.902,-3.8542,-3.7823,-3.6746,-3.6178,-3.5968,-3.5549,-3.5489,-3.5489,-3.5489,-3.5489,-3.5489,-3.5489,-3.5489,-3.5489,-3.5489,-3.5489,-3.5489,-3.5489,-3.5489,-3.5489,-3.5489,-3.5489,-3.5489,-3.5489,-3.9952,-3.9625,-3.9363,-3.921,-3.9014,-3.8675,-3.8312,-3.7926,-3.744,-3.6915,-3.6266,-3.6225,-3.6102,-3.6039,-3.5934,-3.6465,-3.7054,-3.7791,-3.8596,-3.959,-4.0158,-4.0681,-4.1707,-4.2162,-4.2587,-4.2812,-4.2848,-4.2782,-4.2637,-4.2849,-4.2986,-4.2986,-4.2986,-4.2986,-4.2986,-4.2986,-4.2936,-4.2685,-4.2208,-4.1656,-4.1128,-4.0526,-4.0049,-3.9747,-3.9697,-3.9697,-3.9697,-3.9697,-3.9697,-3.9697,-3.9697,-3.9647,-3.9421,-3.8868,-3.814,-3.7412,-3.7182,-3.6905,-3.6716,-3.6922,-3.7201,-3.7505,-3.8148,-3.8602,-3.8515,-3.8809,-3.9171,-3.9391,-3.9427,-3.9618,-3.9652,-3.9579,-3.9397,-3.9439,-3.9439,-3.9439,-3.9439,-3.9439,-3.9439,-3.9439,-3.9439,-3.9439,-3.9439,-3.9439,-3.9439,-3.9439,-3.9439,-3.9439,-3.9439,-3.9439,-3.932,-3.8781,-3.8153,-3.6956,-3.5848,-3.5699,-3.5489,-3.5489,-3.5489,-3.5489,-3.5489,-3.5489,-3.5489,-3.5489,-3.5489,-3.5489,-3.5489,-3.5489,-3.5489,-3.5489,-3.5489,-3.5489,-3.5489,-3.5489,-3.5554,-4.0669,-4.0236,-3.9866,-3.939,-3.9044,-3.8616,-3.7997,-3.753,-3.7298,-3.6834,-3.6373,-3.6247,-3.6265,-3.622,-3.6423,-3.6911,-3.7637,-3.8358,-3.8971,-3.9652,-4.0174,-4.0834,-4.1731,-4.2059,-4.2379,-4.2643,-4.2683,-4.2722,-4.2787,-4.2849,-4.2986,-4.2986,-4.2986,-4.2986,-4.2986,-4.2986,-4.2986,-4.2861,-4.2434,-4.1882,-4.1304,-4.0576,-3.9973,-3.9798,-3.9697,-3.9697,-3.9697,-3.9697,-3.9697,-3.9697,-3.9697,-3.9697,-3.9622,-3.9371,-3.8793,-3.7814,-3.7459,-3.7152,-3.6861,-3.7015,-3.7413,-3.7505,-3.8148,-3.8602,-3.8881,-3.9284,-3.9758,-4.0035,-4.0242,-4.0153,-3.9799,-3.9876,-3.9725,-3.9499,-3.9439,-3.9439,-3.9439,-3.9439,-3.9439,-3.9439,-3.9439,-3.9439,-3.9439,-3.9439,-3.9439,-3.9439,-3.9439,-3.9439,-3.9439,-3.9439,-3.9409,-3.8781,-3.8093,-3.6985,-3.5878,-3.5579,-3.5489,-3.5489,-3.5489,-3.5489,-3.5489,-3.5489,-3.5489,-3.5489,-3.5489,-3.5489,-3.5489,-3.5489,-3.5489,-3.5489,-3.5489,-3.5489,-3.5489,-3.5489,-3.5589,-4.1091,-4.0701,-4.0218,-3.966,-3.9063,-3.8503,-3.7989,-3.7292,-3.7164,-3.6806,-3.6465,-3.6444,-3.6444,-3.6545,-3.6911,-3.7517,-3.8238,-3.8953,-3.9331,-3.9825,-4.0433,-4.099,-4.1311,-4.1606,-4.2135,-4.2549,-4.2725,-4.2737,-4.2874,-4.2986,-4.2986,-4.2986,-4.2986,-4.2986,-4.2986,-4.2986,-4.2986,-4.2836,-4.2585,-4.2032,-4.1254,-4.0425,-3.9772,-3.9697,-3.9697,-3.9697,-3.9697,-3.9697,-3.9697,-3.9697,-3.9697,-3.9697,-3.9697,-3.98,-3.9297,-3.8416,-3.7982,-3.7495,-3.7347,-3.7227,-3.7505,-3.7782,-3.8239,-3.8666,-3.9203,-3.9711,-4.0349,-4.0596,-4.0829,-4.0761,-4.0364,-4.0234,-3.9994,-3.9619,-3.9439,-3.9439,-3.9439,-3.9439,-3.9439,-3.9439,-3.9439,-3.9439,-3.9439,-3.9439,-3.9439,-3.9439,-3.9439,-3.9439,-3.9439,-3.9439,-3.926,-3.8661,-3.7913,-3.6896,-3.6058,-3.5579,-3.5489,-3.5489,-3.5489,-3.5489,-3.5489,-3.5489,-3.5489,-3.5489,-3.5489,-3.5489,-3.5489,-3.5489,-3.5489,-3.5489,-3.5489,-3.5489,-3.5489,-3.5554,-3.5653,-4.1024,-4.0265,-3.9949,-3.9655,-3.9192,-3.8773,-3.8182,-3.7536,-3.7191,-3.6731,-3.6545,-3.6423,-3.6667,-3.7032,-3.7517,-3.8238,-3.8953,-3.9308,-3.9779,-4.0363,-4.0942,-4.1287,-4.1606,-4.2174,-4.2287,-4.2625,-4.2737,-4.2986,-4.2986,-4.2986,-4.2986,-4.2986,-4.2986,-4.2986,-4.2986,-4.2986,-4.2986,-4.2961,-4.2886,-4.2333,-4.1404,-4.0701,-4.0174,-3.9823,-3.9697,-3.9697,-3.9697,-3.9697,-3.9697,-3.9697,-3.9697,-3.9697,-3.9697,-3.9878,-3.9677,-3.922,-3.8637,-3.8273,-3.8067,-3.7842,-3.7716,-3.7992,-3.8421,-3.8782,-3.938,-4.0229,-4.0944,-4.1532,-4.158,-4.144,-4.0944,-4.0606,-4.0084,-3.9738,-3.9469,-3.9439,-3.9439,-3.9439,-3.9439,-3.9439,-3.9439,-3.9439,-3.9439,-3.9439,-3.9439,-3.9439,-3.9439,-3.9439,-3.9439,-3.9439,-3.911,-3.8512,-3.7913,-3.6956,-3.6207,-3.5729,-3.5489,-3.5489,-3.5489,-3.5489,-3.5489,-3.5489,-3.5489,-3.5489,-3.5489,-3.5489,-3.5489,-3.5489,-3.5489,-3.5489,-3.5489,-3.5489,-3.5489,-3.5619,-3.5718,-4.1485,-4.0755,-4.0258,-3.9778,-3.9321,-3.8774,-3.8331,-3.8045,-3.7604,-3.7396,-3.7275,-3.7275,-3.7396,-3.7758,-3.8358,-3.8834,-3.9285,-3.9779,-4.0363,-4.0942,-4.1287,-4.1606,-4.2061,-4.24,-4.2513,-4.2762,-4.2874,-4.2986,-4.2986,-4.2986,-4.2986,-4.2986,-4.2986,-4.2986,-4.2986,-4.2986,-4.2986,-4.2886,-4.2635,-4.2108,-4.1404,-4.0802,-4.0249,-3.9722,-3.9697,-3.9697,-3.9697,-3.9697,-3.9697,-3.9697,-3.9697,-3.98,-3.9878,-4.0058,-4.0033,-4.0259,-3.9594,-3.9071,-3.8463,-3.822,-3.8187,-3.8175,-3.8485,-3.8962,-3.9793,-4.0659,-4.1367,-4.184,-4.2129,-4.2031,-4.1644,-4.1173,-4.0696,-4.0157,-3.9619,-3.9469,-3.9439,-3.9439,-3.9439,-3.9439,-3.9439,-3.9439,-3.9439,-3.9439,-3.9439,-3.9439,-3.9439,-3.9439,-3.9439,-3.9439,-3.896,-3.8332,-3.7764,-3.7105,-3.6417,-3.5848,-3.5549,-3.5489,-3.5489,-3.5489,-3.5489,-3.5489,-3.5489,-3.5489,-3.5489,-3.5489,-3.5489,-3.5489,-3.5489,-3.5489,-3.5489,-3.5554,-3.5524,-3.5653,-3.5816,-4.1755,-4.1328,-4.0499,-3.9859,-3.9476,-3.8874,-3.8619,-3.85,-3.8141,-3.7998,-3.7998,-3.7998,-3.8261,-3.8619,-3.9072,-3.9426,-3.9779,-4.0479,-4.0942,-4.1287,-4.172,-4.2061,-4.24,-4.2513,-4.2737,-4.2986,-4.2986,-4.2986,-4.2986,-4.2986,-4.2986,-4.2986,-4.2986,-4.2986,-4.2986,-4.2986,-4.2986,-4.2961,-4.2635,-4.2082,-4.1404,-4.0978,-4.0375,-3.9923,-3.9697,-3.9697,-3.9697,-3.9697,-3.9697,-3.9697,-3.98,-3.9878,-4.0083,-4.0262,-4.0465,-4.064,-4.0404,-3.9959,-3.9372,-3.8919,-3.8635,-3.8515,-3.8756,-3.9469,-4.0257,-4.1029,-4.1647,-4.2063,-4.2415,-4.2385,-4.209,-4.1637,-4.1025,-4.0367,-3.9798,-3.9589,-3.9439,-3.9439,-3.9439,-3.9439,-3.9439,-3.9439,-3.9439,-3.9439,-3.9439,-3.9439,-3.9439,-3.9439,-3.9439,-3.9439,-3.899,-3.8392,-3.7764,-3.7195,-3.6567,-3.6028,-3.5729,-3.5489,-3.5489,-3.5489,-3.5489,-3.5489,-3.5489,-3.5489,-3.5489,-3.5489,-3.5489,-3.5489,-3.5489,-3.5489,-3.5554,-3.5589,-3.5623,-3.5752,-3.6006,-4.2046,-4.1981,-4.0782,-4.0083,-3.9825,-3.9426,-3.9072,-3.8812,-3.8477,-3.85,-3.85,-3.838,-3.8716,-3.919,-3.9426,-3.9896,-4.0595,-4.0942,-4.1287,-4.172,-4.2174,-4.24,-4.2625,-4.2762,-4.2986,-4.2986,-4.2986,-4.2986,-4.2986,-4.2986,-4.2986,-4.2986,-4.2986,-4.2986,-4.2986,-4.2986,-4.2986,-4.2986,-4.2836,-4.2308,-4.1681,-4.1204,-4.0752,-3.9948,-3.9722,-3.9697,-3.9697,-3.9697,-3.9697,-3.98,-3.9878,-4.0083,-4.0287,-4.0593,-4.0769,-4.0945,-4.1119,-4.0723,-4.0316,-3.9544,-3.8965,-3.8906,-3.9292,-3.9996,-4.0602,-4.1114,-4.1647,-4.231,-4.2607,-4.2663,-4.2306,-4.1773,-4.1115,-4.0606,-4.0038,-3.9559,-3.9439,-3.9439,-3.9439,-3.9439,-3.9439,-3.9439,-3.9439,-3.9439,-3.9439,-3.9439,-3.9439,-3.9439,-3.9439,-3.9379,-3.908,-3.8571,-3.7913,-3.7285,-3.6626,-3.6178,-3.5848,-3.5579,-3.5489,-3.5489,-3.5489,-3.5489,-3.5489,-3.5489,-3.5489,-3.5489,-3.5489,-3.5554,-3.5554,-3.5554,-3.5619,-3.5718,-3.5943,-3.607,-3.6321,-4.2312,-4.2312,-4.1631,-4.1057,-4.0595,-4.0106,-3.9755,-3.9638,-3.9426,-3.9308,-3.9308,-3.9308,-3.9426,-3.9779,-4.013,-4.0479,-4.0942,-4.1287,-4.172,-4.2061,-4.24,-4.265,-4.2737,-4.2874,-4.2986,-4.2986,-4.2986,-4.2986,-4.2986,-4.2986,-4.2986,-4.2986,-4.2986,-4.2986,-4.2986,-4.2986,-4.2986,-4.2986,-4.2936,-4.2534,-4.2007,-4.1455,-4.0978,-4.03,-3.9798,-3.9722,-3.9697,-3.9697,-3.98,-3.9981,-4.0083,-4.0287,-4.0491,-4.0795,-4.0997,-4.1097,-4.1398,-4.1308,-4.0878,-4.0129,-3.9429,-3.933,-3.9821,-4.0516,-4.0859,-4.1367,-4.1951,-4.2444,-4.2769,-4.2802,-4.2891,-4.2043,-4.1205,-4.0786,-4.0247,-3.9649,-3.9439,-3.9439,-3.9439,-3.9439,-3.9439,-3.9439,-3.9439,-3.9439,-3.9439,-3.9439,-3.9439,-3.9439,-3.9439,-3.9439,-3.917,-3.8871,-3.8242,-3.7644,-3.7015,-3.6477,-3.5968,-3.5699,-3.5489,-3.5489,-3.5489,-3.5489,-3.5489,-3.5489,-3.5489,-3.5554,-3.5589,-3.5589,-3.5653,-3.5653,-3.5782,-3.5973,-3.6163,-3.6476,-3.6693,-4.2625,-4.2625,-4.2312,-4.1972,-4.1402,-4.0826,-4.0479,-4.0455,-4.0106,-3.9873,-3.9873,-3.9873,-4.0106,-4.0455,-4.0711,-4.1081,-4.1402,-4.172,-4.2061,-4.24,-4.2625,-4.2737,-4.2986,-4.2986,-4.2986,-4.2986,-4.2986,-4.2986,-4.2986,-4.2986,-4.2986,-4.2986,-4.2986,-4.2986,-4.2986,-4.2986,-4.2986,-4.2986,-4.2936,-4.271,-4.2158,-4.1605,-4.1078,-4.0475,-3.9973,-3.9722,-3.9697,-3.9775,-3.9878,-4.0083,-4.0287,-4.0567,-4.0795,-4.0997,-4.1198,-4.1398,-4.1571,-4.1459,-4.1232,-4.0494,-4.0026,-3.9932,-4.0253,-4.0801,-4.1198,-4.1702,-4.2117,-4.2607,-4.285,-4.3061,-4.316,-4.2192,-4.1444,-4.1025,-4.0038,-3.9439,-3.9439,-3.9439,-3.9439,-3.9439,-3.9439,-3.9439,-3.9439,-3.9439,-3.9439,-3.9439,-3.9439,-3.9439,-3.9439,-3.9439,-3.9379,-3.908,-3.8691,-3.8063,-3.7494,-3.6836,-3.6178,-3.5669,-3.5489,-3.5489,-3.5489,-3.5489,-3.5489,-3.5489,-3.5554,-3.5589,-3.5653,-3.5752,-3.5816,-3.5816,-3.6037,-3.6289,-3.6538,-3.6846,-3.6997,-4.2986,-4.2986,-4.2625,-4.2312,-4.1972,-4.1402,-4.1172,-4.1057,-4.0571,-4.0339,-4.0339,-4.0339,-4.0595,-4.1057,-4.1311,-4.1541,-4.1972,-4.2312,-4.2538,-4.2625,-4.2737,-4.2961,-4.2986,-4.2986,-4.2986,-4.2986,-4.2986,-4.2986,-4.2986,-4.2986,-4.2986,-4.2986,-4.2986,-4.2986,-4.2986,-4.2986,-4.2986,-4.2986,-4.2986,-4.266,-4.2258,-4.1681,-4.1078,-4.0651,-4.0102,-3.98,-3.9775,-3.9981,-4.0185,-4.0287,-4.0593,-4.0795,-4.0896,-4.1097,-4.1398,-4.1597,-4.1696,-4.1967,-4.2252,-4.1004,-4.065,-4.0714,-4.0824,-4.0972,-4.1367,-4.1785,-4.2281,-4.2769,-4.29,-4.3061,-4.2802,-4.2282,-4.1773,-4.1085,-4.0127,-3.9499,-3.9499,-3.9439,-3.9439,-3.9439,-3.9439,-3.9439,-3.9439,-3.9439,-3.9439,-3.9439,-3.9439,-3.9439,-3.9439,-3.9439,-3.9439,-3.929,-3.896,-3.8272,-3.7644,-3.6985,-3.6387,-3.5818,-3.5489,-3.5489,-3.5489,-3.5489,-3.5489,-3.5519,-3.5619,-3.5623,-3.5816,-3.5943,-3.6133,-3.6321,-3.6414,-3.66,-3.6907,-3.715,-3.7389,-4.2986,-4.2986,-4.2849,-4.2762,-4.265,-4.2086,-4.1769,-4.1769,-4.1516,-4.1402,-4.1516,-4.1516,-4.1516,-4.1769,-4.1859,-4.1972,-4.2312,-4.24,-4.2513,-4.2874,-4.2986,-4.2986,-4.2986,-4.2986,-4.2986,-4.2986,-4.2986,-4.2986,-4.2986,-4.2986,-4.2986,-4.2986,-4.2986,-4.2986,-4.2986,-4.2986,-4.2986,-4.2986,-4.2961,-4.2836,-4.2585,-4.1856,-4.1229,-4.0978,-4.0357,-4.0006,-3.9981,-4.0185,-4.0389,-4.0593,-4.0896,-4.0997,-4.1097,-4.1324,-4.1398,-4.1696,-4.1895,-4.2289,-4.2671,-4.2158,-4.1619,-4.1439,-4.1254,-4.1424,-4.1785,-4.2199,-4.2607,-4.285,-4.309,-4.325,-4.3041,-4.2551,-4.2013,-4.1354,-4.0546,-3.9918,-3.9679,-3.9499,-3.9439,-3.9439,-3.9439,-3.9439,-3.9439,-3.9439,-3.9439,-3.9439,-3.9439,-3.9439,-3.9439,-3.9439,-3.9439,-3.9409,-3.914,-3.8422,-3.7764,-3.7225,-3.6537,-3.5878,-3.5579,-3.5489,-3.5489,-3.5489,-3.5554,-3.5589,-3.5688,-3.5752,-3.6006,-3.6321,-3.6631,-3.6815,-3.6968,-3.7029,-3.721,-3.7449,-3.7716,-4.2585,-4.2409,-4.2409,-4.2409,-4.2374,-4.2276,-4.2224,-4.211,-4.211,-4.211,-4.211,-4.211,-4.211,-4.2199,-4.2199,-4.2425,-4.2625,-4.2625,-4.2737,-4.2986,-4.2986,-4.2986,-4.2986,-4.2986,-4.2986,-4.2986,-4.2986,-4.2986,-4.2986,-4.2986,-4.2986,-4.2986,-4.2986,-4.2986,-4.2986,-4.2986,-4.2986,-4.2986,-4.2961,-4.2961,-4.261,-4.2032,-4.1329,-4.1084,-4.0689,-4.0083,-4.0287,-4.0491,-4.0694,-4.0896,-4.0997,-4.1097,-4.1298,-4.1398,-4.1597,-4.1796,-4.2387,-4.2873,-4.3365,-4.2759,-4.2345,-4.2361,-4.191,-4.1789,-4.2034,-4.2444,-4.2769,-4.301,-4.317,-4.325,-4.324,-4.2701,-4.2162,-4.1504,-4.0846,-4.0187,-3.9679,-3.9499,-3.9439,-3.9439,-3.9439,-3.9439,-3.9439,-3.9439,-3.9439,-3.9439,-3.9439,-3.9439,-3.9439,-3.9439,-3.9439,-3.9409,-3.932,-3.8751,-3.8123,-3.7554,-3.6836,-3.5998,-3.5699,-3.5519,-3.5554,-3.5554,-3.5653,-3.5688,-3.5879,-3.607,-3.6383,-3.6631,-3.6997,-3.7238,-3.7417,-3.7476,-3.7535,-3.7807,-3.8104,-4.1831,-4.1354,-4.1329,-4.1379,-4.1422,-4.2077,-4.2276,-4.2012,-4.2012,-4.1987,-4.2061,-4.2125,-4.2238,-4.2513,-4.2538,-4.265,-4.2849,-4.2986,-4.2961,-4.2986,-4.2986,-4.2986,-4.2986,-4.2986,-4.2986,-4.2986,-4.2986,-4.2986,-4.2986,-4.2986,-4.2986,-4.2986,-4.2986,-4.2986,-4.2986,-4.2986,-4.2986,-4.2986,-4.2986,-4.2986,-4.2846,-4.2041,-4.1645,-4.1322,-4.0847,-4.0492,-4.0491,-4.0795,-4.0896,-4.0997,-4.1198,-4.1298,-4.1398,-4.1597,-4.1796,-4.2289,-4.2873,-4.3546,-4.3948,-4.3153,-4.3041,-4.3083,-4.262,-4.2295,-4.2199,-4.2607,-4.293,-4.309,-4.325,-4.325,-4.324,-4.2761,-4.2282,-4.1624,-4.0965,-4.0337,-3.9738,-3.9499,-3.9439,-3.9439,-3.9439,-3.9439,-3.9439,-3.9439,-3.9439,-3.9439,-3.9439,-3.9439,-3.9439,-3.9439,-3.9439,-3.9439,-3.929,-3.905,-3.8482,-3.7793,-3.7105,-3.6267,-3.5729,-3.5489,-3.5554,-3.5619,-3.5718,-3.5816,-3.607,-3.6321,-3.6693,-3.6997,-3.7298,-3.7535,-3.7956,-3.8147,-3.8243,-3.838,-3.8585,-4.148,-4.1329,-4.1329,-4.1329,-4.1379,-4.1572,-4.1588,-4.1479,-4.1504,-4.1788,-4.2188,-4.2188,-4.2363,-4.2849,-4.2874,-4.2849,-4.2986,-4.2986,-4.2986,-4.2986,-4.2986,-4.2986,-4.2986,-4.2986,-4.2986,-4.2986,-4.2986,-4.2986,-4.2986,-4.2986,-4.2986,-4.2986,-4.2986,-4.2986,-4.2986,-4.2986,-4.2986,-4.3098,-4.3098,-4.3184,-4.2907,-4.2207,-4.1935,-4.1664,-4.1055,-4.0797,-4.0795,-4.0997,-4.1097,-4.1198,-4.1198,-4.1298,-4.1597,-4.1696,-4.1895,-4.2679,-4.3259,-4.3804,-4.4191,-4.4032,-4.371,-4.3748,-4.339,-4.2972,-4.2784,-4.2769,-4.309,-4.317,-4.325,-4.325,-4.3329,-4.3,-4.2521,-4.1983,-4.1324,-4.0696,-4.0068,-3.9589,-3.9529,-3.9439,-3.9439,-3.9439,-3.9439,-3.9439,-3.9439,-3.9439,-3.9439,-3.9439,-3.9439,-3.9439,-3.9439,-3.9439,-3.9349,-3.914,-3.8542,-3.7853,-3.7225,-3.6567,-3.5998,-3.5519,-3.5554,-3.5653,-3.5782,-3.5943,-3.6289,-3.6693,-3.7118,-3.7417,-3.7535,-3.8142,-3.8502,-3.8727,-3.8979,-3.9153,-3.917,-4.0877,-4.0701,-4.0676,-4.0676,-4.0701,-4.0676,-4.0676,-4.0752,-4.1153,-4.1555,-4.1806,-4.1831,-4.2133,-4.2559,-4.2635,-4.2735,-4.2986,-4.2986,-4.2986,-4.2986,-4.2986,-4.2986,-4.2986,-4.2986,-4.2986,-4.2986,-4.2986,-4.2986,-4.2986,-4.2986,-4.2986,-4.2986,-4.2986,-4.3098,-4.3184,-4.3184,-4.3321,-4.3321,-4.3321,-4.3406,-4.2975,-4.2449,-4.223,-4.2031,-4.144,-4.1,-4.0997,-4.1224,-4.1324,-4.1324,-4.1298,-4.1498,-4.1796,-4.1993,-4.2457,-4.3163,-4.3642,-4.4209,-4.4563,-4.451,-4.4325,-4.4094,-4.3906,-4.3478,-4.3116,-4.301,-4.317,-4.325,-4.325,-4.3329,-4.3329,-4.3269,-4.2851,-4.2402,-4.1743,-4.1115,-4.0457,-3.9798,-3.9589,-3.9469,-3.9439,-3.9439,-3.9439,-3.9439,-3.9439,-3.9439,-3.9439,-3.9439,-3.9439,-3.9439,-3.9439,-3.9439,-3.9379,-3.929,-3.8631,-3.8033,-3.7404,-3.6746,-3.6028,-3.5669,-3.5614,-3.5718,-3.5973,-3.6289,-3.66,-3.6968,-3.7358,-3.7567,-3.7775,-3.8348,-3.8933,-3.9412,-3.9729,-4.004,-4.0025,-4.0174,-3.9747,-3.9697,-3.9772,-3.9697,-3.9772,-3.9772,-3.9798,-4.0727,-4.1229,-4.1254,-4.1279,-4.158,-4.2032,-4.2208,-4.2484,-4.2735,-4.2886,-4.2986,-4.2986,-4.2986,-4.2986,-4.2986,-4.2986,-4.2986,-4.2986,-4.2986,-4.2986,-4.2961,-4.3073,-4.3098,-4.2986,-4.3098,-4.3321,-4.3406,-4.3254,-4.3314,-4.3508,-4.3322,-4.3245,-4.3387,-4.2931,-4.2342,-4.232,-4.1697,-4.0997,-4.1198,-4.1324,-4.1324,-4.1424,-4.1498,-4.1696,-4.2092,-4.2484,-4.3039,-4.3519,-4.4021,-4.4583,-4.4961,-4.5043,-4.4705,-4.4411,-4.4187,-4.3701,-4.3418,-4.32,-4.325,-4.325,-4.3329,-4.3329,-4.3329,-4.3329,-4.303,-4.2641,-4.2132,-4.1474,-4.0816,-4.0098,-3.9499,-3.9439,-3.9439,-3.9439,-3.9439,-3.9439,-3.9439,-3.9439,-3.9439,-3.9439,-3.9439,-3.9439,-3.9439,-3.9439,-3.9409,-3.932,-3.896,-3.8362,-3.7644,-3.6956,-3.6178,-3.5734,-3.5683,-3.591,-3.6226,-3.6538,-3.6846,-3.715,-3.7449,-3.7685,-3.7982,-3.8398,-3.908,-3.9968,-4.0508,-4.0827,-4.082,-3.9823,-3.9697,-3.9697,-3.9697,-3.9697,-3.9697,-3.9697,-3.9722,-3.9948,-4.035,-4.0651,-4.0752,-4.1003,-4.1505,-4.1882,-4.2158,-4.2359,-4.271,-4.2936,-4.2961,-4.2936,-4.2986,-4.2986,-4.3098,-4.3098,-4.2986,-4.2986,-4.3098,-4.3098,-4.3184,-4.3295,-4.3295,-4.3381,-4.3551,-4.3636,-4.338,-4.3208,-4.3532,-4.3166,-4.3141,-4.3274,-4.2912,-4.2449,-4.2164,-4.1563,-4.125,-4.1324,-4.1324,-4.1424,-4.1597,-4.1597,-4.1993,-4.2582,-4.297,-4.3546,-4.4115,-4.4397,-4.4862,-4.5264,-4.5486,-4.5288,-4.4817,-4.4477,-4.4043,-4.3617,-4.3429,-4.3329,-4.3329,-4.3329,-4.3329,-4.3329,-4.3299,-4.324,-4.288,-4.2462,-4.1803,-4.1145,-4.0307,-3.9529,-3.9439,-3.9439,-3.9439,-3.9439,-3.9439,-3.9439,-3.9439,-3.9439,-3.9439,-3.9439,-3.9439,-3.9439,-3.9439,-3.9439,-3.932,-3.905,-3.8482,-3.7674,-3.6985,-3.6237,-3.5949,-3.5718,-3.607,-3.6414,-3.6785,-3.7089,-3.7389,-3.7626,-3.7918,-3.8245,-3.857,-3.9259,-4.0148,-4.1009,-4.1486,-4.1453,-3.9697,-3.9697,-3.9697,-3.9697,-3.9697,-3.9697,-3.9697,-3.9697,-3.9697,-3.9848,-4.0124,-4.0174,-4.045,-4.0927,-4.1304,-4.1681,-4.1856,-4.2359,-4.2509,-4.261,-4.2947,-4.3073,-4.3073,-4.3184,-4.3321,-4.3321,-4.3432,-4.3432,-4.3381,-4.3543,-4.3653,-4.3551,-4.3694,-4.3598,-4.3521,-4.3192,-4.2964,-4.315,-4.2813,-4.2761,-4.2865,-4.258,-4.2346,-4.2056,-4.169,-4.1376,-4.1298,-4.1398,-4.1597,-4.1796,-4.1993,-4.2484,-4.3094,-4.3546,-4.3926,-4.4397,-4.4676,-4.5138,-4.5595,-4.581,-4.5698,-4.5191,-4.4971,-4.4564,-4.3549,-4.3329,-4.3329,-4.3329,-4.3329,-4.3329,-4.3329,-4.3329,-4.3329,-4.309,-4.2521,-4.1863,-4.0995,-4.0038,-3.9559,-3.9439,-3.9439,-3.9439,-3.9439,-3.9439,-3.9439,-3.9439,-3.9439,-3.9439,-3.9439,-3.9439,-3.9439,-3.9439,-3.9439,-3.9409,-3.926,-3.8512,-3.7554,-3.6896,-3.6364,-3.6079,-3.5943,-3.6352,-3.6662,-3.6968,-3.727,-3.7508,-3.7801,-3.8065,-3.8294,-3.8585,-3.9406,-4.0418,-4.1214,-4.1758,-4.1493,-3.9697,-3.9697,-3.9697,-3.9697,-3.9697,-3.9697,-3.9697,-3.9697,-3.9697,-3.9697,-3.9747,-3.9747,-4.0023,-4.0275,-4.0551,-4.0877,-4.1279,-4.1806,-4.2007,-4.2292,-4.2695,-4.2992,-4.3203,-4.3441,-4.3628,-4.3679,-4.3789,-4.3661,-4.3559,-4.3669,-4.3592,-4.3676,-4.3393,-4.3115,-4.3174,-4.2943,-4.271,-4.2736,-4.2527,-4.2448,-4.2291,-4.2108,-4.2108,-4.1925,-4.1611,-4.135,-4.1398,-4.1498,-4.1696,-4.2092,-4.2484,-4.297,-4.3355,-4.3832,-4.4303,-4.4676,-4.5138,-4.5504,-4.5956,-4.6284,-4.587,-4.5387,-4.5371,-4.4766,-4.3748,-4.3329,-4.3329,-4.3329,-4.3329,-4.3329,-4.3329,-4.3329,-4.3329,-4.315,-4.2521,-4.1923,-4.0905,-3.9918,-3.9619,-3.9439,-3.9439,-3.9439,-3.9439,-3.9439,-3.9439,-3.9439,-3.9439,-3.9439,-3.9439,-3.9439,-3.9439,-3.9439,-3.9439,-3.9409,-3.9379,-3.8512,-3.7464,-3.7053,-3.655,-3.6239,-3.6133,-3.6538,-3.6846,-3.7029,-3.7329,-3.7626,-3.7918,-3.818,-3.8408,-3.8632,-3.9453,-4.0311,-4.0644,-4.112,-4.1077,-3.9697,-3.9697,-3.9697,-3.9697,-3.9697,-3.9697,-3.9697,-3.9697,-3.9697,-3.9697,-3.9697,-3.9697,-3.9798,-3.9898,-4.035,-4.0626,-4.0807,-4.1229,-4.1645,-4.1878,-4.241,-4.278,-4.315,-4.3413,-4.3797,-4.3797,-4.3753,-4.3592,-4.3393,-4.348,-4.3274,-4.2938,-4.3073,-4.2944,-4.2866,-4.2606,-4.2215,-4.2239,-4.1977,-4.1716,-4.1794,-4.1742,-4.1821,-4.1638,-4.1376,-4.1324,-4.1398,-4.1597,-4.1796,-4.219,-4.2776,-4.3259,-4.3709,-4.4181,-4.4583,-4.5046,-4.5504,-4.5866,-4.6225,-4.658,-4.6132,-4.5293,-4.5102,-4.4736,-4.3898,-4.3329,-4.3329,-4.3329,-4.3329,-4.3329,-4.3329,-4.3329,-4.3299,-4.294,-4.2432,-4.1863,-4.1085,-4.0157,-3.9469,-3.9439,-3.9439,-3.9439,-3.9439,-3.9439,-3.9439,-3.9439,-3.9439,-3.9439,-3.9439,-3.9439,-3.9439,-3.9439,-3.9439,-3.9439,-3.9379,-3.8392,-3.7494,-3.7083,-3.6676,-3.6402,-3.6352,-3.6754,-3.6999,-3.721,-3.7508,-3.786,-3.8091,-3.8262,-3.8488,-3.8809,-3.9532,-4.0193,-4.0403,-4.0459,-4.0481]}]]